ftp/pub/palmer/observations_modified/2019/August/AR190822_BASE.txt

Download

Sample DateTime	Unit Id	WS Avg 2min	WD Avg 2min	WGS 10min	WGD 10min	Air Temp	Rel Humidity	Dew Point	Pyranometer	Quantum	Air Pressure	Snow Level	Rainfall	PW Current	Visibility	CBase 1	CBase 2	CBase 3	Vert Vis
2019/08/22  00:00:00  BASE  0        40   0.90552  41   -8.0  100   -8.0  0     0     1013.7   NA       0.0000   BR       6000  0     0    
2019/08/22  00:01:00  BASE  0        40   0.90552  41   -8.0  100   -8.0  0     0     1013.7   NA       0.0000   BR       6000  0     0    
2019/08/22  00:02:00  BASE  0        40   0.90552  41   -8.0  100   -8.0  0     0     1013.7   NA       0.0000   BR       5000  0     0    
2019/08/22  00:03:00  BASE  0        40   0.90552  41   -8.0  100   -8.0  0     0     1013.7   NA       0.0000   BR       4800  0     0    
2019/08/22  00:04:00  BASE  0        40   0.90552  41   -7.9  100   -7.9  0     0     1013.6   NA       0.0000   BR       4900  0     0    
2019/08/22  00:05:00  BASE  0        40   0.84672  41   -7.9  100   -7.9  0     1     1013.6   NA       0.0000   BR       6000  0     0    
2019/08/22  00:06:00  BASE  0        43   0        M    -7.8  100   -7.8  0     0     1013.6   NA       0.0000   BR       7000  0     0    
2019/08/22  00:07:00  BASE  0        47   0        M    -7.7  100   -7.7  0     0     1013.6   NA       0.0000   BR       7000  0     0    
2019/08/22  00:08:00  BASE  0        47   0        M    -7.6  100   -7.6  0     0     1013.6   NA       0.0000   BR       7000  0     0    
2019/08/22  00:09:00  BASE  0        47   0        M    -7.5  100   -7.5  0     0     1013.5   NA       0.0000   BR       7000  0     0    
2019/08/22  00:10:00  BASE  0        47   0        M    -7.4  100   -7.4  0     1     1013.4   NA       0.0000   BR       7000  0     0    
2019/08/22  00:11:00  BASE  0        47   0        M    -7.3  100   -7.3  0     0     1013.4   NA       0.0000   BR       8000  0     0    
2019/08/22  00:12:00  BASE  0        47   0        M    -7.2  100   -7.2  0     0     1013.4   NA       0.0000   BR       8000  0     0    
2019/08/22  00:13:00  BASE  0        47   0        M    -7.2  100   -7.2  0     0     1013.4   NA       0.0000   BR       7000  0     0    
2019/08/22  00:14:00  BASE  0        47   0        M    -7.2  100   -7.2  0     0     1013.4   NA       0.0000   BR       6000  0     0    
2019/08/22  00:15:00  BASE  0        47   0        M    -7.2  100   -7.2  0     0     1013.4   NA       0.0000   BR       7000  0     0    
2019/08/22  00:16:00  BASE  0        47   0        M    -7.2  100   -7.2  0     0     1013.4   NA       0.0000   BR       7000  0     0    
2019/08/22  00:17:00  BASE  0        47   0        M    -7.1  100   -7.1  0     0     1013.4   NA       0.0000   BR       8000  0     0    
2019/08/22  00:18:00  BASE  0        47   0        M    -7.1  100   -7.1  0     0     1013.4   NA       0.0000   BR       8000  0     0    
2019/08/22  00:19:00  BASE  0        47   0        M    -7.0  100   -7.0  0     0     1013.4   NA       0.0000   BR       9000  0     0    
2019/08/22  00:20:00  BASE  0        47   0        M    -7.0  100   -7.0  0     0     1013.4   NA       0.0000   BR       9000  0     0    
2019/08/22  00:21:00  BASE  0        47   0        M    -7.0  100   -7.0  0     0     1013.4   NA       0.0000   BR       8000  0     0    
2019/08/22  00:22:00  BASE  0        47   0        M    -7.1  100   -7.1  0     0     1013.4   NA       0.0000   BR       9000  0     0    
2019/08/22  00:23:00  BASE  0        47   0        M    -7.2  100   -7.2  0     0     1013.4   NA       0.0000   BR       8000  0     0    
2019/08/22  00:24:00  BASE  0        47   0        M    -7.2  100   -7.2  0     0     1013.4   NA       0.0000   BR       8000  0     0    
2019/08/22  00:25:00  BASE  0        41   0        M    -7.3  100   -7.3  0     0     1013.4   NA       0.0000   BR       9999  0     0    
2019/08/22  00:26:00  BASE  0        26   0        M    -7.3  100   -7.3  0     0     1013.4   NA       0.0000   BR       9000  0     0    
2019/08/22  00:27:00  BASE  0        16   0        M    -7.3  100   -7.3  0     0     1013.4   NA       0.0000   BR       9999  0     0    
2019/08/22  00:28:00  BASE  0        16   0        M    -7.3  100   -7.3  0     0     1013.4   NA       0.0000   BR       9999  0     0    
2019/08/22  00:29:00  BASE  0        23   0        M    -7.4  100   -7.4  0     0     1013.4   NA       0.0000   BR       9999  0     0    
2019/08/22  00:30:00  BASE  0        28   0        M    -7.4  100   -7.4  0     0     1013.4   NA       0.0000   BR       9999  0     0    
2019/08/22  00:31:00  BASE  0        34   0        M    -7.5  100   -7.5  0     0     1013.4   NA       0.0000   9999     0     0     0    
2019/08/22  00:32:00  BASE  0        39   0        M    -7.6  100   -7.6  0     1     1013.4   NA       0.0000   9999     0     0     0    
2019/08/22  00:33:00  BASE  0        40   0        M    -7.6  100   -7.6  0     0     1013.4   NA       0.0000   9999     0     0     0    
2019/08/22  00:34:00  BASE  0        39   0        M    -7.7  100   -7.7  0     0     1013.4   NA       0.0000   9999     0     0     0    
2019/08/22  00:35:00  BASE  0        40   0        M    -7.7  100   -7.7  0     0     1013.4   NA       0.0000   9999     0     0     0    
2019/08/22  00:36:00  BASE  0        40   0        M    -7.7  100   -7.7  0     0     1013.4   NA       0.0000   9999     0     0     0    
2019/08/22  00:37:00  BASE  0        40   0        M    -7.7  100   -7.7  0     0     1013.4   NA       0.0000   9999     0     0     0    
2019/08/22  00:38:00  BASE  0        40   0        M    -7.6  100   -7.6  0     0     1013.4   NA       0.0000   9999     0     0     0    
2019/08/22  00:39:00  BASE  0        40   0        M    -7.6  100   -7.6  0     0     1013.4   NA       0.0000   9999     0     0     0    
2019/08/22  00:40:00  BASE  0        42   0        M    -7.6  100   -7.6  0     1     1013.4   NA       0.0000   9999     0     0     0    
2019/08/22  00:41:00  BASE  0        47   0        M    -7.5  100   -7.5  0     1     1013.4   NA       0.0000   9999     0     0     0    
2019/08/22  00:42:00  BASE  0        50   0        M    -7.5  100   -7.5  0     0     1013.4   NA       0.0000   9000     0     0     0    
2019/08/22  00:43:00  BASE  0        50   0        M    -7.4  100   -7.4  0     0     1013.4   NA       0.0000   7000     0     0     0    
2019/08/22  00:44:00  BASE  0        50   0        M    -7.3  100   -7.3  0     0     1013.4   NA       0.0000   6000     0     0     0    
2019/08/22  00:45:00  BASE  0        50   0        M    -7.3  100   -7.3  0     0     1013.4   NA       0.0000   BR       4200  0     0    
2019/08/22  00:46:00  BASE  0        50   0        M    -7.2  100   -7.2  0     0     1013.4   NA       0.0000   BR       3600  0     0    
2019/08/22  00:47:00  BASE  0        50   0        M    -7.2  100   -7.2  0     0     1013.4   NA       0.0000   BR       4500  0     0    
2019/08/22  00:48:00  BASE  0        50   0        M    -7.2  100   -7.2  0     0     1013.4   NA       0.0000   BR       7000  0     0    
2019/08/22  00:49:00  BASE  0        50   0        M    -7.3  100   -7.3  0     0     1013.4   NA       0.0000   BR       9000  0     0    
2019/08/22  00:50:00  BASE  0        50   0        M    -7.3  100   -7.3  0     0     1013.4   NA       0.0000   BR       9000  0     0    
2019/08/22  00:51:00  BASE  0        50   0        M    -7.3  100   -7.3  0     0     1013.4   NA       0.0000   BR       9000  0     0    
2019/08/22  00:52:00  BASE  0        50   0        M    -7.3  100   -7.3  0     0     1013.4   NA       0.0000   BR       9000  0     0    
2019/08/22  00:53:00  BASE  0        50   0        M    -7.2  100   -7.2  0     0     1013.4   NA       0.0000   BR       8000  0     0    
2019/08/22  00:54:00  BASE  0        50   0        M    -7.2  100   -7.2  0     0     1013.4   NA       0.0000   BR       7000  0     0    
2019/08/22  00:55:00  BASE  0        58   0        M    -7.1  100   -7.1  0     0     1013.4   NA       0.0000   BR       7000  0     0    
2019/08/22  00:56:00  BASE  0        75   0        M    -7.1  100   -7.1  0     0     1013.4   NA       0.0000   BR       7000  0     0    
2019/08/22  00:57:00  BASE  0        87   0        M    -7.1  100   -7.1  0     1     1013.4   NA       0.0000   BR       8000  0     0    
2019/08/22  00:58:00  BASE  0        112  0        M    -7.1  100   -7.1  0     0     1013.3   NA       0.0000   BR       9000  0     0    
2019/08/22  00:59:00  BASE  0        142  0        M    -7.1  100   -7.1  0     0     1013.3   NA       0.0000   BR       8000  0     0    
2019/08/22  01:00:00  BASE  0        154  0        M    -7.1  100   -7.1  0     0     1013.3   NA       0.0000   BR       7000  0     0    
2019/08/22  01:01:00  BASE  0        159  0        M    -7.2  100   -7.2  0     0     1013.3   NA       0.0000   BR       7000  0     0    
2019/08/22  01:02:00  BASE  0.33516  159  0.69384  158  -7.4  100   -7.4  0     0     1013.3   NA       0.0000   BR       7000  0     0    
2019/08/22  01:03:00  BASE  0.57624  158  0.69384  158  -7.5  100   -7.5  0     0     1013.3   NA       0.0000   BR       7000  0     0    
2019/08/22  01:04:00  BASE  0.588    158  0.72324  158  -7.6  100   -7.6  0     0     1013.3   NA       0.0000   BR       8000  0     0    
2019/08/22  01:05:00  BASE  0.71148  158  0.78792  159  -7.7  100   -7.7  0     0     1013.3   NA       0.0000   BR       7000  0     0    
2019/08/22  01:06:00  BASE  0.75852  159  0.81732  157  -7.8  100   -7.8  0     1     1013.3   NA       0.0000   BR       6000  0     0    
2019/08/22  01:07:00  BASE  0.78204  155  0.84672  152  -7.8  100   -7.8  0     0     1013.3   NA       0.0000   BR       5000  0     0    
2019/08/22  01:08:00  BASE  0.78204  152  0.84672  152  -7.8  100   -7.8  0     0     1013.3   NA       0.0000   BR       5000  0     0    
2019/08/22  01:09:00  BASE  0.77028  152  0.84672  152  -7.8  100   -7.8  0     0     1013.3   NA       0.0000   BR       3800  0     0    
2019/08/22  01:10:00  BASE  0.84084  152  0.9702   152  -7.8  100   -7.8  0     0     1013.3   NA       0.0000   BR       2600  0     0    
2019/08/22  01:11:00  BASE  0.95256  152  1.1172   152  -7.8  100   -7.8  0     0     1013.3   NA       0.0000   BR       2600  0     0    
2019/08/22  01:12:00  BASE  1.07016  152  1.18188  151  -7.8  100   -7.8  0     0     1013.2   NA       0.0000   BR       2900  0     0    
2019/08/22  01:13:00  BASE  1.13484  151  1.18188  151  -7.8  100   -7.8  0     1     1013.2   NA       0.0000   BR       2700  0     0    
2019/08/22  01:14:00  BASE  1.12896  151  1.18188  151  -7.8  100   -7.8  0     1     1013.2   NA       0.0000   BR       2800  0     0    
2019/08/22  01:15:00  BASE  1.09368  152  1.18188  151  -7.8  100   -7.8  0     0     1013.2   NA       0.0000   BR       3400  0     0    
2019/08/22  01:16:00  BASE  1.05252  150  1.18188  151  -7.8  100   -7.8  0     0     1013.2   NA       0.0000   BR       4000  0     0    
2019/08/22  01:17:00  BASE  1.07016  148  1.18188  151  -7.8  100   -7.8  0     0     1013.2   NA       0.0000   BR       4200  0     0    
2019/08/22  01:18:00  BASE  1.03488  148  1.18188  151  -7.8  100   -7.8  0     0     1013.2   NA       0.0000   BR       4100  0     0    
2019/08/22  01:19:00  BASE  0.95256  149  1.18188  151  -7.8  100   -7.8  0     0     1013.2   NA       0.0000   BR       3900  0     0    
2019/08/22  01:20:00  BASE  0.89964  151  1.18188  151  -7.8  100   -7.8  0     0     1013.2   NA       0.0000   BR       5000  0     0    
2019/08/22  01:21:00  BASE  0.84672  151  1.18188  151  -7.8  100   -7.8  0     0     1013.1   NA       0.0000   BR       7000  0     0    
2019/08/22  01:22:00  BASE  0.82908  149  1.1466   148  -7.8  100   -7.8  0     0     1013.1   NA       0.0000   BR       8000  0     0    
2019/08/22  01:23:00  BASE  0.84084  145  1.1466   148  -7.8  100   -7.8  0     0     1013.0   NA       0.0000   BR       8000  0     0    
2019/08/22  01:24:00  BASE  0.80556  137  1.1466   148  -7.8  100   -7.8  0     1     1013.0   NA       0.0000   BR       8000  0     0    
2019/08/22  01:25:00  BASE  0.81732  130  1.1466   148  -7.7  100   -7.7  0     0     1013.0   NA       0.0000   BR       8000  0     0    
2019/08/22  01:26:00  BASE  0.84672  130  1.1466   148  -7.7  100   -7.7  0     0     1013.0   NA       0.0000   BR       8000  0     0    
2019/08/22  01:27:00  BASE  0.81732  133  1.0584   149  -7.7  100   -7.7  0     0     1012.9   NA       0.0000   BR       7000  0     0    
2019/08/22  01:28:00  BASE  0.7644   134  0.9702   152  -7.6  100   -7.6  0     0     1012.9   NA       0.0000   BR       8000  0     0    
2019/08/22  01:29:00  BASE  0.64092  133  0.93492  132  -7.6  100   -7.6  0     0     1012.9   NA       0.0000   BR       8000  0     0    
2019/08/22  01:30:00  BASE  0.45276  132  0.93492  132  -7.5  100   -7.5  0     0     1012.9   NA       0.0000   BR       8000  0     0    
2019/08/22  01:31:00  BASE  0.1764   128  0.93492  132  -7.5  100   -7.5  0     0     1012.8   NA       0.0000   BR       9000  0     0    
2019/08/22  01:32:00  BASE  0.09996  128  0.93492  132  -7.5  100   -7.5  0     0     1012.8   NA       0.0000   BR       9000  0     0    
2019/08/22  01:33:00  BASE  0.12936  133  0.93492  132  -7.4  100   -7.4  0     0     1012.8   NA       0.0000   BR       9000  0     0    
2019/08/22  01:34:00  BASE  0.18228  138  0.93492  132  -7.4  100   -7.4  0     0     1012.8   NA       0.0000   BR       9999  0     0    
2019/08/22  01:35:00  BASE  0.51744  144  0.93492  132  -7.5  100   -7.5  0     0     1012.8   NA       0.0000   BR       9999  0     0    
2019/08/22  01:36:00  BASE  0.77616  147  0.84672  148  -7.5  100   -7.5  0     0     1012.8   NA       0.0000   BR       9999  0     0    
2019/08/22  01:37:00  BASE  0.81732  148  0.90552  148  -7.6  100   -7.6  0     0     1012.8   NA       0.0000   9999     0     0     0    
2019/08/22  01:38:00  BASE  0.87024  148  0.9702   148  -7.6  100   -7.6  0     0     1012.8   NA       0.0000   9999     0     0     0    
2019/08/22  01:39:00  BASE  0.9702   148  1.0584   148  -7.7  100   -7.7  0     0     1012.8   NA       0.0000   9999     0     0     0    
2019/08/22  01:40:00  BASE  1.03488  148  1.1172   148  -7.8  100   -7.8  0     0     1012.8   NA       0.0000   9999     0     0     0    
2019/08/22  01:41:00  BASE  1.11132  148  1.21128  148  -7.8  100   -7.8  0     0     1012.8   NA       0.0000   9999     0     0     0    
2019/08/22  01:42:00  BASE  1.2054   148  1.29948  148  -7.8  100   -7.8  0     0     1012.8   NA       0.0000   9999     0     0     0    
2019/08/22  01:43:00  BASE  1.29948  148  1.42296  148  -7.8  100   -7.8  0     0     1012.8   NA       0.0000   9999     0     0     0    
2019/08/22  01:44:00  BASE  1.3818   148  1.48176  148  -7.8  100   -7.8  0     0     1012.8   NA       0.0000   9999     0     0     0    
2019/08/22  01:45:00  BASE  1.40532  149  1.48176  148  -7.8  100   -7.8  0     0     1012.8   NA       0.0000   9999     0     0     0    
2019/08/22  01:46:00  BASE  1.35828  150  1.48176  148  -7.8  100   -7.8  0     1     1012.8   NA       0.0000   9999     0     0     0    
2019/08/22  01:47:00  BASE  1.33476  153  1.48176  148  -7.8  100   -7.8  0     0     1012.8   NA       0.0000   9999     0     0     0    
2019/08/22  01:48:00  BASE  1.37592  155  1.48176  155  -7.9  100   -7.9  0     1     1012.8   NA       0.0000   9999     0     0     0    
2019/08/22  01:49:00  BASE  1.41708  156  1.48176  157  -7.9  100   -7.9  0     0     1012.8   NA       0.0000   9999     0     0     0    
2019/08/22  01:50:00  BASE  1.42884  156  1.48176  157  -7.9  100   -7.9  0     0     1012.8   NA       0.0000   9999     0     0     0    
2019/08/22  01:51:00  BASE  1.42884  157  1.48176  159  -7.9  100   -7.9  0     0     1012.8   NA       0.0000   9999     0     0     0    
2019/08/22  01:52:00  BASE  1.43472  159  1.48176  161  -8.0  100   -8.0  0     0     1012.8   NA       0.0000   9999     0     0     0    
2019/08/22  01:53:00  BASE  1.40532  162  1.48176  161  -8.0  100   -8.0  0     0     1012.8   NA       0.0000   9999     0     0     0    
2019/08/22  01:54:00  BASE  1.37592  163  1.48176  161  -8.0  100   -8.0  0     0     1012.8   NA       0.0000   9999     0     0     0    
2019/08/22  01:55:00  BASE  1.33476  163  1.48176  161  -8.1  100   -8.1  0     0     1012.8   NA       0.0000   9999     0     0     0    
2019/08/22  01:56:00  BASE  1.24656  162  1.48176  161  -8.1  100   -8.1  0     0     1012.8   NA       0.0000   9999     0     0     0    
2019/08/22  01:57:00  BASE  1.10544  159  1.48176  161  -8.1  100   -8.1  0     0     1012.8   NA       0.0000   9999     0     0     0    
2019/08/22  01:58:00  BASE  0.93492  154  1.48176  161  -8.1  100   -8.1  0     0     1012.8   NA       0.0000   9999     0     0     0    
2019/08/22  01:59:00  BASE  0.87612  149  1.48176  161  -8.1  100   -8.1  0     0     1012.8   NA       0.0000   9999     0     0     0    
2019/08/22  02:00:00  BASE  0.91728  146  1.48176  161  -8.1  100   -8.1  0     0     1012.8   NA       0.0000   9000     0     0     0    
2019/08/22  02:01:00  BASE  0.9996   144  1.48176  161  -8.1  100   -8.1  0     0     1012.8   NA       0.0000   9000     0     0     0    
2019/08/22  02:02:00  BASE  1.07604  142  1.42296  163  -8.1  100   -8.1  0     0     1012.8   NA       0.0000   9000     0     0     0    
2019/08/22  02:03:00  BASE  1.1466   140  1.42296  163  -8.1  100   -8.1  0     1     1012.8   NA       0.0000   9000     0     0     0    
2019/08/22  02:04:00  BASE  1.25832  138  1.45236  141  -8.1  100   -8.1  0     0     1012.8   NA       0.0000   9999     0     0     0    
2019/08/22  02:05:00  BASE  1.25244  136  1.45236  141  -8.1  100   -8.1  0     0     1012.8   NA       0.0000   9999     0     0     0    
2019/08/22  02:06:00  BASE  1.21128  128  1.45236  141  -8.1  100   -8.1  0     0     1012.8   NA       0.0000   9999     0     0     0    
2019/08/22  02:07:00  BASE  1.14072  123  1.45236  141  -8.1  100   -8.1  0     0     1012.8   NA       0.0000   9999     0     0     0    
2019/08/22  02:08:00  BASE  1.07604  125  1.45236  141  -8.1  100   -8.1  0     0     1012.8   NA       0.0000   9999     0     0     0    
2019/08/22  02:09:00  BASE  1.18776  126  1.54056  133  -8.1  100   -8.1  0     0     1012.8   NA       0.0000   9999     0     0     0    
2019/08/22  02:10:00  BASE  1.19364  128  1.54056  133  -8.2  100   -8.2  0     0     1012.8   NA       0.0000   9999     0     0     0    
2019/08/22  02:11:00  BASE  1.18188  129  1.54056  133  -8.2  100   -8.2  0     0     1012.8   NA       0.0000   9999     0     0     0    
2019/08/22  02:12:00  BASE  1.27008  128  1.57584  121  -8.1  100   -8.1  0     0     1012.8   NA       0.0000   9999     0     0     0    
2019/08/22  02:13:00  BASE  1.32888  124  1.57584  127  -8.1  100   -8.1  0     1     1012.8   NA       0.0000   9999     0     0     0    
2019/08/22  02:14:00  BASE  1.22892  124  1.57584  127  -8.0  100   -8.0  0     0     1012.8   NA       0.0000   9999     0     0     0    
2019/08/22  02:15:00  BASE  1.2348   126  1.63464  117  -7.9  100   -7.9  0     0     1012.8   NA       0.0000   9999     0     0     0    
2019/08/22  02:16:00  BASE  1.24068  124  1.63464  117  -7.8  100   -7.8  0     0     1012.8   NA       0.0000   9999     0     0     0    
2019/08/22  02:17:00  BASE  1.13484  123  1.63464  117  -7.8  100   -7.8  0     0     1012.8   NA       0.0000   9999     0     0     0    
2019/08/22  02:18:00  BASE  1.24656  122  1.63464  117  -7.8  100   -7.8  0     0     1012.8   NA       0.0000   9999     0     0     0    
2019/08/22  02:19:00  BASE  1.28772  126  1.63464  117  -7.8  100   -7.8  0     0     1012.8   NA       0.0000   9999     0     0     0    
2019/08/22  02:20:00  BASE  1.16424  131  1.63464  117  -7.8  100   -7.8  0     0     1012.8   NA       0.0000   9999     0     0     0    
2019/08/22  02:21:00  BASE  1.12308  132  1.63464  117  -7.8  100   -7.8  0     0     1012.8   NA       0.0000   9999     0     0     0    
2019/08/22  02:22:00  BASE  1.18776  134  1.63464  117  -7.8  100   -7.8  0     0     1012.8   NA       0.0000   9999     0     0     0    
2019/08/22  02:23:00  BASE  1.2054   138  1.63464  117  -7.8  100   -7.8  0     0     1012.8   NA       0.0000   9999     0     0     0    
2019/08/22  02:24:00  BASE  1.14072  141  1.63464  117  -7.8  100   -7.8  0     1     1012.8   NA       0.0000   9999     0     0     0    
2019/08/22  02:25:00  BASE  1.02312  138  1.54056  141  -7.8  100   -7.8  0     0     1012.8   NA       0.0000   9999     0     0     0    
2019/08/22  02:26:00  BASE  0.882    139  1.54056  141  -7.8  100   -7.8  0     1     1012.8   NA       0.0000   9999     0     0     0    
2019/08/22  02:27:00  BASE  0.48216  138  1.54056  141  -7.8  100   -7.8  0     0     1012.8   NA       0.0000   9999     0     0     0    
2019/08/22  02:28:00  BASE  0.44688  137  1.54056  141  -7.8  100   -7.8  0     0     1012.8   NA       0.0000   9999     0     0     0    
2019/08/22  02:29:00  BASE  0.84084  137  1.54056  141  -7.7  100   -7.7  0     0     1012.8   NA       0.0000   9999     0     0     0    
2019/08/22  02:30:00  BASE  1.02312  134  1.54056  141  -7.7  100   -7.7  0     0     1012.8   NA       0.0000   9999     0     0     0    
2019/08/22  02:31:00  BASE  1.0584   135  1.54056  141  -7.7  100   -7.7  0     0     1012.8   NA       0.0000   9999     0     0     0    
2019/08/22  02:32:00  BASE  1.0584   135  1.54056  141  -7.7  100   -7.7  0     0     1012.8   NA       0.0000   9999     0     0     0    
2019/08/22  02:33:00  BASE  1.04076  136  1.21128  137  -7.7  100   -7.7  0     0     1012.8   NA       0.0000   9999     0     0     0    
2019/08/22  02:34:00  BASE  0.96432  138  1.21128  137  -7.6  100   -7.6  0     0     1012.8   NA       0.0000   9999     0     0     0    
2019/08/22  02:35:00  BASE  0.85848  142  1.21128  137  -7.6  100   -7.6  0     0     1012.8   NA       0.0000   9999     0     0     0    
2019/08/22  02:36:00  BASE  0.72324  145  1.21128  137  -7.6  100   -7.6  0     0     1012.8   NA       0.0000   9999     0     0     0    
2019/08/22  02:37:00  BASE  0.58212  140  1.21128  137  -7.5  100   -7.5  0     0     1012.8   NA       0.0000   9999     0     0     0    
2019/08/22  02:38:00  BASE  0.294    135  1.21128  137  -7.5  100   -7.5  0     0     1012.7   NA       0.0000   9999     0     0     0    
2019/08/22  02:39:00  BASE  0.02352  130  1.21128  137  -7.4  100   -7.4  0     0     1012.7   NA       0.0000   9999     0     0     0    
2019/08/22  02:40:00  BASE  0        132  1.21128  137  -7.4  100   -7.4  0     0     1012.7   NA       0.0000   9999     0     0     0    
2019/08/22  02:41:00  BASE  0        129  1.18188  131  -7.4  100   -7.4  0     0     1012.7   NA       0.0000   9999     0     0     0    
2019/08/22  02:42:00  BASE  0        110  1.1466   140  -7.3  100   -7.3  0     0     1012.7   NA       0.0000   9999     0     0     0    
2019/08/22  02:43:00  BASE  0        92   0.9702   142  -7.3  100   -7.3  0     0     1012.7   NA       0.0000   9999     0     0     0    
2019/08/22  02:44:00  BASE  0        83   0.93492  143  -7.3  100   -7.3  0     0     1012.7   NA       0.0000   9999     0     0     0    
2019/08/22  02:45:00  BASE  0        93   0.81732  141  -7.2  100   -7.2  0     0     1012.7   NA       0.0000   9999     0     0     0    
2019/08/22  02:46:00  BASE  0        110  0.66444  136  -7.2  100   -7.2  0     0     1012.7   NA       0.0000   9999     0     0     0    
2019/08/22  02:47:00  BASE  0        113  0.60564  115  -7.2  100   -7.2  0     0     1012.7   NA       0.0000   9999     0     0     0    
2019/08/22  02:48:00  BASE  0        111  0        M    -7.2  100   -7.2  0     0     1012.7   NA       0.0000   9999     0     0     0    
2019/08/22  02:49:00  BASE  0        105  0        M    -7.2  100   -7.2  0     0     1012.7   NA       0.0000   9999     0     0     0    
2019/08/22  02:50:00  BASE  0        102  0        M    -7.2  100   -7.2  0     0     1012.7   NA       0.0000   9999     0     0     0    
2019/08/22  02:51:00  BASE  0        101  0        M    -7.2  100   -7.2  0     0     1012.7   NA       0.0000   9999     0     0     0    
2019/08/22  02:52:00  BASE  0        96   0        M    -7.2  100   -7.2  0     0     1012.7   NA       0.0000   9999     0     0     0    
2019/08/22  02:53:00  BASE  0        98   0        M    -7.2  100   -7.2  0     0     1012.7   NA       0.0000   9999     0     0     0    
2019/08/22  02:54:00  BASE  0        108  0        M    -7.2  100   -7.2  0     0     1012.7   NA       0.0000   9999     0     0     0    
2019/08/22  02:55:00  BASE  0        115  0        M    -7.2  100   -7.2  0     0     1012.7   NA       0.0000   9999     0     0     0    
2019/08/22  02:56:00  BASE  0        124  0        M    -7.2  100   -7.2  0     0     1012.7   NA       0.0000   9999     0     0     0    
2019/08/22  02:57:00  BASE  0        125  0        M    -7.2  100   -7.2  0     0     1012.7   NA       0.0000   9999     0     0     0    
2019/08/22  02:58:00  BASE  0        121  0        M    -7.3  100   -7.3  0     0     1012.7   NA       0.0000   9999     0     0     0    
2019/08/22  02:59:00  BASE  0        115  0        M    -7.3  100   -7.3  0     0     1012.7   NA       0.0000   9999     0     0     0    
2019/08/22  03:00:00  BASE  0        108  0        M    -7.3  100   -7.3  0     0     1012.7   NA       0.0000   9999     0     0     0    
2019/08/22  03:01:00  BASE  0        105  0        M    -7.3  100   -7.3  0     0     1012.7   NA       0.0000   9999     0     0     0    
2019/08/22  03:02:00  BASE  0        107  0        M    -7.2  100   -7.2  0     0     1012.7   NA       0.0000   9999     0     0     0    
2019/08/22  03:03:00  BASE  0        107  0        M    -7.2  100   -7.2  0     0     1012.7   NA       0.0000   9999     0     0     0    
2019/08/22  03:04:00  BASE  0        107  0        M    -7.3  100   -7.3  0     0     1012.7   NA       0.0000   9999     0     0     0    
2019/08/22  03:05:00  BASE  0        90   0        M    -7.4  100   -7.4  0     0     1012.7   NA       0.0000   9999     0     0     0    
2019/08/22  03:06:00  BASE  0        48   0        M    -7.5  100   -7.5  0     0     1012.7   NA       0.0000   9999     0     0     0    
2019/08/22  03:07:00  BASE  0        33   0        M    -7.5  100   -7.5  0     0     1012.8   NA       0.0000   9999     0     0     0    
2019/08/22  03:08:00  BASE  0.10584  49   0.63504  52   -7.6  100   -7.6  0     0     1012.7   NA       0.0000   9999     0     0     0    
2019/08/22  03:09:00  BASE  0.28812  54   0.66444  51   -7.7  100   -7.7  0     0     1012.7   NA       0.0000   9999     0     0     0    
2019/08/22  03:10:00  BASE  0.18228  52   0.66444  51   -7.8  100   -7.8  0     0     1012.7   NA       0.0000   9999     0     0     0    
2019/08/22  03:11:00  BASE  0        52   0.66444  51   -7.9  100   -7.9  0     0     1012.8   NA       0.0000   9999     0     0     0    
2019/08/22  03:12:00  BASE  0        51   0.66444  51   -8.0  100   -8.0  0     0     1012.7   NA       0.0000   9999     0     0     0    
2019/08/22  03:13:00  BASE  0        50   0.66444  51   -8.1  100   -8.1  0     0     1012.7   NA       0.0000   9999     0     0     0    
2019/08/22  03:14:00  BASE  0        50   0.66444  51   -8.1  100   -8.1  0     0     1012.7   NA       0.0000   9999     0     0     0    
2019/08/22  03:15:00  BASE  0        50   0.66444  51   -8.1  100   -8.1  0     0     1012.7   NA       0.0000   9999     0     0     0    
2019/08/22  03:16:00  BASE  0        50   0.66444  51   -8.1  100   -8.1  0     0     1012.8   NA       0.0000   9999     0     0     0    
2019/08/22  03:17:00  BASE  0        50   0.66444  51   -8.1  100   -8.1  0     0     1012.8   NA       0.0000   9999     0     0     0    
2019/08/22  03:18:00  BASE  0        50   0.66444  51   -8.1  100   -8.1  0     0     1012.8   NA       0.0000   9999     0     0     0    
2019/08/22  03:19:00  BASE  0        50   0        M    -8.1  100   -8.1  0     0     1012.8   NA       0.0000   9999     0     0     0    
2019/08/22  03:20:00  BASE  0        50   0        M    -8.1  100   -8.1  0     0     1012.8   NA       0.0000   9999     0     0     0    
2019/08/22  03:21:00  BASE  0        41   0        M    -8.1  100   -8.1  0     0     1012.8   NA       0.0000   9999     0     0     0    
2019/08/22  03:22:00  BASE  0        29   0        M    -8.1  100   -8.1  0     0     1012.8   NA       0.0000   9999     0     0     0    
2019/08/22  03:23:00  BASE  0.29988  23   0.72324  19   -8.2  100   -8.2  0     0     1012.8   NA       0.0000   9999     0     0     0    
2019/08/22  03:24:00  BASE  0.67032  19   0.84672  19   -8.2  100   -8.2  0     0     1012.8   NA       0.0000   9999     0     0     0    
2019/08/22  03:25:00  BASE  0.7644   19   0.84672  19   -8.2  100   -8.2  0     1     1012.8   NA       0.0000   9999     0     0     0    
2019/08/22  03:26:00  BASE  0.81732  19   0.90552  15   -8.3  100   -8.3  0     1     1012.8   NA       0.0000   9999     0     0     0    
2019/08/22  03:27:00  BASE  0.882    14   0.9702   9    -8.3  100   -8.3  0     0     1012.9   NA       0.0000   9999     0     0     0    
2019/08/22  03:28:00  BASE  0.96432  9    1.0878   7    -8.4  100   -8.4  0     0     1012.9   NA       0.0000   9999     0     0     0    
2019/08/22  03:29:00  BASE  1.02312  7    1.0878   7    -8.4  100   -8.4  0     1     1012.9   NA       0.0000   9999     0     0     0    
2019/08/22  03:30:00  BASE  1.01136  7    1.0878   7    -8.5  100   -8.5  0     0     1012.9   NA       0.0000   9999     0     0     0    
2019/08/22  03:31:00  BASE  0.95256  5    1.0878   7    -8.6  100   -8.6  0     0     1012.9   NA       0.0000   9999     0     0     0    
2019/08/22  03:32:00  BASE  0.95256  8    1.0878   7    -8.7  100   -8.7  0     0     1012.9   NA       0.0000   9999     0     0     0    
2019/08/22  03:33:00  BASE  0.95844  14   1.0878   7    -8.7  100   -8.7  0     0     1012.9   NA       0.0000   9999     0     0     0    
2019/08/22  03:34:00  BASE  0.96432  19   1.0878   7    -8.7  100   -8.7  0     0     1012.9   NA       0.0000   9999     0     0     0    
2019/08/22  03:35:00  BASE  0.93492  20   1.0878   7    -8.7  100   -8.7  0     0     1012.9   NA       0.0000   9999     0     0     0    
2019/08/22  03:36:00  BASE  0.89964  20   1.0878   7    -8.6  100   -8.6  0     0     1012.9   NA       0.0000   9999     360   0     0    
2019/08/22  03:37:00  BASE  0.92316  21   1.0878   7    -8.6  100   -8.6  0     0     1012.9   NA       0.0000   9999     0     0     0    
2019/08/22  03:38:00  BASE  0.97608  26   1.0878   7    -8.6  100   -8.6  0     0     1012.9   NA       0.0000   9999     0     0     0    
2019/08/22  03:39:00  BASE  1.029    28   1.0878   24   -8.6  100   -8.6  0     0     1012.9   NA       0.0000   9999     0     0     0    
2019/08/22  03:40:00  BASE  1.04076  24   1.0878   24   -8.6  100   -8.6  0     1     1013.0   NA       0.0000   9999     0     0     0    
2019/08/22  03:41:00  BASE  0.95844  20   1.0878   24   -8.6  100   -8.6  0     0     1013.0   NA       0.0000   9999     0     0     0    
2019/08/22  03:42:00  BASE  0.95844  18   1.1466   21   -8.5  100   -8.5  0     1     1013.0   NA       0.0000   9999     0     0     0    
2019/08/22  03:43:00  BASE  0.94668  17   1.1466   21   -8.5  100   -8.5  0     0     1013.0   NA       0.0000   9999     0     0     0    
2019/08/22  03:44:00  BASE  0.90552  17   1.1466   21   -8.5  100   -8.5  0     0     1013.0   NA       0.0000   9999     0     0     0    
2019/08/22  03:45:00  BASE  0.93492  15   1.1466   21   -8.5  100   -8.5  0     0     1013.0   NA       0.0000   9999     720   0     0    
2019/08/22  03:46:00  BASE  0.89964  17   1.1466   21   -8.5  100   -8.5  0     0     1013.0   NA       0.0000   9999     300   750   0    
2019/08/22  03:47:00  BASE  0.87024  14   1.1466   21   -8.5  100   -8.5  0     0     1013.0   NA       0.0000   9999     300   790   0    
2019/08/22  03:48:00  BASE  0.68796  12   1.1466   21   -8.5  100   -8.5  0     0     1013.0   NA       0.0000   9999     750   0     0    
2019/08/22  03:49:00  BASE  0.36456  17   1.1466   21   -8.5  100   -8.5  0     0     1013.0   NA       0.0000   9999     0     0     0    
2019/08/22  03:50:00  BASE  0.13524  17   1.1466   21   -8.4  100   -8.4  0     0     1013.0   NA       0.0000   9999     330   0     0    
2019/08/22  03:51:00  BASE  0.02352  21   1.1466   21   -8.4  100   -8.4  0     0     1013.0   NA       0.0000   9999     360   0     0    
2019/08/22  03:52:00  BASE  0        27   1.1172   19   -8.3  100   -8.3  0     0     1013.0   NA       0.0000   9999     360   0     0    
2019/08/22  03:53:00  BASE  0        29   1.1172   19   -8.2  100   -8.2  0     0     1013.0   NA       0.0000   9999     330   750   0    
2019/08/22  03:54:00  BASE  0        30   1.0584   23   -8.2  100   -8.2  0     0     1013.0   NA       0.0000   9999     330   720   0    
2019/08/22  03:55:00  BASE  0        28   1.029    8    -8.2  100   -8.2  0     0     1013.0   NA       0.0000   9999     300   720   0    
2019/08/22  03:56:00  BASE  0        26   0.9702   19   -8.1  100   -8.1  0     0     1013.0   NA       0.0000   9999     300   690   0    
2019/08/22  03:57:00  BASE  0        24   0.75852  17   -8.1  100   -8.1  0     0     1013.0   NA       0.0000   9999     300   0     0    
2019/08/22  03:58:00  BASE  0        23   0.66444  12   -8.1  100   -8.1  0     0     1013.0   NA       0.0000   9999     300   0     0    
2019/08/22  03:59:00  BASE  0        23   0.60564  13   -8.0  100   -8.0  0     0     1013.0   NA       0.0000   9999     560   0     0    
2019/08/22  04:00:00  BASE  0        27   0        M    -8.0  100   -8.0  0     0     1013.0   NA       0.0000   9999     430   0     0    
2019/08/22  04:03:00  BASE  0.0294   47   0.63504  52   -7.9  100   -7.9  0     0     1013.1   NA       0.0000   9999     390   0     0    
2019/08/22  04:04:00  BASE  0.10584  56   0.63504  59   -7.9  100   -7.9  0     0     1013.2   NA       0.0000   9999     360   0     0    
2019/08/22  04:05:00  BASE  0.10584  59   0.63504  59   -7.9  100   -7.9  0     0     1013.2   NA       0.0000   9999     330   0     0    
2019/08/22  04:06:00  BASE  0.02352  54   0.63504  59   -7.8  100   -7.8  0     0     1013.2   NA       0.0000   9999     330   0     0    
2019/08/22  04:07:00  BASE  0.02352  50   0.63504  59   -7.8  100   -7.8  0     0     1013.2   NA       0.0000   9999     360   0     0    
2019/08/22  04:08:00  BASE  0.11172  52   0.72324  50   -7.8  100   -7.8  0     0     1013.2   NA       0.0000   9999     360   0     0    
2019/08/22  04:09:00  BASE  0.35868  50   0.84672  52   -7.7  100   -7.7  0     0     1013.2   NA       0.0000   9999     390   0     0    
2019/08/22  04:10:00  BASE  0.51156  45   0.84672  52   -7.7  100   -7.7  0     0     1013.2   NA       0.0000   9999     360   0     0    
2019/08/22  04:11:00  BASE  0.59388  43   0.90552  50   -7.8  100   -7.8  0     0     1013.2   NA       0.0000   9999     360   0     0    
2019/08/22  04:12:00  BASE  0.72912  45   0.90552  49   -7.8  100   -7.8  0     0     1013.2   NA       0.0000   7000     330   0     0    
2019/08/22  04:13:00  BASE  0.87024  47   1.0878   51   -7.9  100   -7.9  0     0     1013.2   NA       0.0000   6000     330   0     0    
2019/08/22  04:14:00  BASE  0.90552  49   1.0878   51   -7.9  100   -7.9  0     0     1013.2   NA       0.0000   6000     330   0     0    
2019/08/22  04:15:00  BASE  0.7938   48   1.0878   51   -8.0  100   -8.0  0     0     1013.2   NA       0.0000   BR       6000  300   0    
2019/08/22  04:16:00  BASE  0.71148  43   1.0878   51   -8.0  100   -8.0  0     0     1013.1   NA       0.0000   BR       8000  330   0    
2019/08/22  04:17:00  BASE  0.77616  46   1.0878   51   -7.9  100   -7.9  0     0     1013.1   NA       0.0000   BR       9000  360   0    
2019/08/22  04:18:00  BASE  0.81144  51   1.0878   51   -7.9  100   -7.9  0     0     1013.1   NA       0.0000   BR       7000  360   0    
2019/08/22  04:19:00  BASE  0.79968  51   1.0878   51   -7.9  100   -7.9  0     0     1013.1   NA       0.0000   BR       7000  330   0    
2019/08/22  04:20:00  BASE  0.62916  51   1.0878   51   -8.0  100   -8.0  0     0     1013.0   NA       0.0000   BR       7000  330   0    
2019/08/22  04:21:00  BASE  0.22344  51   1.0878   51   -7.9  100   -7.9  0     0     1013.1   NA       0.0000   BR       9000  360   0    
2019/08/22  04:22:00  BASE  0        51   1.0878   51   -7.9  100   -7.9  0     0     1013.2   NA       0.0000   BR       9000  390   0    
2019/08/22  04:23:00  BASE  0        48   0.9702   52   -7.9  100   -7.9  0     0     1013.2   NA       0.0000   BR       9000  360   0    
2019/08/22  04:24:00  BASE  0        41   0.93492  51   -7.9  100   -7.9  0     0     1013.2   NA       0.0000   BR       9000  360   0    
2019/08/22  04:25:00  BASE  0.30576  36   0.93492  51   -8.0  100   -8.0  0     0     1013.2   NA       0.0000   BR       7000  330   0    
2019/08/22  04:26:00  BASE  0.63504  37   0.93492  51   -8.0  100   -8.0  0     0     1013.2   NA       0.0000   BR       8000  300   0    
2019/08/22  04:27:00  BASE  0.47628  38   0.90552  51   -8.1  100   -8.1  0     0     1013.2   NA       0.0000   BR       6000  300   0    
2019/08/22  04:28:00  BASE  0.15288  39   0.90552  51   -8.1  100   -8.1  0     0     1013.2   NA       0.0000   BR       6000  330   0    
2019/08/22  04:29:00  BASE  0        40   0.69384  37   -8.2  100   -8.2  0     0     1013.2   NA       0.0000   BR       6000  330   920  
2019/08/22  04:30:00  BASE  0.02352  40   0.69384  37   -8.2  100   -8.2  0     0     1013.3   NA       0.0000   BR       4800  300   920  
2019/08/22  04:31:00  BASE  0.02352  40   0.69384  37   -8.2  100   -8.2  0     0     1013.3   NA       0.0000   BR       4400  300   890  
2019/08/22  04:32:00  BASE  0        39   0.69384  37   -8.2  100   -8.2  0     0     1013.3   NA       0.0000   BR       5000  260   850  
2019/08/22  04:33:00  BASE  0.05292  39   0.69384  37   -8.2  100   -8.2  0     0     1013.2   NA       0.0000   BR       6000  260   890  
2019/08/22  04:34:00  BASE  0.05292  38   0.69384  37   -8.2  100   -8.2  0     0     1013.2   NA       0.0000   BR       5000  230   890  
2019/08/22  04:35:00  BASE  0        38   0.69384  37   -8.2  100   -8.2  0     0     1013.2   NA       0.0000   BR       4900  230   890  
2019/08/22  04:36:00  BASE  0.02352  38   0.63504  39   -8.2  100   -8.2  0     0     1013.2   NA       0.0000   BR       5000  260   850  
2019/08/22  04:37:00  BASE  0.28812  39   0.75852  39   -8.1  100   -8.1  0     0     1013.2   NA       0.0000   BR       5000  260   0    
2019/08/22  04:38:00  BASE  0.65268  39   0.81732  39   -8.1  100   -8.1  0     0     1013.2   NA       0.0000   BR       7000  260   0    
2019/08/22  04:39:00  BASE  0.80556  39   0.84672  40   -8.1  100   -8.1  0     0     1013.2   NA       0.0000   BR       8000  260   0    
2019/08/22  04:40:00  BASE  0.82908  40   0.84672  40   -8.1  100   -8.1  0     0     1013.2   NA       0.0000   BR       7000  260   0    
2019/08/22  04:41:00  BASE  0.84672  41   0.90552  46   -8.1  100   -8.1  0     0     1013.2   NA       0.0000   BR       9999  300   0    
2019/08/22  04:42:00  BASE  0.89964  45   0.9996   47   -8.1  100   -8.1  0     0     1013.2   NA       0.0000   BR       9000  360   0    
2019/08/22  04:43:00  BASE  0.95844  46   1.029    45   -8.1  100   -8.1  0     0     1013.2   NA       0.0000   BR       9000  330   0    
2019/08/22  04:44:00  BASE  0.9996   45   1.0878   43   -8.1  100   -8.1  0     0     1013.2   NA       0.0000   BR       9000  300   0    
2019/08/22  04:45:00  BASE  1.06428  43   1.1172   43   -8.1  100   -8.1  0     0     1013.2   NA       0.0000   BR       9000  330   0    
2019/08/22  04:46:00  BASE  1.09368  43   1.1466   43   -8.2  100   -8.2  0     0     1013.1   NA       0.0000   BR       9999  330   0    
2019/08/22  04:47:00  BASE  1.10544  42   1.1466   38   -8.2  100   -8.2  0     0     1013.0   NA       0.0000   BR       9999  360   0    
2019/08/22  04:48:00  BASE  1.17012  39   1.29948  38   -8.3  100   -8.3  0     0     1013.0   NA       0.0000   BR       9999  390   0    
2019/08/22  04:49:00  BASE  1.21716  38   1.29948  38   -8.3  100   -8.3  0     0     1013.0   NA       0.0000   9999     390   950   0    
2019/08/22  04:50:00  BASE  1.1466   39   1.29948  38   -8.4  100   -8.4  0     0     1013.0   NA       0.0000   9999     360   0     0    
2019/08/22  04:51:00  BASE  1.08192  39   1.29948  38   -8.4  100   -8.4  0     0     1013.0   NA       0.0000   9999     430   0     0    
2019/08/22  04:52:00  BASE  1.08192  40   1.29948  38   -8.4  100   -8.4  0     0     1013.0   NA       0.0000   9999     430   0     0    
2019/08/22  04:53:00  BASE  1.10544  40   1.29948  38   -8.4  100   -8.4  0     0     1013.0   NA       0.0000   9999     390   0     0    
2019/08/22  04:54:00  BASE  1.0878   39   1.29948  38   -8.4  100   -8.4  0     0     1013.0   NA       0.0000   9999     390   0     0    
2019/08/22  04:55:00  BASE  1.029    39   1.29948  38   -8.4  100   -8.4  0     0     1013.0   NA       0.0000   9999     430   0     0    
2019/08/22  04:56:00  BASE  1.029    39   1.29948  38   -8.4  100   -8.4  0     0     1013.0   NA       0.0000   9999     460   0     0    
2019/08/22  04:57:01  BASE  1.04664  39   1.29948  38   -8.4  100   -8.4  0     0     1013.0   NA       0.0000   9000     430   0     0    
2019/08/22  04:58:01  BASE  0.9996   40   1.29948  38   -8.4  100   -8.4  0     0     1012.9   NA       0.0000   9999     430   0     0    
2019/08/22  04:59:00  BASE  0.9408   40   1.1466   39   -8.4  100   -8.4  0     0     1012.9   NA       0.0000   9999     430   0     0    
2019/08/22  05:00:00  BASE  0.88788  40   1.1466   39   -8.4  100   -8.4  0     0     1012.9   NA       0.0000   9999     430   0     0    
2019/08/22  05:01:00  BASE  0.86436  40   1.1466   39   -8.4  100   -8.4  0     0     1012.9   NA       0.0000   9999     390   0     0    
2019/08/22  05:02:00  BASE  0.81732  40   1.1466   39   -8.3  100   -8.3  0     0     1012.9   NA       0.0000   9999     390   0     0    
2019/08/22  05:03:00  BASE  0.82908  40   1.0878   39   -8.3  100   -8.3  0     0     1012.9   NA       0.0000   9999     360   0     0    
2019/08/22  05:04:01  BASE  0.9114   40   1.0878   39   -8.3  100   -8.3  0     0     1012.9   NA       0.0000   9999     360   0     0    
2019/08/22  05:05:00  BASE  0.95844  40   1.0878   39   -8.3  100   -8.3  0     0     1012.9   NA       0.0000   9999     360   0     0    
2019/08/22  05:06:00  BASE  0.96432  40   1.0878   39   -8.3  100   -8.3  0     0     1012.9   NA       0.0000   9999     330   0     0    
2019/08/22  05:07:00  BASE  0.90552  39   1.029    40   -8.3  100   -8.3  0     0     1012.9   NA       0.0000   9999     330   0     0    
2019/08/22  05:08:00  BASE  0.87024  36   1.029    40   -8.3  100   -8.3  0     0     1012.9   NA       0.0000   9999     330   0     0    
2019/08/22  05:09:00  BASE  0.85848  33   1.029    40   -8.3  100   -8.3  0     0     1012.9   NA       0.0000   9999     330   0     0    
2019/08/22  05:10:00  BASE  0.87024  33   1.029    40   -8.3  100   -8.3  0     0     1012.9   NA       0.0000   9999     300   0     0    
2019/08/22  05:11:00  BASE  0.882    35   1.029    40   -8.3  100   -8.3  0     0     1012.9   NA       0.0000   9999     490   0     0    
2019/08/22  05:12:00  BASE  0.89964  38   1.029    40   -8.3  100   -8.3  0     0     1012.9   NA       0.0000   9999     520   0     0    
2019/08/22  05:13:00  BASE  0.91728  39   1.029    40   -8.4  100   -8.4  0     0     1012.9   NA       0.0000   9999     520   0     0    
2019/08/22  05:14:00  BASE  0.90552  39   1.029    40   -8.4  100   -8.4  0     0     1012.9   NA       0.0000   9999     0     0     0    
2019/08/22  05:15:01  BASE  0.87612  39   0.9702   39   -8.4  100   -8.4  0     0     1012.9   NA       0.0000   9999     0     0     0    
2019/08/22  05:16:01  BASE  0.87024  37   0.9702   39   -8.4  100   -8.4  0     0     1012.8   NA       0.0000   9999     0     0     0    
2019/08/22  05:17:01  BASE  0.87612  32   0.9702   39   -8.4  100   -8.4  0     0     1012.9   NA       0.0000   9999     0     0     0    
2019/08/22  05:18:01  BASE  0.88788  29   0.9702   28   -8.4  100   -8.4  0     0     1012.9   NA       0.0000   9999     0     0     0    
2019/08/22  05:19:01  BASE  0.92904  27   0.9702   28   -8.4  100   -8.4  0     0     1012.9   NA       0.0000   9999     0     0     0    
2019/08/22  05:20:01  BASE  0.95256  28   0.9996   28   -8.4  100   -8.4  0     0     1012.9   NA       0.0000   9999     0     0     0    
2019/08/22  05:21:00  BASE  0.9996   29   1.1466   29   -8.4  100   -8.4  0     0     1012.9   NA       0.0000   9999     0     0     0    
2019/08/22  05:22:00  BASE  1.11132  28   1.21128  27   -8.4  100   -8.4  0     0     1012.9   NA       0.0000   9999     850   0     0    
2019/08/22  05:23:00  BASE  1.18188  26   1.24068  25   -8.4  100   -8.4  0     0     1013.0   NA       0.0000   9999     850   0     0    
2019/08/22  05:24:00  BASE  1.1172   23   1.24068  25   -8.4  100   -8.4  0     0     1013.0   NA       0.0000   9999     820   0     0    
2019/08/22  05:25:00  BASE  1.01724  22   1.24068  25   -8.4  100   -8.4  0     0     1012.9   NA       0.0000   9999     790   0     0    
2019/08/22  05:26:00  BASE  0.98196  20   1.24068  25   -8.4  100   -8.4  0     0     1012.9   NA       0.0000   9999     750   0     0    
2019/08/22  05:27:00  BASE  0.9408   21   1.24068  25   -8.4  100   -8.4  0     0     1012.9   NA       0.0000   9999     750   0     0    
2019/08/22  05:28:00  BASE  0.882    23   1.24068  25   -8.4  100   -8.4  0     0     1013.0   NA       0.0000   9999     720   0     0    
2019/08/22  05:29:00  BASE  0.85848  22   1.24068  25   -8.4  100   -8.4  0     0     1013.0   NA       0.0000   9999     720   0     0    
2019/08/22  05:30:00  BASE  0.86436  20   1.24068  25   -8.4  100   -8.4  0     0     1013.0   NA       0.0000   9999     690   0     0    
2019/08/22  05:31:00  BASE  0.92316  18   1.24068  25   -8.4  100   -8.4  0     0     1013.0   NA       0.0000   9999     660   0     0    
2019/08/22  05:32:00  BASE  1.02312  17   1.24068  25   -8.4  100   -8.4  0     0     1013.0   NA       0.0000   9999     660   0     0    
2019/08/22  05:33:00  BASE  1.12308  18   1.24068  21   -8.4  100   -8.4  0     0     1013.0   NA       0.0000   9999     590   0     0    
2019/08/22  05:34:00  BASE  1.19364  21   1.29948  25   -8.4  100   -8.4  0     0     1013.0   NA       0.0000   9999     560   0     0    
2019/08/22  05:35:00  BASE  1.18188  20   1.29948  25   -8.4  100   -8.4  0     0     1013.0   NA       0.0000   9999     560   0     0    
2019/08/22  05:36:00  BASE  1.14072  18   1.29948  25   -8.4  100   -8.4  0     0     1013.0   NA       0.0000   9999     520   0     0    
2019/08/22  05:37:00  BASE  1.11132  17   1.29948  25   -8.4  100   -8.4  0     0     1013.0   NA       0.0000   9999     520   0     0    
2019/08/22  05:38:00  BASE  1.0878   22   1.29948  25   -8.4  100   -8.4  0     0     1013.0   NA       0.0000   9999     490   0     0    
2019/08/22  05:39:00  BASE  1.04076  29   1.29948  25   -8.4  100   -8.4  0     0     1013.0   NA       0.0000   9999     490   0     0    
2019/08/22  05:40:00  BASE  0.9702   29   1.29948  25   -8.5  100   -8.5  0     0     1013.0   NA       0.0000   9999     460   0     0    
2019/08/22  05:41:00  BASE  0.95844  25   1.29948  25   -8.5  100   -8.5  0     0     1013.0   NA       0.0000   9999     460   0     0    
2019/08/22  05:42:00  BASE  0.92904  27   1.29948  25   -8.5  100   -8.5  0     0     1013.0   NA       0.0000   9999     430   0     0    
2019/08/22  05:43:00  BASE  0.90552  32   1.29948  25   -8.5  100   -8.5  0     0     1013.0   NA       0.0000   9999     430   0     0    
2019/08/22  05:44:00  BASE  0.8526   34   1.24068  11   -8.5  100   -8.5  0     0     1013.0   NA       0.0000   9999     430   0     0    
2019/08/22  05:45:00  BASE  0.72912  33   1.21128  14   -8.5  100   -8.5  0     0     1013.0   NA       0.0000   9999     430   0     0    
2019/08/22  05:46:00  BASE  0.6762   27   1.18188  23   -8.5  100   -8.5  0     0     1013.0   NA       0.0000   9999     390   0     0    
2019/08/22  05:47:00  BASE  0.79968  21   1.18188  23   -8.5  100   -8.5  0     0     1013.0   NA       0.0000   9999     360   0     0    
2019/08/22  05:48:00  BASE  0.97608  22   1.24068  20   -8.5  100   -8.5  0     0     1013.1   NA       0.0000   9999     360   0     0    
2019/08/22  05:49:00  BASE  1.07604  26   1.24068  20   -8.5  100   -8.5  0     0     1013.1   NA       0.0000   9999     330   0     0    
2019/08/22  05:50:00  BASE  1.18776  32   1.35828  33   -8.5  100   -8.5  0     0     1013.2   NA       0.0000   9999     330   0     0    
2019/08/22  05:51:00  BASE  1.19952  39   1.35828  33   -8.5  100   -8.5  0     0     1013.2   NA       0.0000   9999     300   0     0    
2019/08/22  05:52:00  BASE  1.22304  42   1.45236  44   -8.5  100   -8.5  0     0     1013.2   NA       0.0000   9999     330   0     0    
2019/08/22  05:53:00  BASE  1.21716  46   1.45236  44   -8.5  100   -8.5  0     0     1013.2   NA       0.0000   9999     300   0     0    
2019/08/22  05:54:00  BASE  1.09956  51   1.45236  44   -8.4  100   -8.4  0     0     1013.2   NA       0.0000   9999     300   0     0    
2019/08/22  05:55:00  BASE  1.07604  55   1.45236  44   -8.3  100   -8.3  0     0     1013.2   NA       0.0000   9999     260   0     0    
2019/08/22  05:56:00  BASE  1.01724  52   1.45236  44   -8.2  100   -8.2  0     0     1013.2   NA       0.0000   9999     300   0     0    
2019/08/22  05:57:00  BASE  0.95844  51   1.45236  44   -8.2  100   -8.2  0     0     1013.2   NA       0.0000   9999     230   0     0    
2019/08/22  05:58:00  BASE  0.98784  54   1.45236  44   -8.2  100   -8.2  0     0     1013.2   NA       0.0000   9999     230   0     0    
2019/08/22  05:59:00  BASE  1.03488  55   1.45236  44   -8.1  100   -8.1  0     0     1013.2   NA       0.0000   9999     230   0     0    
2019/08/22  06:00:00  BASE  0.9996   56   1.45236  44   -8.1  100   -8.1  0     0     1013.2   NA       0.0000   9999     0     0     0    
2019/08/22  06:01:00  BASE  0.93492  51   1.45236  44   -8.1  100   -8.1  0     0     1013.2   NA       0.0000   9999     0     0     0    
2019/08/22  06:02:00  BASE  0.90552  44   1.24068  51   -8.0  100   -8.0  0     0     1013.2   NA       0.0000   9999     0     0     0    
2019/08/22  06:03:00  BASE  0.9408   42   1.24068  51   -8.0  100   -8.0  0     0     1013.2   NA       0.0000   9999     0     0     0    
2019/08/22  06:04:00  BASE  1.01136  45   1.24068  51   -8.0  100   -8.0  0     0     1013.2   NA       0.0000   9999     0     0     0    
2019/08/22  06:05:00  BASE  0.96432  45   1.24068  51   -7.9  100   -7.9  0     0     1013.2   NA       0.0000   9999     0     0     0    
2019/08/22  06:06:00  BASE  0.94668  43   1.24068  51   -7.9  100   -7.9  0     0     1013.2   NA       0.0000   9999     0     0     0    
2019/08/22  06:07:00  BASE  0.96432  45   1.24068  51   -7.9  100   -7.9  0     0     1013.2   NA       0.0000   9999     0     0     0    
2019/08/22  06:08:00  BASE  0.9408   44   1.24068  51   -7.9  100   -7.9  0     0     1013.2   NA       0.0000   9999     0     0     0    
2019/08/22  06:09:00  BASE  0.90552  44   1.1466   49   -7.9  100   -7.9  0     0     1013.2   NA       0.0000   9999     0     0     0    
2019/08/22  06:10:00  BASE  0.89376  45   1.1466   49   -7.9  100   -7.9  0     0     1013.2   NA       0.0000   9999     0     0     0    
2019/08/22  06:11:00  BASE  0.9114   47   1.1466   49   -7.9  100   -7.9  0     0     1013.2   NA       0.0000   9999     0     0     0    
2019/08/22  06:12:01  BASE  0.882    47   1.1466   49   -7.9  100   -7.9  0     0     1013.2   NA       0.0000   9999     0     0     0    
2019/08/22  06:13:00  BASE  0.78792  46   1.1172   51   -7.9  100   -7.9  0     0     1013.2   NA       0.0000   9999     0     0     0    
2019/08/22  06:14:00  BASE  0.69972  45   1.029    43   -7.8  100   -7.8  0     0     1013.2   NA       0.0000   9999     0     0     0    
2019/08/22  06:15:00  BASE  0.65856  40   1.029    43   -7.8  100   -7.8  0     0     1013.2   NA       0.0000   9999     0     0     0    
2019/08/22  06:16:00  BASE  0.39396  39   1.029    43   -7.7  100   -7.7  0     0     1013.2   NA       0.0000   9999     0     0     0    
2019/08/22  06:17:00  BASE  0.07644  43   0.9996   51   -7.7  100   -7.7  0     0     1013.3   NA       0.0000   9999     0     0     0    
2019/08/22  06:18:00  BASE  0        43   0.9996   51   -7.6  100   -7.6  0     0     1013.3   NA       0.0000   9999     0     0     0    
2019/08/22  06:19:00  BASE  0        43   0.9996   51   -7.6  100   -7.6  0     0     1013.3   NA       0.0000   9999     0     0     0    
2019/08/22  06:20:00  BASE  0.18816  44   0.9996   51   -7.7  100   -7.7  0     0     1013.3   NA       0.0000   9999     0     0     0    
2019/08/22  06:21:00  BASE  0.41748  44   0.9702   44   -7.7  100   -7.7  0     0     1013.3   NA       0.0000   9999     0     0     0    
2019/08/22  06:22:00  BASE  0.22932  44   0.93492  52   -7.7  100   -7.7  0     0     1013.3   NA       0.0000   9999     0     0     0    
2019/08/22  06:23:00  BASE  0        43   0.84672  44   -7.8  100   -7.8  0     0     1013.3   NA       0.0000   9999     0     0     0    
2019/08/22  06:24:00  BASE  0        39   0.69384  44   -7.8  100   -7.8  0     0     1013.3   NA       0.0000   9999     0     0     0    
2019/08/22  06:25:00  BASE  0        37   0.69384  44   -7.8  100   -7.8  0     0     1013.3   NA       0.0000   9999     0     0     0    
2019/08/22  06:26:00  BASE  0        37   0.69384  44   -7.8  100   -7.8  0     0     1013.3   NA       0.0000   9999     0     0     0    
2019/08/22  06:27:00  BASE  0        37   0.69384  44   -7.8  100   -7.8  0     0     1013.3   NA       0.0000   9999     0     0     0    
2019/08/22  06:28:00  BASE  0        37   0.69384  44   -7.8  100   -7.8  0     0     1013.3   NA       0.0000   9999     0     0     0    
2019/08/22  06:29:00  BASE  0        38   0.69384  44   -7.8  100   -7.8  0     0     1013.4   NA       0.0000   9999     0     0     0    
2019/08/22  06:30:00  BASE  0        42   0.69384  44   -7.8  100   -7.8  0     0     1013.4   NA       0.0000   9999     0     0     0    
2019/08/22  06:31:00  BASE  0        45   0        M    -7.7  100   -7.7  0     0     1013.4   NA       0.0000   9999     0     0     0    
2019/08/22  06:32:00  BASE  0        45   0        M    -7.7  100   -7.7  0     0     1013.4   NA       0.0000   9999     0     0     0    
2019/08/22  06:33:00  BASE  0        47   0        M    -7.7  100   -7.7  0     0     1013.4   NA       0.0000   9999     0     0     0    
2019/08/22  06:34:00  BASE  0        52   0        M    -7.6  100   -7.6  0     0     1013.4   NA       0.0000   9999     0     0     0    
2019/08/22  06:35:00  BASE  0        58   0        M    -7.6  100   -7.6  0     0     1013.4   NA       0.0000   9999     0     0     0    
2019/08/22  06:36:00  BASE  0        61   0        M    -7.6  100   -7.6  0     0     1013.4   NA       0.0000   9999     0     0     0    
2019/08/22  06:37:00  BASE  0        61   0        M    -7.6  100   -7.6  0     0     1013.4   NA       0.0000   9999     0     0     0    
2019/08/22  06:38:00  BASE  0        61   0        M    -7.6  100   -7.6  0     0     1013.4   NA       0.0000   9999     0     0     0    
2019/08/22  06:39:00  BASE  0        61   0        M    -7.6  100   -7.6  0     0     1013.4   NA       0.0000   9999     0     0     0    
2019/08/22  06:40:00  BASE  0        63   0        M    -7.6  100   -7.6  0     0     1013.4   NA       0.0000   9999     0     0     0    
2019/08/22  06:41:00  BASE  0.0294   71   0.69384  77   -7.6  100   -7.6  0     0     1013.4   NA       0.0000   9999     0     0     0    
2019/08/22  06:42:00  BASE  0.08232  78   0.69384  77   -7.7  100   -7.7  0     0     1013.4   NA       0.0000   9999     0     0     0    
2019/08/22  06:43:00  BASE  0.08232  67   0.69384  77   -7.8  100   -7.8  0     0     1013.4   NA       0.0000   9999     0     0     0    
2019/08/22  06:44:00  BASE  0.3822   50   0.75852  44   -7.8  100   -7.8  0     0     1013.4   NA       0.0000   9999     0     0     0    
2019/08/22  06:45:00  BASE  0.71148  45   0.78792  44   -7.9  100   -7.9  0     0     1013.4   NA       0.0000   9999     0     0     0    
2019/08/22  06:46:00  BASE  0.71148  48   0.78792  44   -8.0  100   -8.0  0     0     1013.5   NA       0.0000   9999     0     0     0    
2019/08/22  06:47:00  BASE  0.45864  51   0.78792  44   -8.1  100   -8.1  0     0     1013.6   NA       0.0000   9999     0     0     0    
2019/08/22  06:48:00  BASE  0.11172  49   0.78792  44   -8.1  100   -8.1  0     0     1013.6   NA       0.0000   9999     0     0     0    
2019/08/22  06:49:00  BASE  0        44   0.78792  44   -8.2  100   -8.2  0     0     1013.6   NA       0.0000   9999     0     0     0    
2019/08/22  06:50:00  BASE  0        42   0.78792  44   -8.2  100   -8.2  0     0     1013.5   NA       0.0000   9999     0     0     0    
2019/08/22  06:51:00  BASE  0        50   0.78792  44   -8.2  100   -8.2  0     0     1013.4   NA       0.0000   9999     0     0     0    
2019/08/22  06:52:00  BASE  0        63   0.78792  44   -8.2  100   -8.2  0     0     1013.4   NA       0.0000   9999     0     0     0    
2019/08/22  06:53:00  BASE  0        73   0.78792  44   -8.1  100   -8.1  0     0     1013.4   NA       0.0000   9999     0     0     0    
2019/08/22  06:54:00  BASE  0        77   0.78792  44   -8.1  100   -8.1  0     0     1013.4   NA       0.0000   9999     0     0     0    
2019/08/22  06:55:00  BASE  0        77   0.75852  51   -8.1  100   -8.1  0     0     1013.4   NA       0.0000   9999     0     0     0    
2019/08/22  06:56:00  BASE  0        77   0.69384  51   -8.0  100   -8.0  0     0     1013.4   NA       0.0000   9999     0     0     0    
2019/08/22  06:57:00  BASE  0        77   0        M    -8.0  100   -8.0  0     0     1013.4   NA       0.0000   9999     0     0     0    
2019/08/22  06:58:00  BASE  0        77   0        M    -7.9  100   -7.9  0     0     1013.4   NA       0.0000   9999     0     0     0    
2019/08/22  06:59:00  BASE  0        77   0        M    -7.8  100   -7.9  0     0     1013.4   NA       0.0000   9999     0     0     0    
2019/08/22  07:00:00  BASE  0        77   0        M    -7.8  100   -7.8  0     0     1013.4   NA       0.0000   9999     0     0     0    
2019/08/22  07:01:00  BASE  0        74   0        M    -7.8  100   -7.8  0     0     1013.4   NA       0.0000   9999     0     0     0    
2019/08/22  07:02:00  BASE  0        70   0        M    -7.8  100   -7.8  0     0     1013.4   NA       0.0000   9999     0     0     0    
2019/08/22  07:03:00  BASE  0        69   0        M    -7.9  100   -7.9  0     0     1013.4   NA       0.0000   9999     0     0     0    
2019/08/22  07:04:00  BASE  0        70   0        M    -7.9  100   -7.9  0     0     1013.4   NA       0.0000   9999     0     0     0    
2019/08/22  07:05:00  BASE  0        70   0        M    -8.0  100   -8.0  0     0     1013.4   NA       0.0000   9999     0     0     0    
2019/08/22  07:06:00  BASE  0        70   0        M    -8.0  100   -8.0  0     0     1013.4   NA       0.0000   9999     0     0     0    
2019/08/22  07:07:00  BASE  0        71   0        M    -8.0  100   -8.0  0     0     1013.4   NA       0.0000   9999     0     0     0    
2019/08/22  07:08:00  BASE  0        75   0        M    -8.0  100   -8.0  0     0     1013.4   NA       0.0000   9999     0     0     0    
2019/08/22  07:09:00  BASE  0        77   0        M    -7.9  100   -7.9  0     0     1013.4   NA       0.0000   9999     0     0     0    
2019/08/22  07:10:00  BASE  0        78   0        M    -7.9  100   -7.9  0     0     1013.4   NA       0.0000   9999     0     0     0    
2019/08/22  07:11:00  BASE  0        81   0        M    -7.8  100   -7.8  0     0     1013.4   NA       0.0000   9999     0     0     0    
2019/08/22  07:12:00  BASE  0        94   0        M    -7.8  100   -7.8  0     0     1013.4   NA       0.0000   9999     0     0     0    
2019/08/22  07:13:00  BASE  0        104  0        M    -7.8  100   -7.8  0     0     1013.4   NA       0.0000   9999     0     0     0    
2019/08/22  07:14:00  BASE  0        106  0        M    -7.9  100   -7.9  0     0     1013.4   NA       0.0000   9999     0     0     0    
2019/08/22  07:15:00  BASE  0        110  0        M    -7.9  100   -7.9  0     0     1013.4   NA       0.0000   9999     0     0     0    
2019/08/22  07:16:00  BASE  0        111  0        M    -7.9  100   -7.9  0     0     1013.4   NA       0.0000   9999     0     0     0    
2019/08/22  07:17:00  BASE  0        105  0        M    -7.8  100   -7.8  0     0     1013.4   NA       0.0000   9999     0     0     0    
2019/08/22  07:18:00  BASE  0        108  0        M    -7.7  100   -7.7  0     0     1013.4   NA       0.0000   9999     0     0     0    
2019/08/22  07:19:00  BASE  0        109  0        M    -7.7  100   -7.7  0     0     1013.4   NA       0.0000   9999     0     0     0    
2019/08/22  07:20:00  BASE  0        105  0        M    -7.6  100   -7.6  0     0     1013.4   NA       0.0000   9999     0     0     0    
2019/08/22  07:21:00  BASE  0        101  0        M    -7.6  100   -7.6  0     0     1013.4   NA       0.0000   9999     0     0     0    
2019/08/22  07:22:00  BASE  0        93   0        M    -7.5  100   -7.5  0     0     1013.4   NA       0.0000   9999     0     0     0    
2019/08/22  07:23:00  BASE  0        87   0        M    -7.5  100   -7.5  0     0     1013.4   NA       0.0000   9999     0     0     0    
2019/08/22  07:24:00  BASE  0        85   0        M    -7.5  100   -7.5  0     0     1013.4   NA       0.0000   9999     0     0     0    
2019/08/22  07:25:00  BASE  0        85   0        M    -7.5  100   -7.5  0     0     1013.4   NA       0.0000   9999     0     0     0    
2019/08/22  07:26:00  BASE  0        85   0        M    -7.5  100   -7.5  0     0     1013.4   NA       0.0000   9999     0     0     0    
2019/08/22  07:27:00  BASE  0        85   0        M    -7.6  100   -7.6  0     0     1013.4   NA       0.0000   9999     0     0     0    
2019/08/22  07:28:00  BASE  0        85   0        M    -7.6  100   -7.6  0     0     1013.4   NA       0.0000   9999     0     0     0    
2019/08/22  07:29:00  BASE  0        85   0        M    -7.6  100   -7.6  0     0     1013.4   NA       0.0000   9999     0     0     0    
2019/08/22  07:30:00  BASE  0        85   0        M    -7.5  100   -7.5  0     0     1013.3   NA       0.0000   9999     0     0     0    
2019/08/22  07:31:00  BASE  0        85   0        M    -7.5  100   -7.5  0     0     1013.3   NA       0.0000   9999     0     0     0    
2019/08/22  07:32:00  BASE  0        85   0        M    -7.5  100   -7.5  0     0     1013.3   NA       0.0000   9999     0     0     0    
2019/08/22  07:33:00  BASE  0        85   0        M    -7.5  100   -7.5  0     0     1013.3   NA       0.0000   9999     0     0     0    
2019/08/22  07:34:00  BASE  0        84   0        M    -7.5  100   -7.5  0     0     1013.3   NA       0.0000   9999     0     0     0    
2019/08/22  07:35:00  BASE  0        81   0        M    -7.5  100   -7.5  0     0     1013.3   NA       0.0000   9999     0     0     0    
2019/08/22  07:36:00  BASE  0        79   0        M    -7.5  100   -7.5  0     0     1013.3   NA       0.0000   9999     0     0     0    
2019/08/22  07:37:00  BASE  0        77   0        M    -7.5  100   -7.5  0     0     1013.3   NA       0.0000   9999     0     0     0    
2019/08/22  07:38:00  BASE  0        77   0        M    -7.5  100   -7.5  0     0     1013.3   NA       0.0000   9999     0     0     0    
2019/08/22  07:39:00  BASE  0        77   0        M    -7.5  100   -7.5  0     0     1013.3   NA       0.0000   9999     0     0     0    
2019/08/22  07:40:00  BASE  0        80   0        M    -7.4  100   -7.4  0     0     1013.3   NA       0.0000   9999     0     0     0    
2019/08/22  07:41:00  BASE  0        90   0        M    -7.4  100   -7.4  0     0     1013.3   NA       0.0000   9999     0     0     0    
2019/08/22  07:42:00  BASE  0        98   0        M    -7.4  100   -7.4  0     0     1013.3   NA       0.0000   9999     0     0     0    
2019/08/22  07:43:00  BASE  0        101  0        M    -7.5  100   -7.5  0     0     1013.3   NA       0.0000   9999     0     0     0    
2019/08/22  07:44:00  BASE  0        102  0        M    -7.5  100   -7.5  0     0     1013.3   NA       0.0000   9999     0     0     0    
2019/08/22  07:45:00  BASE  0        102  0        M    -7.5  100   -7.5  0     0     1013.3   NA       0.0000   9999     0     0     0    
2019/08/22  07:46:00  BASE  0        99   0        M    -7.6  100   -7.6  0     0     1013.3   NA       0.0000   9999     0     0     0    
2019/08/22  07:47:00  BASE  0        96   0        M    -7.6  100   -7.6  0     0     1013.3   NA       0.0000   9999     0     0     0    
2019/08/22  07:48:00  BASE  0        97   0        M    -7.5  100   -7.5  0     0     1013.3   NA       0.0000   9999     0     0     0    
2019/08/22  07:49:00  BASE  0        98   0        M    -7.5  100   -7.5  0     0     1013.2   NA       0.0000   9999     0     0     0    
2019/08/22  07:50:00  BASE  0        98   0        M    -7.5  100   -7.5  0     0     1013.2   NA       0.0000   9999     0     0     0    
2019/08/22  07:51:00  BASE  0        99   0        M    -7.5  100   -7.5  0     0     1013.2   NA       0.0000   9999     0     0     0    
2019/08/22  07:52:00  BASE  0        100  0        M    -7.5  100   -7.5  0     0     1013.2   NA       0.0000   9999     0     0     0    
2019/08/22  07:53:00  BASE  0        101  0        M    -7.5  100   -7.5  0     0     1013.2   NA       0.0000   9999     0     0     0    
2019/08/22  07:54:00  BASE  0        99   0        M    -7.5  100   -7.5  0     0     1013.2   NA       0.0000   9999     0     0     0    
2019/08/22  07:55:00  BASE  0        92   0        M    -7.5  100   -7.6  0     0     1013.2   NA       0.0000   9999     0     0     0    
2019/08/22  07:56:00  BASE  0        87   0        M    -7.6  100   -7.6  0     0     1013.2   NA       0.0000   9999     0     0     0    
2019/08/22  07:57:00  BASE  0        91   0        M    -7.6  100   -7.6  0     0     1013.2   NA       0.0000   9999     0     0     0    
2019/08/22  07:58:00  BASE  0.32928  99   0.69384  104  -7.6  100   -7.6  0     0     1013.2   NA       0.0000   9999     0     0     0    
2019/08/22  07:59:00  BASE  0.40572  101  0.69384  104  -7.6  100   -7.6  0     0     1013.2   NA       0.0000   9999     0     0     0    
2019/08/22  08:00:00  BASE  0.07644  95   0.69384  104  -7.7  100   -7.7  0     0     1013.2   NA       0.0000   9999     0     0     0    
2019/08/22  08:01:00  BASE  0        87   0.69384  104  -7.7  100   -7.7  0     0     1013.2   NA       0.0000   9999     0     0     0    
2019/08/22  08:02:00  BASE  0        83   0.69384  104  -7.8  100   -7.8  0     0     1013.2   NA       0.0000   9999     0     0     0    
2019/08/22  08:03:00  BASE  0        82   0.69384  104  -7.8  100   -7.8  0     0     1013.1   NA       0.0000   9999     0     0     0    
2019/08/22  08:04:00  BASE  0        85   0.69384  104  -7.8  100   -7.8  0     0     1013.0   NA       0.0000   9999     0     0     0    
2019/08/22  08:05:00  BASE  0        83   0.69384  104  -7.8  100   -7.8  0     0     1013.0   NA       0.0000   9999     0     0     0    
2019/08/22  08:06:00  BASE  0.05292  78   0.69384  79   -7.8  100   -7.8  0     0     1013.0   NA       0.0000   9999     0     0     0    
2019/08/22  08:07:00  BASE  0.2646   77   0.78792  71   -7.7  100   -7.7  0     0     1013.0   NA       0.0000   9999     0     0     0    
2019/08/22  08:08:00  BASE  0.2058   77   0.78792  71   -7.7  100   -7.7  0     0     1013.0   NA       0.0000   9999     0     0     0    
2019/08/22  08:09:00  BASE  0        92   0.78792  71   -7.7  100   -7.7  0     0     1012.9   NA       0.0000   9999     0     0     0    
2019/08/22  08:10:00  BASE  0        114  0.78792  71   -7.6  100   -7.6  0     0     1012.9   NA       0.0000   9999     0     0     0    
2019/08/22  08:11:00  BASE  0        126  0.78792  71   -7.6  100   -7.6  0     0     1012.9   NA       0.0000   9999     0     0     0    
2019/08/22  08:12:00  BASE  0        127  0.78792  71   -7.6  100   -7.6  0     0     1012.9   NA       0.0000   9999     0     0     0    
2019/08/22  08:13:00  BASE  0        132  0.78792  71   -7.6  100   -7.6  0     0     1012.8   NA       0.0000   9999     0     0     0    
2019/08/22  08:14:00  BASE  0        141  0.78792  71   -7.6  100   -7.6  0     0     1012.8   NA       0.0000   9999     0     0     0    
2019/08/22  08:15:00  BASE  0        133  0.78792  71   -7.6  100   -7.6  0     0     1012.8   NA       0.0000   9999     0     0     0    
2019/08/22  08:16:00  BASE  0.12936  124  1.24068  124  -7.6  100   -7.6  0     0     1012.8   NA       0.0000   9999     0     0     0    
2019/08/22  08:17:00  BASE  0.63504  126  1.24068  124  -7.7  100   -7.7  0     0     1012.8   NA       0.0000   9999     0     0     0    
2019/08/22  08:18:00  BASE  1.0878   128  1.35828  137  -7.8  100   -7.8  0     0     1012.8   NA       0.0000   9999     0     0     0    
2019/08/22  08:19:00  BASE  1.10544  126  1.35828  137  -7.8  100   -7.8  0     0     1012.8   NA       0.0000   9999     0     0     0    
2019/08/22  08:20:00  BASE  1.17012  128  1.54056  126  -7.8  100   -7.8  0     0     1012.8   NA       0.0000   9999     0     0     0    
2019/08/22  08:21:00  BASE  1.30536  129  1.75224  115  -7.8  100   -7.8  0     0     1012.8   NA       0.0000   9999     0     0     0    
2019/08/22  08:22:00  BASE  1.36416  126  1.75224  115  -7.8  100   -7.8  0     0     1012.8   NA       0.0000   9999     0     0     0    
2019/08/22  08:23:00  BASE  1.3818   128  1.81692  123  -7.7  100   -7.7  0     0     1012.8   NA       0.0000   9999     0     0     0    
2019/08/22  08:24:00  BASE  1.48176  129  1.81692  123  -7.7  100   -7.7  0     0     1012.8   NA       0.0000   9999     0     0     0    
2019/08/22  08:25:00  BASE  1.59936  120  1.81692  123  -7.5  100   -7.5  0     0     1012.8   NA       0.0000   9999     0     0     0    
2019/08/22  08:26:00  BASE  1.31712  112  1.81692  123  -7.4  100   -7.4  0     0     1012.8   NA       0.0000   9999     0     0     0    
2019/08/22  08:27:00  BASE  1.10544  113  1.81692  123  -7.4  100   -7.4  0     0     1012.8   NA       0.0000   9999     0     0     0    
2019/08/22  08:28:00  BASE  1.25244  115  1.81692  123  -7.4  100   -7.4  0     0     1012.7   NA       0.0000   9999     0     0     0    
2019/08/22  08:29:00  BASE  1.42884  116  1.81692  121  -7.5  100   -7.5  0     0     1012.7   NA       0.0000   9999     0     0     0    
2019/08/22  08:30:00  BASE  1.2348   113  1.81692  121  -7.5  100   -7.5  0     0     1012.7   NA       0.0000   9999     0     0     0    
2019/08/22  08:31:00  BASE  0.58212  105  1.81692  121  -7.5  100   -7.6  0     0     1012.7   NA       0.0000   9999     0     0     0    
2019/08/22  08:32:00  BASE  0.2352   105  1.81692  121  -7.6  100   -7.6  0     0     1012.7   NA       0.0000   9999     0     0     0    
2019/08/22  08:33:00  BASE  0.13524  97   1.81692  121  -7.6  100   -7.6  0     0     1012.7   NA       0.0000   9999     0     0     0    
2019/08/22  08:34:00  BASE  0        76   1.81692  121  -7.5  100   -7.5  0     0     1012.7   NA       0.0000   9999     0     0     0    
2019/08/22  08:35:00  BASE  0        90   1.81692  121  -7.6  100   -7.6  0     0     1012.7   NA       0.0000   9999     0     0     0    
2019/08/22  08:36:00  BASE  0.46452  121  1.87572  130  -7.6  100   -7.6  0     0     1012.6   NA       0.0000   9999     0     0     0    
2019/08/22  08:37:00  BASE  0.98196  131  1.87572  130  -7.6  100   -7.6  0     0     1012.6   NA       0.0000   9999     0     0     0    
2019/08/22  08:38:00  BASE  1.05252  138  1.87572  130  -7.6  100   -7.6  0     0     1012.6   NA       0.0000   9999     0     0     0    
2019/08/22  08:39:00  BASE  1.0584   136  1.87572  130  -7.7  100   -7.7  0     0     1012.6   NA       0.0000   9999     0     0     0    
2019/08/22  08:40:00  BASE  0.9114   132  1.87572  130  -7.8  100   -7.8  0     0     1012.6   NA       0.0000   9999     0     0     0    
2019/08/22  08:41:00  BASE  0.88788  135  1.87572  130  -7.9  100   -7.9  0     0     1012.6   NA       0.0000   9999     0     0     0    
2019/08/22  08:42:00  BASE  1.16424  129  1.87572  130  -8.0  100   -8.0  0     0     1012.6   NA       0.0000   9999     0     0     0    
2019/08/22  08:43:00  BASE  1.09956  121  1.87572  130  -8.0  100   -8.0  0     0     1012.7   NA       0.0000   9999     0     0     0    
2019/08/22  08:44:00  BASE  0.83496  118  1.87572  130  -7.9  100   -7.9  0     0     1012.7   NA       0.0000   9999     0     0     0    
2019/08/22  08:45:00  BASE  1.0878   120  1.90512  103  -7.8  100   -7.8  0     0     1012.6   NA       0.0000   9999     0     0     0    
2019/08/22  08:46:00  BASE  1.05252  121  1.90512  103  -7.7  100   -7.7  0     0     1012.7   NA       0.0000   9999     0     0     0    
2019/08/22  08:47:00  BASE  0.90552  113  1.90512  103  -7.5  100   -7.5  0     0     1012.6   NA       0.0000   9999     0     0     0    
2019/08/22  08:48:00  BASE  0.84672  112  1.90512  103  -7.5  100   -7.5  0     0     1012.6   NA       0.0000   9999     0     0     0    
2019/08/22  08:49:00  BASE  1.21128  115  2.1756   115  -7.5  100   -7.5  0     0     1012.6   NA       0.0000   9999     0     0     0    
2019/08/22  08:50:00  BASE  1.71108  113  2.21088  116  -7.6  100   -7.6  0     0     1012.6   NA       0.0000   9999     0     0     0    
2019/08/22  08:51:00  BASE  1.77576  118  2.45196  120  -7.6  100   -7.6  0     0     1012.6   NA       0.0000   9999     0     0     0    
2019/08/22  08:52:00  BASE  1.92864  117  2.48136  110  -7.7  100   -7.7  0     0     1012.6   NA       0.0000   9999     0     0     0    
2019/08/22  08:53:00  BASE  1.82868  117  2.48136  126  -7.7  100   -7.7  0     0     1012.6   NA       0.0000   9999     0     0     0    
2019/08/22  08:54:00  BASE  1.90512  124  2.54016  137  -7.7  100   -7.7  0     0     1012.6   NA       0.0000   9999     0     0     0    
2019/08/22  08:55:00  BASE  2.42256  126  3.0576   126  -7.7  100   -7.7  0     0     1012.6   NA       0.0000   9999     0     0     0    
2019/08/22  08:56:00  BASE  2.62836  125  3.0576   126  -7.7  100   -7.7  0     0     1012.6   NA       0.0000   9999     0     0     0    
2019/08/22  08:57:00  BASE  2.65776  125  3.1458   129  -7.7  100   -7.8  0     0     1012.6   NA       0.0000   9999     0     0     0    
2019/08/22  08:58:00  BASE  2.50488  121  3.1458   129  -7.8  100   -7.8  0     0     1012.6   NA       0.0000   9999     0     0     0    
2019/08/22  08:59:00  BASE  2.13444  119  3.1458   129  -7.9  100   -7.9  0     0     1012.6   NA       0.0000   9999     0     0     0    
2019/08/22  09:00:00  BASE  1.84044  123  3.1458   129  -7.9  100   -7.9  0     0     1012.6   NA       0.0000   9999     0     0     0    
2019/08/22  09:01:00  BASE  1.63464  121  3.1458   129  -8.0  100   -8.0  0     0     1012.6   NA       0.0000   9999     0     0     0    
2019/08/22  09:02:00  BASE  1.8522   120  3.1458   129  -8.0  100   -8.0  0     0     1012.6   NA       0.0000   9999     0     0     0    
2019/08/22  09:03:00  BASE  2.00508  119  3.1458   129  -8.0  100   -8.0  0     0     1012.6   NA       0.0000   9999     0     0     0    
2019/08/22  09:04:00  BASE  2.0874   121  3.1458   129  -8.0  100   -8.0  0     0     1012.6   NA       0.0000   9999     0     0     0    
2019/08/22  09:05:00  BASE  2.32848  125  3.1458   129  -8.0  100   -8.0  0     0     1012.6   NA       0.0000   9999     0     0     0    
2019/08/22  09:06:00  BASE  2.1168   119  3.1458   129  -8.0  100   -8.0  0     0     1012.6   NA       0.0000   9999     0     0     0    
2019/08/22  09:07:00  BASE  1.764    108  2.81064  132  -7.9  100   -7.9  0     0     1012.5   NA       0.0000   9999     0     0     0    
2019/08/22  09:08:00  BASE  1.48176  107  2.72244  128  -7.8  100   -7.8  0     0     1012.5   NA       0.0000   9999     0     0     0    
2019/08/22  09:09:00  BASE  0.83496  111  2.72244  128  -7.8  100   -7.8  0     0     1012.5   NA       0.0000   9999     0     0     0    
2019/08/22  09:10:00  BASE  0.98196  118  2.72244  128  -7.7  100   -7.7  0     0     1012.5   NA       0.0000   9999     0     0     0    
2019/08/22  09:11:00  BASE  1.42884  116  2.72244  128  -7.6  100   -7.6  0     0     1012.5   NA       0.0000   9999     0     0     0    
2019/08/22  09:12:00  BASE  1.5876   112  2.72244  128  -7.7  100   -7.7  0     0     1012.5   NA       0.0000   9999     0     0     0    
2019/08/22  09:13:00  BASE  1.84632  115  2.72244  128  -7.8  100   -7.8  0     0     1012.5   NA       0.0000   9999     0     0     0    
2019/08/22  09:14:00  BASE  1.7052   118  2.72244  128  -7.9  100   -7.9  0     0     1012.5   NA       0.0000   9999     0     0     0    
2019/08/22  09:15:00  BASE  1.69344  116  2.69304  124  -8.0  100   -8.0  0     0     1012.5   NA       0.0000   9999     0     0     0    
2019/08/22  09:16:00  BASE  1.81692  106  2.69304  124  -8.0  100   -8.0  0     0     1012.5   NA       0.0000   9999     0     0     0    
2019/08/22  09:17:00  BASE  1.86984  104  2.69304  124  -8.0  100   -8.0  0     0     1012.5   NA       0.0000   9999     0     0     0    
2019/08/22  09:18:00  BASE  1.95216  104  2.69304  124  -7.9  100   -7.9  0     0     1012.5   NA       0.0000   9999     0     0     0    
2019/08/22  09:19:00  BASE  1.8522   102  2.69304  124  -7.8  100   -7.8  0     0     1012.5   NA       0.0000   9999     0     0     0    
2019/08/22  09:20:00  BASE  1.5582   96   2.69304  124  -7.8  100   -7.8  0     0     1012.5   NA       0.0000   9999     0     0     0    
2019/08/22  09:21:00  BASE  1.3818   88   2.69304  124  -7.9  100   -7.9  0     0     1012.5   NA       0.0000   9999     0     0     0    
2019/08/22  09:22:00  BASE  1.52292  86   2.54016  108  -8.0  100   -8.0  0     0     1012.5   NA       0.0000   9999     0     0     0    
2019/08/22  09:23:00  BASE  1.59936  85   2.54016  108  -8.1  100   -8.1  0     0     1012.5   NA       0.0000   9999     0     0     0    
2019/08/22  09:24:00  BASE  1.42296  89   2.54016  108  -8.1  100   -8.1  0     0     1012.5   NA       0.0000   9999     0     0     0    
2019/08/22  09:25:00  BASE  1.02312  88   2.54016  108  -8.1  100   -8.1  0     0     1012.6   NA       0.0000   9999     0     0     0    
2019/08/22  09:26:00  BASE  1.029    91   2.54016  108  -8.2  100   -8.2  0     0     1012.6   NA       0.0000   9999     0     0     0    
2019/08/22  09:27:00  BASE  1.35828  104  2.21088  109  -8.1  100   -8.1  0     0     1012.6   NA       0.0000   9999     0     0     0    
2019/08/22  09:28:00  BASE  1.02312  108  2.21088  109  -8.1  100   -8.1  0     0     1012.5   NA       0.0000   9999     0     0     0    
2019/08/22  09:29:00  BASE  0.75264  110  2.21088  109  -8.2  100   -8.2  0     0     1012.5   NA       0.0000   9999     0     0     0    
2019/08/22  09:30:00  BASE  1.01724  98   2.21088  109  -8.2  100   -8.2  0     0     1012.5   NA       0.0000   9999     0     0     0    
2019/08/22  09:31:00  BASE  1.07016  80   2.21088  109  -8.2  100   -8.2  0     0     1012.5   NA       0.0000   9999     0     0     0    
2019/08/22  09:32:00  BASE  0.9114   75   2.0874   87   -8.3  100   -8.3  0     0     1012.5   NA       0.0000   9999     0     0     0    
2019/08/22  09:33:00  BASE  0.85848  74   1.78752  107  -8.3  100   -8.3  0     0     1012.5   NA       0.0000   9999     0     0     0    
2019/08/22  09:34:00  BASE  0.72912  68   1.78752  107  -8.3  100   -8.3  0     0     1012.5   NA       0.0000   9999     0     0     0    
2019/08/22  09:35:00  BASE  0.7056   55   1.78752  107  -8.3  100   -8.3  0     0     1012.5   NA       0.0000   9999     0     0     0    
2019/08/22  09:36:00  BASE  0.83496  50   1.78752  107  -8.2  100   -8.2  0     0     1012.5   NA       0.0000   9999     0     0     0    
2019/08/22  09:37:00  BASE  0.735    56   1.57584  76   -8.2  100   -8.2  0     0     1012.5   NA       0.0000   9999     0     0     0    
2019/08/22  09:38:00  BASE  0.7644   52   1.57584  76   -8.1  100   -8.1  0     0     1012.5   NA       0.0000   9999     0     0     0    
2019/08/22  09:39:00  BASE  0.77616  54   1.57584  76   -8.1  100   -8.1  0     0     1012.5   NA       0.0000   9999     0     0     0    
2019/08/22  09:40:00  BASE  0.62916  63   1.27008  95   -8.1  100   -8.1  0     0     1012.4   NA       0.0000   9999     0     0     0    
2019/08/22  09:41:00  BASE  0.36456  69   1.27008  95   -8.1  100   -8.1  0     0     1012.4   NA       0.0000   9999     0     0     0    
2019/08/22  09:42:00  BASE  0.05292  71   1.27008  95   -8.1  100   -8.1  0     0     1012.4   NA       0.0000   9999     0     0     0    
2019/08/22  09:43:00  BASE  0        69   1.24068  81   -8.1  100   -8.1  0     0     1012.3   NA       0.0000   9999     0     0     0    
2019/08/22  09:44:00  BASE  0        69   1.24068  81   -8.1  100   -8.1  0     0     1012.3   NA       0.0000   9999     0     0     0    
2019/08/22  09:45:00  BASE  0        77   1.24068  81   -8.1  100   -8.1  0     0     1012.3   NA       0.0000   9999     0     0     0    
2019/08/22  09:46:00  BASE  0        88   1.24068  81   -8.2  100   -8.2  0     0     1012.3   NA       0.0000   9999     0     0     0    
2019/08/22  09:47:01  BASE  0        87   1.1172   48   -8.1  100   -8.1  0     0     1012.3   NA       0.0000   9999     0     0     0    
2019/08/22  09:48:00  BASE  0        93   1.0584   64   -8.1  100   -8.1  0     0     1012.3   NA       0.0000   9999     0     0     0    
2019/08/22  09:49:00  BASE  0        108  0.87612  70   -8.0  100   -8.0  0     0     1012.3   NA       0.0000   9999     0     0     0    
2019/08/22  09:50:00  BASE  0.0294   104  0.69384  115  -8.0  100   -8.0  0     0     1012.3   NA       0.0000   9999     0     0     0    
2019/08/22  09:51:00  BASE  0.31164  113  0.90552  132  -7.9  100   -7.9  0     0     1012.3   NA       0.0000   9999     0     0     0    
2019/08/22  09:52:00  BASE  0.31164  133  0.90552  132  -7.9  100   -7.9  0     0     1012.3   NA       0.0000   9999     0     0     0    
2019/08/22  09:53:00  BASE  0.0294   131  0.90552  132  -7.9  100   -7.9  0     0     1012.2   NA       0.0000   9999     0     0     0    
2019/08/22  09:54:00  BASE  0.0294   109  0.90552  132  -7.9  100   -7.9  0     0     1012.2   NA       0.0000   9999     0     0     0    
2019/08/22  09:55:00  BASE  0.3528   80   1.029    67   -7.9  100   -7.9  0     0     1012.2   NA       0.0000   9999     0     0     0    
2019/08/22  09:56:00  BASE  0.65856  71   1.029    67   -8.0  100   -8.0  0     0     1012.2   NA       0.0000   9999     0     0     0    
2019/08/22  09:57:00  BASE  0.74088  77   1.0878   71   -8.0  100   -8.0  0     0     1012.2   NA       0.0000   9999     0     0     0    
2019/08/22  09:58:00  BASE  0.9408   82   1.35828  73   -8.0  100   -8.0  0     0     1012.2   NA       0.0000   9999     0     0     0    
2019/08/22  09:59:00  BASE  0.89376  68   1.35828  73   -8.0  100   -8.0  0     0     1012.2   NA       0.0000   9999     0     0     0    
2019/08/22  10:00:00  BASE  0.72324  46   1.35828  73   -8.0  100   -8.0  0     0     1012.3   NA       0.0000   9999     0     0     0    
2019/08/22  10:01:00  BASE  0.69384  38   1.35828  73   -8.1  100   -8.1  0     0     1012.3   NA       0.0000   9999     0     0     0    
2019/08/22  10:02:00  BASE  0.69972  39   1.35828  73   -8.2  100   -8.2  0     0     1012.3   NA       0.0000   9999     0     0     0    
2019/08/22  10:03:00  BASE  0.72324  40   1.35828  73   -8.3  100   -8.3  0     0     1012.3   NA       0.0000   9999     0     0     0    
2019/08/22  10:04:00  BASE  0.75264  37   1.35828  73   -8.5  100   -8.5  0     0     1012.3   NA       0.0000   9999     0     0     0    
2019/08/22  10:05:00  BASE  0.79968  31   1.35828  73   -8.8  100   -8.8  0     0     1012.3   NA       0.0000   9999     0     0     0    
2019/08/22  10:06:00  BASE  0.84672  23   1.35828  73   -8.9  100   -8.9  0     0     1012.3   NA       0.0000   9999     0     0     0    
2019/08/22  10:07:00  BASE  0.94668  12   1.35828  73   -9.1  100   -9.1  0     0     1012.3   NA       0.0000   9999     0     0     0    
2019/08/22  10:08:00  BASE  0.9996   3    1.0878   3    -9.2  100   -9.2  0     0     1012.4   NA       0.0000   9999     0     0     0    
2019/08/22  10:09:00  BASE  0.99372  352  1.0878   342  -9.2  100   -9.2  0     0     1012.5   NA       0.0000   9999     0     0     0    
2019/08/22  10:10:00  BASE  1.01136  339  1.1172   331  -9.1  100   -9.1  0     0     1012.5   NA       0.0000   9999     0     0     0    
2019/08/22  10:11:00  BASE  1.04076  335  1.1172   331  -9.1  100   -9.1  0     0     1012.5   NA       0.0000   9999     0     0     0    
2019/08/22  10:12:00  BASE  1.07604  331  1.24068  324  -9.2  100   -9.2  0     0     1012.5   NA       0.0000   9999     0     0     0    
2019/08/22  10:13:00  BASE  1.27596  320  1.63464  307  -9.3  100   -9.3  0     0     1012.5   NA       0.0000   9999     0     0     0    
2019/08/22  10:14:00  BASE  1.48764  312  1.63464  310  -9.4  100   -9.4  0     0     1012.5   NA       0.0000   9999     0     0     0    
2019/08/22  10:15:00  BASE  1.57584  310  1.75224  310  -9.5  100   -9.5  0     0     1012.5   NA       0.0000   9999     0     0     0    
2019/08/22  10:16:00  BASE  1.54056  315  1.75224  310  -9.5  100   -9.5  0     0     1012.6   NA       0.0000   9999     0     0     0    
2019/08/22  10:17:00  BASE  1.37004  325  1.75224  310  -9.5  100   -9.5  0     0     1012.6   NA       0.0000   9999     0     0     0    
2019/08/22  10:18:00  BASE  1.24068  329  1.75224  310  -9.4  100   -9.4  0     0     1012.6   NA       0.0000   9999     0     0     0    
2019/08/22  10:19:00  BASE  1.176    332  1.75224  310  -9.4  100   -9.4  0     0     1012.6   NA       0.0000   9999     0     0     0    
2019/08/22  10:20:00  BASE  1.10544  337  1.75224  310  -9.5  100   -9.5  0     0     1012.6   NA       0.0000   9999     0     0     0    
2019/08/22  10:21:00  BASE  1.06428  341  1.75224  310  -9.5  100   -9.5  0     0     1012.6   NA       0.0000   9999     0     0     0    
2019/08/22  10:22:00  BASE  0.9702   344  1.75224  310  -9.6  100   -9.6  0     0     1012.6   NA       0.0000   9999     0     0     0    
2019/08/22  10:23:00  BASE  0.75852  346  1.75224  310  -9.6  100   -9.6  0     0     1012.6   NA       0.0000   9999     0     0     0    
2019/08/22  10:24:00  BASE  0.39396  350  1.75224  310  -9.6  100   -9.6  0     0     1012.6   NA       0.0000   9999     0     0     0    
2019/08/22  10:25:00  BASE  0.3528   358  1.69344  316  -9.6  100   -9.6  0     0     1012.6   NA       0.0000   9999     0     0     0    
2019/08/22  10:26:00  BASE  0.57036  356  1.32888  332  -9.5  100   -9.5  0     0     1012.6   NA       0.0000   9999     0     0     0    
2019/08/22  10:27:00  BASE  0.6468   346  1.29948  326  -9.4  100   -9.4  0     0     1012.6   NA       0.0000   9999     0     0     0    
2019/08/22  10:28:00  BASE  0.8232   343  1.21128  332  -9.3  100   -9.3  0     0     1012.6   NA       0.0000   9999     0     0     0    
2019/08/22  10:29:00  BASE  0.95844  344  1.18188  345  -9.2  100   -9.2  0     0     1012.6   NA       0.0000   9999     0     0     0    
2019/08/22  10:30:00  BASE  0.86436  346  1.18188  345  -9.1  100   -9.1  0     0     1012.6   NA       0.0000   9999     0     0     0    
2019/08/22  10:31:00  BASE  0.4998   348  1.0878   341  -9.1  100   -9.1  0     0     1012.6   NA       0.0000   9999     0     0     0    
2019/08/22  10:32:00  BASE  0.30576  347  1.0878   341  -9.1  100   -9.1  0     0     1012.5   NA       0.0000   9999     0     0     0    
2019/08/22  10:33:00  BASE  0.30576  343  1.0878   341  -9.1  100   -9.1  0     0     1012.5   NA       0.0000   9999     0     0     0    
2019/08/22  10:34:00  BASE  0.46452  339  1.0878   341  -9.0  100   -9.0  0     0     1012.5   NA       0.0000   9999     0     0     0    
2019/08/22  10:35:00  BASE  0.37632  336  1.0878   341  -9.0  100   -9.0  0     0     1012.5   NA       0.0000   9999     0     0     0    
2019/08/22  10:36:00  BASE  0.0294   335  1.0878   341  -8.9  100   -8.9  0     0     1012.5   NA       0.0000   9999     0     0     0    
2019/08/22  10:37:00  BASE  0        338  1.0878   341  -8.8  100   -8.9  0     0     1012.5   NA       0.0000   9999     0     0     0    
2019/08/22  10:38:00  BASE  0        341  1.0878   341  -8.8  100   -8.8  0     0     1012.5   NA       0.0000   9999     0     0     0    
2019/08/22  10:39:00  BASE  0        342  0.87612  348  -8.8  100   -8.8  0     0     1012.5   NA       0.0000   9999     0     0     0    
2019/08/22  10:40:00  BASE  0        342  0.75852  335  -8.8  100   -8.8  0     0     1012.5   NA       0.0000   9999     0     0     0    
2019/08/22  10:41:00  BASE  0        343  0.75852  335  -8.7  100   -8.7  0     0     1012.5   NA       0.0000   9999     0     0     0    
2019/08/22  10:42:00  BASE  0        343  0.75852  335  -8.7  100   -8.7  0     0     1012.5   NA       0.0000   9999     0     0     0    
2019/08/22  10:43:00  BASE  0        343  0.75852  335  -8.7  100   -8.7  0     0     1012.5   NA       0.0000   9999     490   0     0    
2019/08/22  10:44:00  BASE  0.25872  345  0.66444  349  -8.7  100   -8.7  0     0     1012.4   NA       0.0000   9999     520   0     0    
2019/08/22  10:45:00  BASE  0.58212  348  0.66444  350  -8.7  100   -8.7  0     0     1012.5   NA       0.0000   9999     0     0     0    
2019/08/22  10:46:00  BASE  0.66444  349  0.72324  350  -8.7  100   -8.7  0     0     1012.5   NA       0.0000   9999     0     0     0    
2019/08/22  10:47:00  BASE  0.47628  350  0.72324  350  -8.8  100   -8.8  0     0     1012.4   NA       0.0000   9999     0     0     0    
2019/08/22  10:48:00  BASE  0.13524  355  0.72324  350  -8.9  100   -8.9  0     0     1012.4   NA       0.0000   9999     0     0     0    
2019/08/22  10:49:00  BASE  0.05292  6    0.72324  350  -9.0  100   -9.0  0     0     1012.4   NA       0.0000   9999     0     0     0    
2019/08/22  10:50:00  BASE  0.31164  14   0.72324  350  -9.2  100   -9.2  0     0     1012.4   NA       0.0000   9999     0     0     0    
2019/08/22  10:51:00  BASE  0.588    16   0.72324  350  -9.3  100   -9.3  0     0     1012.5   NA       0.0000   9999     0     0     0    
2019/08/22  10:52:00  BASE  0.35868  21   0.72324  350  -9.4  100   -9.4  0     0     1012.4   NA       0.0000   9999     0     0     0    
2019/08/22  10:53:00  BASE  0.0294   25   0.72324  350  -9.4  100   -9.4  0     0     1012.4   NA       0.0000   9999     0     0     0    
2019/08/22  10:54:00  BASE  0        32   0.72324  350  -9.3  100   -9.3  0     0     1012.4   NA       0.0000   9999     0     0     0    
2019/08/22  10:55:00  BASE  0.05292  41   0.72324  350  -9.3  100   -9.3  0     0     1012.3   NA       0.0000   9999     0     0     0    
2019/08/22  10:56:00  BASE  0.2352   46   0.69384  18   -9.2  100   -9.2  0     0     1012.4   NA       0.0000   9999     0     0     0    
2019/08/22  10:57:00  BASE  0.36456  50   0.75852  58   -9.1  100   -9.1  0     0     1012.3   NA       0.0000   9999     0     0     0    
2019/08/22  10:58:00  BASE  0.42336  56   0.75852  64   -9.0  100   -9.0  0     0     1012.3   NA       0.0000   9999     0     0     0    
2019/08/22  10:59:00  BASE  0.29988  65   0.75852  64   -8.9  100   -8.9  0     0     1012.3   NA       0.0000   9999     0     0     0    
2019/08/22  11:00:00  BASE  0.27048  74   0.75852  64   -8.8  100   -8.8  0     0     1012.3   NA       0.0000   9999     0     0     0    
2019/08/22  11:01:00  BASE  0.36456  77   0.75852  72   -8.8  100   -8.8  0     0     1012.3   NA       0.0000   9999     0     0     0    
2019/08/22  11:02:00  BASE  0.28224  70   0.75852  72   -8.7  100   -8.7  0     0     1012.3   NA       0.0000   9999     0     0     0    
2019/08/22  11:03:00  BASE  0.51744  60   0.87612  48   -8.7  100   -8.7  0     0     1012.3   NA       0.0000   9999     0     0     0    
2019/08/22  11:04:00  BASE  0.86436  51   1.0584   48   -8.7  100   -8.7  0     0     1012.3   NA       0.0000   9999     0     0     0    
2019/08/22  11:05:00  BASE  1.01136  47   1.0878   47   -8.8  100   -8.8  0     0     1012.3   NA       0.0000   9999     0     0     0    
2019/08/22  11:06:00  BASE  1.11132  46   1.24068  45   -8.8  100   -8.8  0     0     1012.3   NA       0.0000   9999     0     0     0    
2019/08/22  11:07:00  BASE  1.19364  45   1.24068  45   -8.9  100   -8.9  0     0     1012.3   NA       0.0000   9999     0     0     0    
2019/08/22  11:08:00  BASE  1.27596  45   1.35828  45   -8.9  100   -8.9  0     0     1012.3   NA       0.0000   9999     0     0     0    
2019/08/22  11:09:00  BASE  1.36416  46   1.42296  48   -8.9  100   -8.9  0     0     1012.3   NA       0.0000   9999     0     0     0    
2019/08/22  11:10:00  BASE  1.38768  45   1.42296  43   -8.8  100   -8.8  0     0     1012.3   NA       0.0000   9999     0     0     0    
2019/08/22  11:11:00  BASE  1.30536  38   1.42296  43   -8.8  100   -8.8  0     0     1012.3   NA       0.0000   9999     0     0     0    
2019/08/22  11:12:00  BASE  1.24656  33   1.42296  43   -8.8  100   -8.8  0     0     1012.3   NA       0.0000   9999     0     0     0    
2019/08/22  11:13:00  BASE  1.21716  33   1.42296  43   -8.8  100   -8.8  0     0     1012.3   NA       0.0000   9999     0     0     0    
2019/08/22  11:14:00  BASE  1.13484  34   1.42296  43   -8.8  100   -8.8  0     0     1012.3   NA       0.0000   9999     0     0     0    
2019/08/22  11:15:00  BASE  1.03488  35   1.42296  43   -8.9  100   -8.9  0     0     1012.3   NA       0.0000   9999     0     0     0    
2019/08/22  11:16:00  BASE  0.97608  37   1.42296  43   -8.9  100   -8.9  0     0     1012.3   NA       0.0000   9999     0     0     0    
2019/08/22  11:17:00  BASE  0.9996   42   1.42296  43   -8.9  100   -8.9  0     0     1012.3   NA       0.0000   9999     0     0     0    
2019/08/22  11:18:00  BASE  1.05252  47   1.42296  43   -9.0  100   -9.0  0     0     1012.3   NA       0.0000   9999     0     0     0    
2019/08/22  11:19:00  BASE  1.0584   49   1.42296  43   -9.0  100   -9.0  0     0     1012.3   NA       0.0000   9999     0     0     0    
2019/08/22  11:20:00  BASE  1.029    49   1.27008  33   -8.9  100   -8.9  0     0     1012.3   NA       0.0000   9999     0     0     0    
2019/08/22  11:21:00  BASE  1.01724  49   1.27008  33   -8.9  100   -8.9  0     0     1012.3   NA       0.0000   9999     0     0     0    
2019/08/22  11:22:00  BASE  1.03488  52   1.24068  33   -8.9  100   -8.9  0     0     1012.3   NA       0.0000   9999     0     0     0    
2019/08/22  11:23:00  BASE  1.02312  56   1.21128  32   -8.8  100   -8.8  0     0     1012.3   NA       0.0000   9999     0     0     0    
2019/08/22  11:24:00  BASE  0.98196  61   1.1172   48   -8.8  100   -8.8  0     0     1012.3   NA       0.0000   9999     0     0     0    
2019/08/22  11:25:00  BASE  0.98196  64   1.1172   48   -8.7  100   -8.7  0     0     1012.3   NA       0.0000   9999     0     0     0    
2019/08/22  11:26:00  BASE  0.96432  62   1.1172   48   -8.7  100   -8.7  1     0     1012.3   NA       0.0000   9999     0     0     0    
2019/08/22  11:27:00  BASE  0.9114   58   1.1172   48   -8.6  100   -8.6  1     0     1012.3   NA       0.0000   9999     0     0     0    
2019/08/22  11:28:00  BASE  0.92904  56   1.0878   57   -8.6  100   -8.6  1     0     1012.3   NA       0.0000   9999     0     0     0    
2019/08/22  11:29:00  BASE  0.95256  58   1.0878   57   -8.5  100   -8.5  1     0     1012.3   NA       0.0000   9999     0     0     0    
2019/08/22  11:30:00  BASE  0.92316  60   1.0878   57   -8.5  100   -8.5  1     0     1012.3   NA       0.0000   9999     0     0     0    
2019/08/22  11:31:00  BASE  0.89964  59   1.0878   57   -8.5  100   -8.5  1     0     1012.3   NA       0.0000   9999     0     0     0    
2019/08/22  11:32:00  BASE  0.88788  55   1.0584   57   -8.5  100   -8.5  1     0     1012.3   NA       0.0000   9999     0     0     0    
2019/08/22  11:33:00  BASE  0.882    49   1.029    60   -8.5  100   -8.5  1     0     1012.3   NA       0.0000   9999     0     0     0    
2019/08/22  11:34:00  BASE  0.88788  44   1.029    60   -8.6  100   -8.6  1     0     1012.3   NA       0.0000   9999     0     0     0    
2019/08/22  11:35:00  BASE  0.87612  41   1.029    60   -8.7  100   -8.7  1     0     1012.4   NA       0.0000   9999     0     0     0    
2019/08/22  11:36:00  BASE  0.84084  39   1.029    60   -8.7  100   -8.7  1     0     1012.3   NA       0.0000   9999     0     0     0    
2019/08/22  11:37:00  BASE  0.80556  37   1.029    60   -8.8  100   -8.8  1     0     1012.4   NA       0.0000   9999     0     0     0    
2019/08/22  11:38:00  BASE  0.78792  36   0.9702   57   -8.8  100   -8.8  1     0     1012.4   NA       0.0000   9999     0     0     0    
2019/08/22  11:39:00  BASE  0.75852  36   0.9702   57   -8.8  100   -8.8  1     0     1012.5   NA       0.0000   9999     0     0     0    
2019/08/22  11:40:00  BASE  0.7644   35   0.9702   57   -8.8  100   -8.8  1     0     1012.5   NA       0.0000   9999     0     0     0    
2019/08/22  11:41:00  BASE  0.71736  34   0.90552  40   -8.8  100   -8.8  1     0     1012.5   NA       0.0000   9999     920   0     0    
2019/08/22  11:42:00  BASE  0.44688  33   0.90552  40   -8.8  100   -8.8  1     0     1012.5   NA       0.0000   9999     920   0     0    
2019/08/22  11:43:00  BASE  0.34104  34   0.90552  40   -8.7  100   -8.7  1     0     1012.5   NA       0.0000   9999     950   0     0    
2019/08/22  11:44:00  BASE  0.44688  34   0.90552  40   -8.7  100   -8.7  1     0     1012.5   NA       0.0000   9999     950   0     0    
2019/08/22  11:45:00  BASE  0.46452  33   0.84672  34   -8.7  100   -8.7  1     0     1012.5   NA       0.0000   9999     820   0     0    
2019/08/22  11:46:00  BASE  0.6762   27   0.90552  22   -8.7  100   -8.7  1     0     1012.5   NA       0.0000   9999     720   0     0    
2019/08/22  11:47:00  BASE  0.94668  23   1.0584   24   -8.7  100   -8.7  1     0     1012.5   NA       0.0000   9999     660   0     0    
2019/08/22  11:48:00  BASE  1.00548  24   1.0584   24   -8.7  100   -8.8  1     0     1012.5   NA       0.0000   9999     0     0     0    
2019/08/22  11:49:00  BASE  0.9996   26   1.0584   25   -8.8  100   -8.8  1     0     1012.5   NA       0.0000   9999     0     0     0    
2019/08/22  11:50:00  BASE  1.05252  25   1.1466   24   -8.8  100   -8.8  2     0     1012.6   NA       0.0000   9999     0     0     0    
2019/08/22  11:51:00  BASE  1.12896  27   1.21128  31   -8.8  100   -8.8  2     0     1012.6   NA       0.0000   9999     0     0     0    
2019/08/22  11:52:00  BASE  1.19364  32   1.29948  34   -9.0  100   -9.0  2     0     1012.5   NA       0.0000   9999     0     0     0    
2019/08/22  11:53:00  BASE  1.24068  35   1.35828  38   -9.1  100   -9.1  2     0     1012.6   NA       0.0000   9999     590   0     0    
2019/08/22  11:54:00  BASE  1.19364  32   1.35828  38   -9.3  100   -9.3  2     0     1012.6   NA       0.0000   9999     560   0     0    
2019/08/22  11:55:00  BASE  1.1172   24   1.35828  38   -9.5  100   -9.5  3     0     1012.6   NA       0.0000   9999     560   0     0    
2019/08/22  11:56:00  BASE  1.10544  13   1.35828  38   -9.6  100   -9.6  3     0     1012.6   NA       0.0000   9999     560   0     0    
2019/08/22  11:57:00  BASE  1.15248  8    1.35828  38   -9.7  100   -9.7  3     0     1012.6   NA       0.0000   9999     520   0     0    
2019/08/22  11:58:00  BASE  1.2348   5    1.35828  360  -9.8  100   -9.8  4     0     1012.6   NA       0.0000   9999     490   0     0    
2019/08/22  11:59:00  BASE  1.31124  0    1.45236  352  -9.8  100   -9.8  4     0     1012.6   NA       0.0000   9999     490   0     0    
2019/08/22  12:00:00  BASE  1.323    353  1.45236  352  -9.8  100   -9.8  4     0     1012.6   NA       0.0000   9999     490   0     0    
2019/08/22  12:01:00  BASE  1.24656  353  1.45236  352  -9.7  100   -9.7  5     0     1012.6   NA       0.0000   9999     460   0     0    
2019/08/22  12:02:00  BASE  1.12308  1    1.45236  352  -9.6  100   -9.6  5     0     1012.6   NA       0.0000   9999     460   0     0    
2019/08/22  12:03:00  BASE  1.03488  4    1.45236  352  -9.5  100   -9.5  6     0     1012.6   NA       0.0000   9999     460   0     0    
2019/08/22  12:04:00  BASE  1.06428  3    1.45236  352  -9.5  100   -9.5  6     0     1012.6   NA       0.0000   9999     460   0     0    
2019/08/22  12:05:00  BASE  1.10544  358  1.45236  352  -9.5  100   -9.5  6     0     1012.7   NA       0.0000   9999     490   980   0    
2019/08/22  12:06:00  BASE  1.09368  358  1.45236  352  -9.6  100   -9.6  7     0     1012.7   NA       0.0000   9999     490   950   0    
2019/08/22  12:07:00  BASE  0.98196  4    1.45236  352  -9.6  100   -9.6  7     0     1012.7   NA       0.0000   9999     520   950   0    
2019/08/22  12:08:00  BASE  0.81144  1    1.45236  352  -9.6  100   -9.6  8     0     1012.7   NA       0.0000   9999     520   0     0    
2019/08/22  12:09:00  BASE  0.78204  354  1.39356  350  -9.5  100   -9.5  8     0     1012.7   NA       0.0000   9999     490   0     0    
2019/08/22  12:10:00  BASE  0.8232   357  1.29948  349  -9.4  100   -9.4  9     0     1012.7   NA       0.0000   9999     490   0     0    
2019/08/22  12:11:00  BASE  0.87024  7    1.24068  353  -9.4  100   -9.4  9     0     1012.7   NA       0.0000   9999     460   0     0    
2019/08/22  12:12:00  BASE  0.9114   6    1.24068  353  -9.3  100   -9.3  10    0     1012.7   NA       0.0000   9999     490   0     0    
2019/08/22  12:13:00  BASE  0.8232   5    1.24068  353  -9.2  100   -9.2  11    0     1012.7   NA       0.0000   9999     430   0     0    
2019/08/22  12:14:00  BASE  0.75852  20   1.24068  353  -9.2  100   -9.2  11    0     1012.7   NA       0.0000   9999     490   0     0    
2019/08/22  12:15:00  BASE  0.72324  26   1.21128  1    -9.2  100   -9.2  12    0     1012.7   NA       0.0000   9999     520   0     0    
2019/08/22  12:16:00  BASE  0.61152  24   1.1172   9    -9.2  100   -9.2  12    0     1012.7   NA       0.0000   9999     490   0     0    
2019/08/22  12:17:00  BASE  0.56448  30   1.1172   9    -9.1  100   -9.1  13    0     1012.7   NA       0.0000   9999     430   0     0    
2019/08/22  12:18:00  BASE  0.63504  32   1.1172   9    -9.1  100   -9.1  14    0     1012.7   NA       0.0000   9999     460   0     0    
2019/08/22  12:19:00  BASE  0.56448  43   1.1172   9    -9.0  100   -9.0  14    0     1012.7   NA       0.0000   9999     490   0     0    
2019/08/22  12:20:00  BASE  0.40572  68   1.1172   9    -8.9  100   -8.9  15    0     1012.7   NA       0.0000   9999     490   0     0    
2019/08/22  12:21:00  BASE  0.19404  70   1.029    13   -8.8  100   -8.8  16    0     1012.7   NA       0.0000   9999     0     0     0    
2019/08/22  12:22:00  BASE  0        62   0.9702   20   -8.7  100   -8.7  16    0     1012.7   NA       0.0000   9999     0     0     0    
2019/08/22  12:23:00  BASE  0        62   0.9702   20   -8.7  100   -8.7  17    0     1012.7   NA       0.0000   9999     0     0     0    
2019/08/22  12:24:00  BASE  0.18228  74   0.9702   20   -8.6  100   -8.6  18    0     1012.7   NA       0.0000   9999     0     0     0    
2019/08/22  12:25:00  BASE  0.18228  72   0.9702   20   -8.5  100   -8.5  18    0     1012.7   NA       0.0000   9999     0     0     0    
2019/08/22  12:26:00  BASE  0        55   0.9702   20   -8.5  100   -8.5  19    0     1012.7   NA       0.0000   9999     0     0     0    
2019/08/22  12:27:00  BASE  0        57   0.9702   20   -8.4  100   -8.4  20    0     1012.7   NA       0.0000   9999     0     0     0    
2019/08/22  12:28:00  BASE  0.0588   54   0.93492  73   -8.4  100   -8.4  20    0     1012.8   NA       0.0000   9999     0     0     0    
2019/08/22  12:29:00  BASE  0.24696  46   0.93492  73   -8.4  100   -8.4  21    0     1012.8   NA       0.0000   9999     0     0     0    
2019/08/22  12:30:00  BASE  0.64092  44   1.1466   45   -8.4  100   -8.4  22    0     1012.8   NA       0.0000   9999     0     0     0    
2019/08/22  12:31:00  BASE  0.94668  51   1.1466   57   -8.4  100   -8.4  22    0     1012.8   NA       0.0000   9999     0     0     0    
2019/08/22  12:32:00  BASE  1.02312  55   1.21128  54   -8.5  100   -8.5  23    0     1012.8   NA       0.0000   9999     0     0     0    
2019/08/22  12:33:00  BASE  1.06428  54   1.21128  54   -8.5  100   -8.5  24    0     1012.8   NA       0.0000   9999     0     0     0    
2019/08/22  12:34:00  BASE  1.06428  52   1.21128  54   -8.6  100   -8.6  24    0     1012.8   NA       0.0000   9999     0     0     0    
2019/08/22  12:35:00  BASE  1.02312  51   1.21128  54   -8.6  100   -8.6  25    0     1012.8   NA       0.0000   9999     0     0     0    
2019/08/22  12:36:00  BASE  0.9702   53   1.21128  54   -8.7  100   -8.7  26    0     1012.8   NA       0.0000   9999     0     0     0    
2019/08/22  12:37:00  BASE  0.95256  50   1.21128  54   -8.7  100   -8.7  27    0     1012.8   NA       0.0000   9999     0     0     0    
2019/08/22  12:38:00  BASE  0.97608  39   1.21128  54   -8.7  100   -8.7  27    0     1012.8   NA       0.0000   9999     0     0     0    
2019/08/22  12:39:00  BASE  0.9996   33   1.21128  54   -8.8  100   -8.8  28    0     1012.8   NA       0.0000   9999     0     0     0    
2019/08/22  12:40:00  BASE  1.029    30   1.29948  16   -8.8  100   -8.8  29    0     1012.8   NA       0.0000   9999     0     0     0    
2019/08/22  12:41:00  BASE  1.03488  26   1.29948  16   -8.9  100   -8.9  29    0     1012.8   NA       0.0000   9999     0     0     0    
2019/08/22  12:42:00  BASE  1.00548  27   1.29948  16   -8.9  100   -8.9  30    0     1012.8   NA       0.0000   9999     0     0     0    
2019/08/22  12:43:00  BASE  1.02312  28   1.29948  16   -8.9  100   -8.9  31    0     1012.8   NA       0.0000   9999     0     0     0    
2019/08/22  12:44:00  BASE  1.029    28   1.29948  16   -9.0  100   -9.0  31    0     1012.7   NA       0.0000   9999     0     0     0    
2019/08/22  12:45:00  BASE  1.01724  27   1.29948  16   -9.0  100   -9.0  32    0     1012.7   NA       0.0000   9999     0     0     0    
2019/08/22  12:46:00  BASE  0.9702   22   1.29948  16   -9.1  100   -9.1  33    0     1012.8   NA       0.0000   9999     0     0     0    
2019/08/22  12:47:00  BASE  0.89964  19   1.29948  16   -9.1  100   -9.1  33    0     1012.7   NA       0.0000   9999     0     0     0    
2019/08/22  12:48:00  BASE  0.86436  15   1.29948  16   -9.1  100   -9.1  34    0     1012.8   NA       0.0000   9999     0     0     0    
2019/08/22  12:49:00  BASE  0.84084  10   1.29948  16   -9.1  100   -9.1  35    0     1012.7   NA       0.0000   9999     0     0     0    
2019/08/22  12:50:00  BASE  0.8526   13   1.24068  22   -9.0  100   -9.0  36    0     1012.7   NA       0.0000   9999     0     0     0    
2019/08/22  12:51:00  BASE  0.85848  19   1.1172   35   -9.0  100   -9.0  36    0     1012.7   NA       0.0000   9999     0     0     0    
2019/08/22  12:52:00  BASE  0.88788  18   1.1172   35   -9.0  100   -9.0  37    0     1012.7   NA       0.0000   9999     0     0     0    
2019/08/22  12:53:00  BASE  0.90552  17   1.0878   32   -9.0  100   -9.0  38    0     1012.7   NA       0.0000   9999     0     0     0    
2019/08/22  12:54:00  BASE  0.9114   20   1.0584   33   -9.0  100   -9.0  39    0     1012.7   NA       0.0000   9999     0     0     0    
2019/08/22  12:55:00  BASE  0.882    22   1.0584   33   -9.0  100   -9.0  40    0     1012.7   NA       0.0000   9999     0     0     0    
2019/08/22  12:56:00  BASE  0.86436  20   1.0584   33   -8.9  100   -8.9  41    0     1012.7   NA       0.0000   9999     0     0     0    
2019/08/22  12:57:00  BASE  0.95256  18   1.1466   18   -8.9  100   -8.9  42    0     1012.7   NA       0.0000   9999     0     0     0    
2019/08/22  12:58:00  BASE  1.01724  20   1.1466   28   -8.9  100   -8.9  44    0     1012.7   NA       0.0000   9999     0     0     0    
2019/08/22  12:59:00  BASE  1.09368  24   1.27008  35   -8.9  100   -8.9  45    0     1012.7   NA       0.0000   9999     0     0     0    
2019/08/22  13:00:00  BASE  1.19364  29   1.29948  30   -9.0  100   -9.0  47    0     1012.7   NA       0.0000   9999     0     0     0    
2019/08/22  13:01:00  BASE  1.25244  32   1.35828  31   -9.0  100   -9.0  48    0     1012.7   NA       0.0000   9999     0     0     0    
2019/08/22  13:02:00  BASE  1.25244  29   1.39356  29   -9.1  100   -9.1  50    0     1012.8   NA       0.0000   9999     0     0     0    
2019/08/22  13:03:00  BASE  1.21716  21   1.39356  29   -9.1  100   -9.1  51    0     1012.8   NA       0.0000   9999     0     0     0    
2019/08/22  13:04:00  BASE  1.21128  13   1.39356  29   -9.1  100   -9.1  52    0     1012.8   NA       0.0000   9999     0     0     0    
2019/08/22  13:05:00  BASE  1.15836  7    1.39356  29   -9.0  100   -9.0  54    0     1012.8   NA       0.0000   9999     0     0     0    
2019/08/22  13:06:00  BASE  0.9996   5    1.39356  29   -9.0  100   -9.0  55    0     1012.8   NA       0.0000   9999     0     0     0    
2019/08/22  13:07:01  BASE  0.9114   4    1.39356  29   -9.0  100   -9.0  56    0     1012.7   NA       0.0000   9999     0     0     0    
2019/08/22  13:08:00  BASE  0.95844  6    1.39356  29   -8.9  100   -8.9  57    0     1012.8   NA       0.0000   9999     0     0     0    
2019/08/22  13:09:00  BASE  0.98784  7    1.39356  29   -8.9  100   -8.9  58    0     1012.8   NA       0.0000   9999     0     0     0    
2019/08/22  13:10:00  BASE  1.01724  6    1.39356  29   -8.9  100   -8.9  59    0     1012.8   NA       0.0000   9999     0     0     0    
2019/08/22  13:11:00  BASE  1.06428  3    1.39356  29   -8.9  100   -8.9  60    0     1012.8   NA       0.0000   9999     0     0     0    
2019/08/22  13:12:00  BASE  1.06428  3    1.32888  12   -8.9  100   -8.9  61    0     1012.8   NA       0.0000   9999     0     0     0    
2019/08/22  13:13:00  BASE  1.02312  4    1.32888  12   -8.9  100   -8.9  62    0     1012.7   NA       0.0000   9999     0     0     0    
2019/08/22  13:14:00  BASE  1.09956  357  1.42296  354  -8.8  100   -8.8  63    0     1012.7   NA       0.0000   9999     0     0     0    
2019/08/22  13:15:00  BASE  1.27008  354  1.54056  352  -8.8  100   -8.8  64    0     1012.7   NA       0.0000   9999     0     0     0    
2019/08/22  13:16:00  BASE  1.30536  357  1.54056  352  -8.7  100   -8.7  66    0     1012.7   NA       0.0000   9999     0     0     0    
2019/08/22  13:17:00  BASE  1.28184  3    1.54056  352  -8.7  100   -8.7  66    0     1012.7   NA       0.0000   9999     0     0     0    
2019/08/22  13:18:00  BASE  1.24656  5    1.54056  352  -8.7  100   -8.7  67    0     1012.8   NA       0.0000   9999     0     0     0    
2019/08/22  13:19:00  BASE  1.27008  7    1.54056  352  -8.7  100   -8.7  68    0     1012.8   NA       0.0000   9999     0     0     0    
2019/08/22  13:20:00  BASE  1.27008  6    1.54056  352  -8.7  100   -8.7  69    0     1012.7   NA       0.0000   9999     0     0     0    
2019/08/22  13:21:00  BASE  1.27008  6    1.54056  360  -8.7  100   -8.7  70    0     1012.8   NA       0.0000   9999     0     0     0    
2019/08/22  13:22:01  BASE  1.34064  7    1.54056  360  -8.7  100   -8.7  71    0     1012.8   NA       0.0000   9999     0     0     0    
2019/08/22  13:23:00  BASE  1.31124  6    1.54056  360  -8.8  100   -8.8  72    0     1012.8   NA       0.0000   9999     0     0     0    
2019/08/22  13:24:00  BASE  1.2348   15   1.54056  360  -8.9  100   -8.9  73    0     1012.8   NA       0.0000   9999     0     0     0    
2019/08/22  13:25:00  BASE  1.18776  18   1.54056  360  -8.9  100   -8.9  75    0     1012.8   NA       0.0000   9999     0     0     0    
2019/08/22  13:26:00  BASE  1.17012  12   1.54056  360  -9.0  100   -9.0  76    0     1012.8   NA       0.0000   9999     0     0     0    
2019/08/22  13:27:00  BASE  1.09368  10   1.54056  360  -9.1  100   -9.1  77    0     1012.8   NA       0.0000   9999     0     0     0    
2019/08/22  13:28:00  BASE  1.06428  8    1.54056  360  -9.1  100   -9.1  78    0     1012.8   NA       0.0000   9999     0     0     0    
2019/08/22  13:29:00  BASE  1.09368  2    1.54056  360  -9.1  100   -9.1  79    0     1012.8   NA       0.0000   9999     0     0     0    
2019/08/22  13:30:00  BASE  1.029    1    1.54056  360  -9.1  100   -9.1  80    0     1012.8   NA       0.0000   9999     0     0     0    
2019/08/22  13:31:00  BASE  1.00548  3    1.51116  355  -9.2  100   -9.2  81    0     1012.8   NA       0.0000   9999     0     0     0    
2019/08/22  13:32:00  BASE  1.0584   353  1.42296  3    -9.2  100   -9.2  82    0     1012.8   NA       0.0000   9999     0     0     0    
2019/08/22  13:33:00  BASE  1.029    347  1.42296  3    -9.1  100   -9.1  83    0     1012.8   NA       0.0000   9999     0     0     0    
2019/08/22  13:34:00  BASE  1.12896  352  1.42296  350  -9.1  100   -9.1  83    0     1012.8   NA       0.0000   9999     0     0     0    
2019/08/22  13:35:00  BASE  1.33476  351  1.54056  353  -9.1  100   -9.1  83    0     1012.8   NA       0.0000   9999     0     0     0    
2019/08/22  13:36:00  BASE  1.43472  359  1.57584  212  -9.1  100   -9.1  84    0     1012.8   NA       0.0000   9999     0     0     0    
2019/08/22  13:37:00  BASE  1.4994   4    1.60524  348  -9.1  100   -9.1  87    0     1012.8   NA       0.0000   9999     0     0     0    
2019/08/22  13:38:00  BASE  1.4994   359  1.66404  360  -9.1  100   -9.1  88    0     1012.8   NA       0.0000   9999     300   0     0    
2019/08/22  13:39:00  BASE  1.48176  2    1.69344  354  -9.0  100   -9.0  83    0     1012.8   NA       0.0000   9999     0     0     0    
2019/08/22  13:40:00  BASE  1.42296  8    1.87572  3    -9.0  100   -9.0  79    0     1012.8   NA       0.0000   9999     230   0     0    
2019/08/22  13:41:00  BASE  1.323    12   1.87572  3    -8.9  100   -8.9  83    0     1012.8   NA       0.0000   9999     230   0     0    
2019/08/22  13:42:00  BASE  1.32888  4    1.87572  3    -8.8  100   -8.8  92    0     1012.8   NA       0.0000   9999     230   0     0    
2019/08/22  13:43:00  BASE  1.33476  358  1.87572  3    -8.7  100   -8.7  90    0     1012.8   NA       0.0000   9999     260   0     0    
2019/08/22  13:44:00  BASE  1.24068  4    1.87572  3    -8.6  100   -8.6  89    0     1012.8   NA       0.0000   9999     820   0     0    
2019/08/22  13:45:00  BASE  1.24656  3    1.87572  3    -8.6  100   -8.6  84    0     1012.8   NA       0.0000   9999     230   750   0    
2019/08/22  13:46:00  BASE  1.2054   7    1.87572  3    -8.6  100   -8.6  84    0     1012.8   NA       0.0000   9999     230   660   0    
2019/08/22  13:47:00  BASE  1.11132  14   1.87572  3    -8.5  100   -8.5  84    0     1012.8   NA       0.0000   9999     230   620   0    
2019/08/22  13:48:00  BASE  1.04076  18   1.87572  3    -8.5  100   -8.5  89    0     1012.8   NA       0.0000   9999     230   0     0    
2019/08/22  13:49:00  BASE  0.90552  24   1.87572  3    -8.5  100   -8.5  88    0     1012.8   NA       0.0000   9999     230   0     0    
2019/08/22  13:50:00  BASE  0.83496  25   1.57584  261  -8.5  100   -8.5  82    0     1012.8   NA       0.0000   9999     230   0     0    
2019/08/22  13:51:00  BASE  0.90552  24   1.57584  261  -8.4  100   -8.4  74    0     1012.8   NA       0.0000   9999     230   0     0    
2019/08/22  13:52:00  BASE  1.02312  21   1.54056  360  -8.4  100   -8.4  71    0     1012.8   NA       0.0000   9999     200   0     0    
2019/08/22  13:53:00  BASE  0.9996   19   1.54056  360  -8.4  100   -8.4  72    0     1012.8   NA       0.0000   9999     200   0     0    
2019/08/22  13:54:00  BASE  0.92904  17   1.54056  360  -8.3  100   -8.3  72    0     1012.8   NA       0.0000   9999     200   0     0    
2019/08/22  13:55:00  BASE  0.82908  8    1.32888  10   -8.3  100   -8.3  73    0     1012.8   NA       0.0000   9999     160   0     0    
2019/08/22  13:56:00  BASE  0.735    12   1.32888  10   -8.2  100   -8.2  76    0     1012.8   NA       0.0000   9999     200   0     0    
2019/08/22  13:57:00  BASE  0.74088  24   1.29948  10   -8.2  100   -8.2  82    0     1012.8   NA       0.0000   9999     200   0     0    
2019/08/22  13:58:00  BASE  0.63504  29   1.29948  10   -8.2  100   -8.2  85    0     1012.8   NA       0.0000   9999     160   0     0    
2019/08/22  13:59:00  BASE  0.37044  29   1.29948  10   -8.2  100   -8.2  86    0     1012.8   NA       0.0000   9999     0     0     0    
2019/08/22  14:00:00  BASE  0.11172  32   1.29948  10   -8.2  100   -8.2  86    0     1012.9   NA       0.0000   9999     0     0     0    
2019/08/22  14:01:00  BASE  0        36   1.29948  10   -8.1  100   -8.1  87    0     1012.9   NA       0.0000   9999     0     0     0    
2019/08/22  14:02:00  BASE  0        26   1.1172   6    -8.1  100   -8.1  87    0     1012.9   NA       0.0000   6000     0     0     0    
2019/08/22  14:03:00  BASE  0        22   0.9702   6    -8.0  100   -8.0  84    0     1012.9   NA       0.0000   BR       4600  0     0    
2019/08/22  14:04:00  BASE  0        35   0.93492  360  -7.9  100   -7.9  84    0     1012.9   NA       0.0000   BR       4900  0     0    
2019/08/22  14:05:00  BASE  0        39   0.90552  18   -7.9  100   -7.9  89    0     1012.9   NA       0.0000   BR       5000  0     0    
2019/08/22  14:06:00  BASE  0        26   0.87612  31   -7.9  100   -7.9  92    0     1012.9   NA       0.0000   BR       3700  0     0    
2019/08/22  14:07:00  BASE  0        18   0.75852  22   -7.8  100   -7.8  91    0     1012.9   NA       0.0000   BR       3700  0     0    
2019/08/22  14:08:00  BASE  0        37   0.72324  26   -7.8  100   -7.8  89    0     1012.9   NA       0.0000   BR       2300  0     0    
2019/08/22  14:09:00  BASE  0        52   0        M    -7.8  100   -7.8  89    0     1012.9   NA       0.0000   BR       1600  0     0    
2019/08/22  14:10:00  BASE  0        52   0        M    -7.8  100   -7.8  88    0     1012.9   NA       0.0000   BR       1200  0     0    
2019/08/22  14:11:00  BASE  0        52   0        M    -7.8  100   -7.8  86    0     1012.9   NA       0.0000   BR       1400  0     0    
2019/08/22  14:12:00  BASE  0        52   0        M    -7.8  100   -7.8  85    0     1012.9   NA       0.0000   BR       1500  0     0    
2019/08/22  14:13:00  BASE  0        51   0        M    -7.8  100   -7.8  87    0     1012.9   NA       0.0000   BR       1100  0     0    
2019/08/22  14:14:00  BASE  0        33   0        M    -7.8  100   -7.8  89    0     1012.9   NA       0.0000   BR       1600  0     0    
2019/08/22  14:15:00  BASE  0        11   0        M    -7.8  100   -7.8  90    0     1012.8   NA       0.0000   BR       2300  0     0    
2019/08/22  14:16:00  BASE  0        4    0        M    -7.8  100   -7.8  89    0     1012.8   NA       0.0000   BR       2300  0     0    
2019/08/22  14:17:00  BASE  0        358  0        M    -7.9  100   -7.9  89    0     1012.9   NA       0.0000   BR       2100  0     0    
2019/08/22  14:18:00  BASE  0        354  0        M    -7.9  100   -7.9  91    0     1012.9   NA       0.0000   BR       2200  0     0    
2019/08/22  14:19:00  BASE  0        358  0        M    -7.9  100   -7.9  94    0     1012.9   NA       0.0000   BR       2100  0     0    
2019/08/22  14:20:00  BASE  0.08232  16   0.75852  35   -7.9  100   -7.9  95    0     1012.9   NA       0.0000   BR       2500  0     0    
2019/08/22  14:21:00  BASE  0.16464  39   0.75852  35   -7.9  100   -7.9  94    0     1012.8   NA       0.0000   BR       4700  160   0    
2019/08/22  14:22:00  BASE  0.294    50   0.78792  53   -7.9  100   -7.9  93    0     1012.8   NA       0.0000   BR       4900  200   0    
2019/08/22  14:23:00  BASE  0.6174   52   0.9996   48   -7.9  100   -7.9  93    0     1012.8   NA       0.0000   BR       6000  260   0    
2019/08/22  14:24:00  BASE  0.735    51   0.9996   48   -7.9  100   -7.9  93    0     1012.9   NA       0.0000   BR       8000  260   0    
2019/08/22  14:25:00  BASE  0.65268  59   0.9996   48   -8.0  100   -8.0  95    0     1012.9   NA       0.0000   BR       7000  230   0    
2019/08/22  14:26:00  BASE  0.74088  65   1.029    65   -7.9  100   -7.9  98    0     1012.9   NA       0.0000   BR       6000  0     0    
2019/08/22  14:27:00  BASE  0.88788  65   1.0584   66   -7.9  100   -7.9  107   0     1012.9   NA       0.0000   BR       7000  0     0    
2019/08/22  14:28:00  BASE  0.97608  66   1.0878   67   -8.0  100   -8.0  106   0     1012.9   NA       0.0000   BR       8000  0     0    
2019/08/22  14:29:00  BASE  0.97608  66   1.0878   67   -8.0  100   -8.0  111   0     1012.9   NA       0.0000   BR       9999  0     0    
2019/08/22  14:30:00  BASE  0.98196  65   1.0878   63   -8.0  100   -8.0  120   0     1012.9   NA       0.0000   BR       7000  0     0    
2019/08/22  14:31:00  BASE  1.03488  62   1.0878   65   -8.0  100   -8.0  122   0     1012.9   NA       0.0000   BR       8000  0     0    
2019/08/22  14:32:00  BASE  1.09368  57   1.27008  53   -8.0  100   -8.0  126   0     1012.9   NA       0.0000   BR       3900  0     0    
2019/08/22  14:33:00  BASE  1.17012  55   1.27008  53   -7.9  100   -7.9  128   0     1012.9   NA       0.0000   BR       2600  0     0    
2019/08/22  14:34:00  BASE  1.13484  60   1.27008  53   -7.9  100   -7.9  130   0     1012.9   NA       0.0000   BR       4200  0     0    
2019/08/22  14:35:00  BASE  1.1172   64   1.27008  53   -7.9  100   -7.9  132   0     1012.9   NA       0.0000   BR       9999  0     0    
2019/08/22  14:36:00  BASE  1.16424  66   1.27008  68   -7.8  100   -7.8  133   0     1012.9   NA       0.0000   BR       9999  0     0    
2019/08/22  14:37:01  BASE  1.19364  69   1.29948  70   -7.8  100   -7.8  135   0     1012.9   NA       0.0000   BR       9999  0     0    
2019/08/22  14:38:00  BASE  1.21716  72   1.45236  71   -7.8  100   -7.8  136   0     1012.9   NA       0.0000   BR       9999  0     0    
2019/08/22  14:39:00  BASE  1.18188  76   1.45236  71   -7.8  100   -7.8  137   0     1012.9   NA       0.0000   BR       9999  0     0    
2019/08/22  14:40:00  BASE  1.07604  76   1.45236  71   -7.8  100   -7.8  138   0     1012.9   NA       0.0000   BR       9999  0     0    
2019/08/22  14:41:00  BASE  1.06428  82   1.45236  71   -7.8  100   -7.8  139   0     1012.9   NA       0.0000   BR       9999  0     0    
2019/08/22  14:42:00  BASE  1.00548  94   1.45236  71   -7.7  100   -7.7  140   0     1012.9   NA       0.0000   BR       9999  0     0    
2019/08/22  14:43:00  BASE  0.84084  100  1.45236  71   -7.6  100   -7.6  141   0     1012.9   NA       0.0000   9999     0     0     0    
2019/08/22  14:44:00  BASE  0.75852  113  1.45236  71   -7.6  100   -7.6  142   0     1012.8   NA       0.0000   9999     560   0     0    
2019/08/22  14:45:00  BASE  0.72324  126  1.45236  71   -7.8  100   -7.8  143   0     1012.8   NA       0.0000   9999     590   0     0    
2019/08/22  14:46:00  BASE  0.79968  138  1.45236  71   -8.0  100   -8.0  143   0     1012.8   NA       0.0000   9999     0     0     0    
2019/08/22  14:47:00  BASE  0.89964  142  1.45236  71   -8.1  100   -8.1  144   0     1012.8   NA       0.0000   9999     0     0     0    
2019/08/22  14:48:00  BASE  0.96432  141  1.39356  78   -8.2  100   -8.2  145   0     1012.8   NA       0.0000   9999     0     0     0    
2019/08/22  14:49:00  BASE  1.01136  142  1.24068  95   -8.3  100   -8.3  146   0     1012.8   NA       0.0000   9999     0     0     0    
2019/08/22  14:50:00  BASE  0.98196  144  1.24068  95   -8.2  100   -8.2  146   0     1012.8   NA       0.0000   9999     0     0     0    
2019/08/22  14:51:00  BASE  0.94668  143  1.21128  86   -8.0  100   -8.0  147   0     1012.8   NA       0.0000   9999     0     0     0    
2019/08/22  14:52:00  BASE  0.97608  142  1.0878   136  -8.0  100   -8.0  147   0     1012.8   NA       0.0000   9999     0     0     0    
2019/08/22  14:53:00  BASE  1.03488  137  1.1172   133  -7.9  100   -7.9  148   0     1012.9   NA       0.0000   9999     0     0     0    
2019/08/22  14:54:00  BASE  1.0584   140  1.1172   147  -7.8  100   -7.8  148   0     1012.9   NA       0.0000   9999     0     0     0    
2019/08/22  14:55:00  BASE  1.0878   143  1.24068  138  -7.7  100   -7.7  149   0     1012.9   NA       0.0000   9999     0     0     0    
2019/08/22  14:56:00  BASE  1.14072  143  1.27008  142  -7.7  100   -7.7  149   0     1012.9   NA       0.0000   9999     0     0     0    
2019/08/22  14:57:00  BASE  1.19952  142  1.39356  141  -7.7  100   -7.7  149   0     1012.8   NA       0.0000   9999     0     0     0    
2019/08/22  14:58:00  BASE  1.19364  139  1.39356  141  -7.8  100   -7.8  150   0     1012.8   NA       0.0000   9999     0     0     0    
2019/08/22  14:59:00  BASE  1.1172   138  1.39356  141  -7.9  100   -7.9  150   0     1012.8   NA       0.0000   9999     0     0     0    
2019/08/22  15:00:00  BASE  1.12308  141  1.39356  141  -7.9  100   -7.9  150   0     1012.8   NA       0.0000   9999     0     0     0    
2019/08/22  15:01:00  BASE  1.2642   144  1.54056  150  -7.9  100   -7.9  149   0     1012.8   NA       0.0000   9999     0     0     0    
2019/08/22  15:02:00  BASE  1.32888  144  1.54056  150  -7.9  100   -7.9  149   0     1012.8   NA       0.0000   9999     0     0     0    
2019/08/22  15:03:00  BASE  1.2054   147  1.54056  150  -7.9  100   -7.9  150   0     1012.8   NA       0.0000   9999     0     0     0    
2019/08/22  15:04:00  BASE  1.12308  151  1.54056  150  -7.9  100   -7.9  150   0     1012.8   NA       0.0000   9999     0     0     0    
2019/08/22  15:05:00  BASE  1.2642   153  1.54056  154  -7.8  100   -7.8  153   0     1012.8   NA       0.0000   9999     0     0     0    
2019/08/22  15:06:00  BASE  1.4112   153  1.72284  154  -7.9  100   -7.9  156   0     1012.9   NA       0.0000   9999     0     0     0    
2019/08/22  15:07:00  BASE  1.38768  153  1.72284  154  -7.9  100   -7.9  156   0     1012.9   NA       0.0000   8000     0     0     0    
2019/08/22  15:08:00  BASE  1.41708  154  1.72284  154  -7.8  100   -7.8  154   0     1012.9   NA       0.0000   5000     0     0     0    
2019/08/22  15:09:00  BASE  1.37592  150  1.72284  154  -7.8  100   -7.8  154   0     1012.9   NA       0.0000   9000     0     0     0    
2019/08/22  15:10:00  BASE  1.37592  142  1.9992   135  -7.8  100   -7.8  154   0     1012.9   NA       0.0000   9999     0     0     0    
2019/08/22  15:11:00  BASE  1.48764  128  1.9992   135  -7.8  100   -7.8  157   0     1012.9   NA       0.0000   9999     0     0     0    
2019/08/22  15:12:00  BASE  1.40532  117  1.9992   135  -7.8  100   -7.8  159   0     1012.9   NA       0.0000   9999     360   0     0    
2019/08/22  15:13:00  BASE  1.52292  117  2.058    117  -7.8  100   -7.8  159   0     1012.9   NA       0.0000   9999     0     0     0    
2019/08/22  15:14:00  BASE  2.04036  118  2.69304  117  -7.8  100   -7.8  160   0     1012.9   NA       0.0000   9999     0     0     0    
2019/08/22  15:15:00  BASE  2.59308  117  2.99292  116  -7.8  100   -7.9  160   0     1012.9   NA       0.0000   9999     0     0     0    
2019/08/22  15:16:00  BASE  2.87532  116  3.1458   113  -7.9  100   -7.9  160   0     1013.0   NA       0.0000   9999     0     0     0    
2019/08/22  15:17:00  BASE  3.01056  117  3.2046   117  -8.0  100   -8.0  162   0     1013.0   NA       0.0000   9999     0     0     0    
2019/08/22  15:18:00  BASE  3.087    118  3.41628  111  -8.0  100   -8.0  163   0     1013.0   NA       0.0000   9999     0     0     0    
2019/08/22  15:19:00  BASE  3.25164  116  3.65736  115  -8.0  100   -8.0  162   0     1013.0   NA       0.0000   9999     0     0     0    
2019/08/22  15:20:00  BASE  3.44568  113  3.96312  113  -7.9  100   -7.9  163   0     1013.0   NA       0.0000   9999     0     0     0    
2019/08/22  15:21:00  BASE  3.42804  115  3.96312  123  -7.8  100   -7.8  163   0     1013.0   NA       0.0000   9999     0     0     0    
2019/08/22  15:22:00  BASE  3.57504  117  4.263    117  -7.7  100   -7.7  164   0     1013.0   NA       0.0000   9999     0     0     0    
2019/08/22  15:23:00  BASE  3.89844  114  4.35708  117  -7.8  100   -7.8  164   0     1013.0   NA       0.0000   9999     0     0     0    
2019/08/22  15:24:00  BASE  4.08072  114  4.35708  117  -7.7  100   -7.7  165   0     1013.0   NA       0.0000   9999     0     0     0    
2019/08/22  15:25:00  BASE  4.19832  114  4.47468  115  -7.7  100   -7.7  166   0     1012.9   NA       0.0000   9999     0     0     0    
2019/08/22  15:26:00  BASE  4.26888  114  4.59816  117  -7.7  100   -7.7  165   0     1012.9   NA       0.0000   9999     0     0     0    
2019/08/22  15:27:00  BASE  4.31592  115  4.59816  116  -7.7  100   -7.7  166   0     1012.9   NA       0.0000   9999     0     0     0    
2019/08/22  15:28:00  BASE  4.28652  115  4.59816  120  -7.7  100   -7.7  166   0     1012.9   NA       0.0000   9999     0     0     0    
2019/08/22  15:29:00  BASE  4.32768  116  4.65696  115  -7.6  100   -7.6  165   0     1012.9   NA       0.0000   9999     0     0     0    
2019/08/22  15:30:00  BASE  4.36296  116  4.65696  115  -7.6  100   -7.6  166   0     1012.9   NA       0.0000   9999     0     0     0    
2019/08/22  15:31:00  BASE  4.25712  115  4.65696  115  -7.6  100   -7.6  167   0     1012.9   NA       0.0000   9999     0     0     0    
2019/08/22  15:32:00  BASE  4.26888  115  4.65696  114  -7.6  100   -7.6  169   0     1012.9   NA       0.0000   9999     0     0     0    
2019/08/22  15:33:00  BASE  4.3218   114  4.65696  114  -7.6  100   -7.6  169   0     1012.9   NA       0.0000   9999     0     0     0    
2019/08/22  15:34:00  BASE  4.3512   113  4.68636  108  -7.6  100   -7.6  169   0     1012.9   NA       0.0000   9999     0     0     0    
2019/08/22  15:35:00  BASE  4.19244  111  4.68636  108  -7.6  100   -7.6  170   1     1012.8   NA       0.0000   9999     0     0     0    
2019/08/22  15:36:00  BASE  4.2042   111  4.68636  107  -7.7  100   -7.7  169   0     1012.8   NA       0.0000   9999     0     0     0    
2019/08/22  15:37:00  BASE  4.31004  111  4.75104  104  -7.9  100   -7.9  169   0     1012.8   NA       0.0000   9999     0     0     0    
2019/08/22  15:38:00  BASE  4.27476  110  4.86864  106  -8.0  100   -8.0  169   0     1012.8   NA       0.0000   9999     0     0     0    
2019/08/22  15:39:00  BASE  4.18068  110  4.86864  106  -8.1  100   -8.1  169   0     1012.8   NA       0.0000   9999     0     0     0    
2019/08/22  15:40:00  BASE  3.85728  112  4.86864  106  -8.2  100   -8.2  170   0     1012.8   NA       0.0000   9999     0     0     0    
2019/08/22  15:41:00  BASE  3.77496  113  4.86864  106  -8.2  100   -8.2  170   0     1012.8   NA       0.0000   9999     0     0     0    
2019/08/22  15:42:00  BASE  3.75732  114  4.86864  106  -8.1  100   -8.1  170   0     1012.8   NA       0.0000   9999     0     0     0    
2019/08/22  15:43:00  BASE  3.71028  114  4.86864  106  -8.0  100   -8.0  170   0     1012.9   NA       0.0000   9999     0     0     0    
2019/08/22  15:44:00  BASE  3.43392  115  4.86864  106  -7.9  100   -7.9  172   0     1012.9   NA       0.0000   9999     0     0     0    
2019/08/22  15:45:00  BASE  3.33984  118  4.86864  106  -7.8  100   -7.8  172   0     1012.9   NA       0.0000   9999     0     0     0    
2019/08/22  15:46:00  BASE  3.39864  119  4.86864  106  -7.7  100   -7.7  172   0     1012.9   NA       0.0000   9999     0     0     0    
2019/08/22  15:47:00  BASE  3.3222   117  4.86864  106  -7.7  100   -7.7  172   1     1012.8   NA       0.0000   9999     0     0     0    
2019/08/22  15:48:00  BASE  2.92824  116  4.50996  110  -7.7  100   -7.7  172   0     1012.9   NA       0.0000   9999     0     0     0    
2019/08/22  15:49:00  BASE  2.33436  115  4.35708  114  -7.7  100   -7.7  171   0     1012.9   NA       0.0000   9999     0     0     0    
2019/08/22  15:50:00  BASE  2.75772  118  4.29828  113  -7.7  100   -7.7  171   0     1012.9   NA       0.0000   9999     0     0     0    
2019/08/22  15:51:00  BASE  3.16344  128  4.02192  116  -7.6  100   -7.6  172   0     1012.9   NA       0.0000   9999     0     0     0    
2019/08/22  15:52:00  BASE  3.12228  127  3.99252  116  -7.6  100   -7.6  173   0     1012.9   NA       0.0000   9999     0     0     0    
2019/08/22  15:53:00  BASE  2.90472  124  3.75144  116  -7.6  100   -7.6  172   1     1012.9   NA       0.0000   9999     0     0     0    
2019/08/22  15:54:00  BASE  2.5578   127  3.75144  116  -7.6  100   -7.6  172   1     1012.9   NA       0.0000   9999     0     0     0    
2019/08/22  15:55:00  BASE  2.74008  131  3.86904  137  -7.6  100   -7.6  172   0     1012.9   NA       0.0000   9999     0     0     0    
2019/08/22  15:56:00  BASE  3.0282   133  3.86904  137  -7.6  100   -7.6  172   1     1012.9   NA       0.0000   9999     0     0     0    
2019/08/22  15:57:00  BASE  2.74596  133  3.86904  137  -7.5  100   -7.5  172   0     1012.9   NA       0.0000   9999     0     0     0    
2019/08/22  15:58:00  BASE  2.51076  136  3.86904  137  -7.6  100   -7.6  171   0     1012.9   NA       0.0000   9999     0     0     0    
2019/08/22  15:59:00  BASE  2.54016  138  3.86904  137  -7.6  100   -7.6  171   0     1012.9   NA       0.0000   9999     0     0     0    
2019/08/22  16:00:00  BASE  2.59308  141  3.86904  137  -7.6  100   -7.6  170   0     1012.9   NA       0.0000   9999     0     0     0    
2019/08/22  16:01:00  BASE  2.53428  141  3.86904  137  -7.7  100   -7.7  171   0     1012.9   NA       0.0000   9999     0     0     0    
2019/08/22  16:02:00  BASE  2.29908  136  3.86904  137  -7.7  100   -7.7  171   0     1012.9   NA       0.0000   9999     0     0     0    
2019/08/22  16:03:00  BASE  2.53428  133  3.86904  137  -7.8  100   -7.8  172   0     1012.9   NA       0.0000   9999     0     0     0    
2019/08/22  16:04:00  BASE  3.02232  135  3.86904  137  -7.8  100   -7.8  172   0     1012.9   NA       0.0000   9999     0     0     0    
2019/08/22  16:05:00  BASE  3.1164   138  3.62796  137  -7.8  100   -7.8  172   0     1012.9   NA       0.0000   9999     0     0     0    
2019/08/22  16:06:00  BASE  3.15756  140  3.78084  142  -7.8  100   -7.8  172   0     1012.9   NA       0.0000   9999     0     0     0    
2019/08/22  16:07:00  BASE  3.2634   139  3.78084  142  -7.8  100   -7.8  171   0     1012.9   NA       0.0000   9999     0     0     0    
2019/08/22  16:08:00  BASE  3.1458   139  3.78084  142  -7.8  100   -7.8  171   0     1012.9   NA       0.0000   9999     0     0     0    
2019/08/22  16:09:00  BASE  3.18696  139  3.78084  142  -7.8  100   -7.8  170   0     1012.9   NA       0.0000   9999     0     0     0    
2019/08/22  16:10:00  BASE  3.44568  138  3.86904  139  -7.9  100   -7.9  169   1     1012.9   NA       0.0000   9999     0     0     0    
2019/08/22  16:11:00  BASE  3.78084  139  4.263    144  -7.9  100   -7.9  153   1     1012.9   NA       0.0000   9999     0     0     0    
2019/08/22  16:12:00  BASE  3.9396   140  4.263    144  -7.8  100   -7.8  121   0     1012.9   NA       0.0000   9999     0     0     0    
2019/08/22  16:13:00  BASE  3.97488  139  4.35708  138  -7.8  100   -7.8  126   0     1012.9   NA       0.0000   9999     0     0     0    
2019/08/22  16:14:00  BASE  4.08072  140  4.35708  138  -7.8  100   -7.8  150   0     1012.9   NA       0.0000   9999     0     0     0    
2019/08/22  16:15:00  BASE  4.24536  140  4.62756  138  -7.8  100   -7.8  163   0     1012.9   NA       0.0000   9999     0     0     0    
2019/08/22  16:16:00  BASE  4.28064  139  4.65696  133  -7.7  100   -7.7  164   0     1012.9   NA       0.0000   9999     0     0     0    
2019/08/22  16:17:00  BASE  4.32768  138  4.80984  132  -7.7  100   -7.7  164   1     1012.8   NA       0.0000   9999     0     0     0    
2019/08/22  16:18:00  BASE  4.36296  139  4.80984  132  -7.7  100   -7.7  163   0     1012.9   NA       0.0000   9999     0     0     0    
2019/08/22  16:19:00  BASE  4.22772  138  4.80984  132  -7.7  100   -7.7  163   1     1012.9   NA       0.0000   9999     0     0     0    
2019/08/22  16:20:00  BASE  4.18068  136  4.80984  132  -7.8  100   -7.8  163   0     1012.9   NA       0.0000   9999     0     0     0    
2019/08/22  16:21:00  BASE  4.116    137  4.80984  132  -7.8  100   -7.8  162   0     1012.9   NA       0.0000   9999     0     0     0    
2019/08/22  16:22:00  BASE  4.263    138  4.80984  132  -7.8  100   -7.8  161   0     1012.9   NA       0.0000   9999     0     0     0    
2019/08/22  16:23:00  BASE  4.44528  138  4.80984  132  -7.9  100   -7.9  161   0     1012.9   NA       0.0000   9999     0     0     0    
2019/08/22  16:24:00  BASE  4.43352  137  4.99212  135  -7.9  100   -7.9  161   0     1012.9   NA       0.0000   9999     0     0     0    
2019/08/22  16:25:00  BASE  4.51584  135  5.10972  134  -7.9  100   -7.9  160   0     1013.0   NA       0.0000   9999     0     0     0    
2019/08/22  16:26:00  BASE  4.48056  135  5.10972  134  -7.9  100   -7.9  159   0     1013.0   NA       0.0000   9999     0     0     0    
2019/08/22  16:27:00  BASE  4.68636  135  5.35668  135  -7.9  100   -7.9  159   0     1012.9   NA       0.0000   9999     0     0     0    
2019/08/22  16:28:00  BASE  4.69224  135  5.35668  135  -7.9  100   -7.9  158   0     1012.9   NA       0.0000   9999     0     0     0    
2019/08/22  16:29:00  BASE  4.52172  136  5.35668  135  -7.9  100   -7.9  158   0     1012.9   NA       0.0000   9999     0     0     0    
2019/08/22  16:30:00  BASE  4.91568  134  5.68596  131  -7.9  100   -7.9  158   0     1012.9   NA       0.0000   9999     0     0     0    
2019/08/22  16:31:00  BASE  4.98624  133  5.68596  131  -7.9  100   -7.9  158   0     1012.9   NA       0.0000   9999     0     0     0    
2019/08/22  16:32:00  BASE  4.86276  134  5.74476  136  -7.9  100   -7.9  159   0     1012.9   NA       0.0000   9999     0     0     0    
2019/08/22  16:33:00  BASE  5.4684   134  6.53268  138  -7.9  100   -7.9  158   0     1012.8   NA       0.0000   9999     0     0     0    
2019/08/22  16:34:00  BASE  5.62128  133  6.53268  138  -7.9  100   -7.9  158   0     1012.8   NA       0.0000   9999     0     0     0    
2019/08/22  16:35:00  BASE  5.292    134  6.53268  138  -7.9  100   -7.9  157   1     1012.8   NA       0.0000   9999     0     0     0    
2019/08/22  16:36:00  BASE  5.4978   134  6.53268  138  -7.9  100   -7.9  158   0     1012.8   NA       0.0000   9999     0     0     0    
2019/08/22  16:37:00  BASE  5.71536  136  6.53268  138  -7.9  100   -7.9  158   1     1012.8   NA       0.0000   9999     0     0     0    
2019/08/22  16:38:00  BASE  5.8212   135  6.53268  138  -7.9  100   -7.9  158   1     1012.8   NA       0.0000   9999     0     0     0    
2019/08/22  16:39:00  BASE  6.06228  135  6.56208  140  -7.9  100   -7.9  158   0     1012.8   NA       0.0000   9999     0     0     0    
2019/08/22  16:40:00  BASE  6.19164  136  6.65616  138  -7.8  100   -7.8  158   0     1012.8   NA       0.0000   9999     0     0     0    
2019/08/22  16:41:00  BASE  6.15636  136  6.65616  138  -7.8  100   -7.8  157   0     1012.8   NA       0.0000   9999     0     0     0    
2019/08/22  16:42:00  BASE  6.174    137  6.71496  138  -7.8  100   -7.8  156   1     1012.7   NA       0.0000   9999     0     0     0    
2019/08/22  16:43:00  BASE  6.06228  136  6.71496  138  -7.8  100   -7.8  155   0     1012.8   NA       0.0000   9999     0     0     0    
2019/08/22  16:44:00  BASE  5.90352  134  6.71496  138  -7.8  100   -7.8  156   0     1012.8   NA       0.0000   9999     0     0     0    
2019/08/22  16:45:00  BASE  5.42724  131  6.71496  138  -7.8  100   -7.8  156   0     1012.8   NA       0.0000   9999     0     0     0    
2019/08/22  16:46:00  BASE  5.24496  130  6.71496  138  -7.8  100   -7.8  155   0     1012.8   NA       0.0000   9999     0     0     0    
2019/08/22  16:47:00  BASE  5.19792  132  6.71496  138  -7.8  100   -7.8  153   0     1012.8   NA       0.0000   9999     0     0     0    
2019/08/22  16:48:00  BASE  5.32728  132  8.04384  117  -7.8  100   -7.8  153   0     1012.7   NA       0.0000   9999     0     0     0    
2019/08/22  16:49:00  BASE  5.88588  127  8.04384  117  -7.7  100   -7.7  154   0     1012.8   NA       0.0000   9999     0     0     0    
2019/08/22  16:50:00  BASE  4.98624  127  8.04384  117  -7.7  100   -7.7  154   0     1012.8   NA       0.0000   9999     0     0     0    
2019/08/22  16:51:00  BASE  4.83924  131  8.04384  117  -7.7  100   -7.7  156   0     1012.8   NA       0.0000   9999     0     0     0    
2019/08/22  16:52:00  BASE  4.63932  139  8.04384  117  -7.7  100   -7.7  156   0     1012.8   NA       0.0000   9999     0     0     0    
2019/08/22  16:53:00  BASE  4.65696  135  8.04384  117  -7.6  100   -7.6  156   1     1012.8   NA       0.0000   9999     0     0     0    
2019/08/22  16:54:00  BASE  5.65068  122  8.04384  117  -7.6  100   -7.6  155   0     1012.8   NA       0.0000   9999     0     0     0    
2019/08/22  16:55:00  BASE  4.65696  130  8.04384  117  -7.5  100   -7.5  155   0     1012.9   NA       0.0000   9999     0     0     0    
2019/08/22  16:56:00  BASE  3.0576   146  8.04384  117  -7.5  100   -7.5  154   0     1012.9   NA       0.0000   9999     0     0     0    
2019/08/22  16:57:00  BASE  2.02272  148  8.04384  117  -7.5  100   -7.5  154   0     1013.0   NA       0.0000   9999     0     0     0    
2019/08/22  16:58:00  BASE  3.11052  131  7.86744  117  -7.5  100   -7.5  154   0     1013.0   NA       0.0000   9999     0     0     0    
2019/08/22  16:59:00  BASE  4.41     119  7.86744  117  -7.5  100   -7.5  154   0     1013.0   NA       0.0000   9999     0     0     0    
2019/08/22  17:00:00  BASE  4.75104  124  7.86744  117  -7.5  100   -7.5  154   0     1012.9   NA       0.0000   9999     0     0     0    
2019/08/22  17:01:00  BASE  4.998    136  7.86744  117  -7.5  100   -7.5  153   0     1012.9   NA       0.0000   9999     0     0     0    
2019/08/22  17:02:00  BASE  4.21008  144  7.86744  117  -7.5  100   -7.5  153   0     1013.0   NA       0.0000   9999     0     0     0    
2019/08/22  17:03:00  BASE  3.53976  138  6.2916   106  -7.5  100   -7.5  152   0     1013.0   NA       0.0000   9999     0     0     0    
2019/08/22  17:04:00  BASE  2.89296  116  5.59776  131  -7.5  100   -7.5  152   0     1013.0   NA       0.0000   9999     0     0     0    
2019/08/22  17:05:00  BASE  2.13444  118  5.59776  131  -7.5  100   -7.5  152   0     1013.0   NA       0.0000   9999     0     0     0    
2019/08/22  17:06:00  BASE  1.94628  138  5.59776  131  -7.5  100   -7.5  152   0     1013.0   NA       0.0000   9999     0     0     0    
2019/08/22  17:07:00  BASE  1.8816   116  5.59776  131  -7.6  100   -7.6  150   0     1013.0   NA       0.0000   9999     0     0     0    
2019/08/22  17:08:00  BASE  2.06976  85   5.59776  131  -7.6  100   -7.6  150   0     1013.1   NA       0.0000   9999     0     0     0    
2019/08/22  17:09:00  BASE  1.68756  52   5.59776  131  -7.6  100   -7.6  151   0     1013.2   NA       0.0000   9999     0     0     0    
2019/08/22  17:10:00  BASE  0.99372  40   5.2626   140  -7.6  100   -7.6  149   0     1013.2   NA       0.0000   9999     0     0     0    
2019/08/22  17:11:00  BASE  1.0878   62   4.75104  126  -7.6  100   -7.6  149   0     1013.2   NA       0.0000   9999     0     0     0    
2019/08/22  17:12:00  BASE  1.10544  66   4.75104  126  -7.5  100   -7.5  149   0     1013.2   NA       0.0000   9999     0     0     0    
2019/08/22  17:13:00  BASE  1.0878   54   3.29868  119  -7.5  100   -7.5  148   0     1013.2   NA       0.0000   9999     0     0     0    
2019/08/22  17:14:00  BASE  1.22892  49   3.234    142  -7.5  100   -7.5  148   0     1013.2   NA       0.0000   9999     0     0     0    
2019/08/22  17:15:00  BASE  1.37592  44   3.2046   92   -7.5  100   -7.5  148   0     1013.2   NA       0.0000   9999     0     0     0    
2019/08/22  17:16:00  BASE  1.51704  40   3.2046   92   -7.6  100   -7.6  148   1     1013.2   NA       0.0000   9999     0     0     0    
2019/08/22  17:17:00  BASE  1.45236  41   3.2046   92   -7.7  100   -7.7  149   0     1013.2   NA       0.0000   9999     0     0     0    
2019/08/22  17:18:00  BASE  1.30536  34   1.69344  41   -7.8  100   -7.8  149   0     1013.2   NA       0.0000   9999     0     0     0    
2019/08/22  17:19:00  BASE  1.2642   31   1.69344  41   -7.9  100   -7.9  148   0     1013.2   NA       0.0000   9999     0     0     0    
2019/08/22  17:20:00  BASE  1.21716  30   1.69344  41   -8.0  100   -8.0  148   0     1013.2   NA       0.0000   9999     0     0     0    
2019/08/22  17:21:00  BASE  1.029    30   1.69344  41   -8.0  100   -8.0  149   0     1013.2   NA       0.0000   9999     0     0     0    
2019/08/22  17:22:00  BASE  0.95844  41   1.69344  41   -8.1  100   -8.1  149   0     1013.2   NA       0.0000   9999     0     0     0    
2019/08/22  17:23:00  BASE  1.03488  55   1.69344  41   -8.1  100   -8.1  149   0     1013.2   NA       0.0000   9999     0     0     0    
2019/08/22  17:24:00  BASE  0.62328  31   1.69344  41   -8.0  100   -8.0  149   0     1013.2   NA       0.0000   9999     0     0     0    
2019/08/22  17:25:00  BASE  0.34104  325  1.66404  41   -8.0  100   -8.0  149   0     1013.2   NA       0.0000   9999     0     0     0    
2019/08/22  17:26:00  BASE  0.25284  305  1.63464  51   -8.0  100   -8.0  149   0     1013.3   NA       0.0000   9999     0     0     0    
2019/08/22  17:27:00  BASE  0        309  1.51116  73   -8.0  100   -8.0  149   0     1013.3   NA       0.0000   9999     0     0     0    
2019/08/22  17:28:00  BASE  0.29988  320  1.51116  73   -8.0  100   -8.0  149   0     1013.3   NA       0.0000   9999     0     0     0    
2019/08/22  17:29:00  BASE  0.3822   328  1.51116  73   -8.1  100   -8.1  148   0     1013.3   NA       0.0000   9999     0     0     0    
2019/08/22  17:30:00  BASE  0.08232  332  1.51116  73   -8.2  100   -8.2  148   0     1013.3   NA       0.0000   9999     0     0     0    
2019/08/22  17:31:00  BASE  0        350  1.51116  73   -8.2  100   -8.2  149   0     1013.3   NA       0.0000   9999     0     0     0    
2019/08/22  17:32:00  BASE  0        7    1.51116  73   -8.3  100   -8.3  148   0     1013.3   NA       0.0000   9999     0     0     0    
2019/08/22  17:33:00  BASE  0        17   1.0584   328  -8.4  100   -8.4  148   1     1013.3   NA       0.0000   9999     0     0     0    
2019/08/22  17:34:00  BASE  0.0294   17   1.0584   328  -8.4  100   -8.4  148   0     1013.3   NA       0.0000   9999     0     0     0    
2019/08/22  17:35:00  BASE  0.0294   0    1.0584   328  -8.4  100   -8.4  147   0     1013.3   NA       0.0000   9999     0     0     0    
2019/08/22  17:36:00  BASE  0.02352  349  1.0584   328  -8.4  100   -8.4  147   0     1013.3   NA       0.0000   9999     0     0     0    
2019/08/22  17:37:00  BASE  0.02352  343  1.0584   328  -8.3  100   -8.3  147   0     1013.3   NA       0.0000   9999     0     0     0    
2019/08/22  17:38:00  BASE  0.1764   336  0.75852  332  -8.3  100   -8.3  146   1     1013.2   NA       0.0000   9999     0     0     0    
2019/08/22  17:39:00  BASE  0.59388  335  0.90552  334  -8.3  100   -8.3  146   0     1013.2   NA       0.0000   9999     0     0     0    
2019/08/22  17:40:00  BASE  0.84672  343  0.90552  349  -8.2  100   -8.2  146   1     1013.2   NA       0.0000   9999     0     0     0    
2019/08/22  17:41:00  BASE  0.68208  351  0.90552  349  -8.2  100   -8.2  145   0     1013.2   NA       0.0000   9999     0     0     0    
2019/08/22  17:42:00  BASE  0.25284  354  0.90552  349  -8.3  100   -8.3  145   1     1013.2   NA       0.0000   9999     0     0     0    
2019/08/22  17:43:00  BASE  0.05292  355  0.90552  349  -8.3  100   -8.3  145   0     1013.2   NA       0.0000   9999     0     0     0    
2019/08/22  17:44:00  BASE  0.07644  352  0.90552  349  -8.3  100   -8.3  144   1     1013.2   NA       0.0000   9999     0     0     0    
2019/08/22  17:45:00  BASE  0.21168  346  0.90552  349  -8.2  100   -8.2  143   0     1013.2   NA       0.0000   9999     0     0     0    
2019/08/22  17:46:00  BASE  0.18816  340  0.90552  349  -8.2  100   -8.2  142   0     1013.1   NA       0.0000   9999     0     0     0    
2019/08/22  17:47:00  BASE  0        337  0.90552  349  -8.1  100   -8.1  141   1     1013.1   NA       0.0000   9999     0     0     0    
2019/08/22  17:48:00  BASE  0        333  0.90552  349  -8.0  100   -8.0  141   0     1013.1   NA       0.0000   9999     0     0     0    
2019/08/22  17:49:00  BASE  0        330  0.90552  349  -7.9  100   -7.9  140   0     1013.0   NA       0.0000   9999     0     0     0    
2019/08/22  17:50:00  BASE  0        324  0.78792  353  -7.9  100   -7.9  140   0     1013.0   NA       0.0000   9999     0     0     0    
2019/08/22  17:51:00  BASE  0        318  0.69384  345  -7.8  100   -7.8  139   0     1013.0   NA       0.0000   9999     0     0     0    
2019/08/22  17:52:00  BASE  0        316  0.69384  345  -7.9  100   -7.9  138   0     1013.0   NA       0.0000   9999     0     0     0    
2019/08/22  17:53:00  BASE  0.1176   317  0.72324  322  -8.0  100   -8.0  137   0     1013.0   NA       0.0000   9999     0     0     0    
2019/08/22  17:54:00  BASE  0.16464  317  0.72324  322  -8.0  100   -8.1  137   1     1013.0   NA       0.0000   9999     0     0     0    
2019/08/22  17:55:00  BASE  0.39396  310  0.72324  303  -8.1  100   -8.1  136   0     1013.0   NA       0.0000   9999     0     0     0    
2019/08/22  17:56:00  BASE  0.55272  300  0.75852  293  -8.2  100   -8.2  135   0     1013.0   NA       0.0000   9999     0     0     0    
2019/08/22  17:57:00  BASE  0.39984  305  0.75852  293  -8.1  100   -8.1  134   0     1013.0   NA       0.0000   9999     0     0     0    
2019/08/22  17:58:00  BASE  0.294    311  0.75852  293  -8.0  100   -8.0  134   0     1013.0   NA       0.0000   9999     0     0     0    
2019/08/22  17:59:00  BASE  0.10584  305  0.75852  293  -8.0  100   -8.0  134   0     1013.0   NA       0.0000   9999     0     0     0    
2019/08/22  18:00:00  BASE  0.2352   303  0.9996   312  -8.0  100   -8.0  134   0     1013.0   NA       0.0000   9999     0     0     0    
2019/08/22  18:01:00  BASE  0.80556  311  1.32888  319  -8.0  100   -8.0  133   0     1013.0   NA       0.0000   9999     0     0     0    
2019/08/22  18:02:00  BASE  1.2642   315  1.42296  312  -8.0  100   -8.0  132   0     1012.9   NA       0.0000   9999     0     0     0    
2019/08/22  18:03:00  BASE  1.36416  312  1.42296  312  -8.0  100   -8.0  131   0     1012.9   NA       0.0000   9999     0     0     0    
2019/08/22  18:04:00  BASE  1.28184  308  1.42296  312  -8.0  100   -8.0  131   0     1012.9   NA       0.0000   9999     0     0     0    
2019/08/22  18:05:00  BASE  1.12896  301  1.42296  312  -8.0  100   -8.0  130   0     1012.9   NA       0.0000   9999     0     0     0    
2019/08/22  18:06:00  BASE  0.92904  303  1.42296  312  -8.0  100   -8.0  129   0     1012.9   NA       0.0000   9999     0     0     0    
2019/08/22  18:07:00  BASE  0.43512  314  1.42296  312  -8.0  100   -8.0  128   0     1012.9   NA       0.0000   9999     0     0     0    
2019/08/22  18:08:00  BASE  0.0294   326  1.42296  312  -8.0  100   -8.0  128   0     1012.9   NA       0.0000   9999     0     0     0    
2019/08/22  18:09:00  BASE  0        343  1.42296  312  -8.1  100   -8.1  126   0     1012.9   NA       0.0000   9999     0     0     0    
2019/08/22  18:10:00  BASE  0        344  1.42296  312  -8.1  100   -8.1  125   0     1012.9   NA       0.0000   9999     21690 0     0    
2019/08/22  18:11:00  BASE  0.05292  325  1.42296  312  -8.1  100   -8.1  122   0     1012.9   NA       0.0000   9999     0     0     0    
2019/08/22  18:12:00  BASE  0.07644  315  1.39356  307  -8.1  100   -8.1  119   0     1012.9   NA       0.0000   9999     0     0     0    
2019/08/22  18:13:00  BASE  0.0294   308  1.39356  307  -8.1  100   -8.1  116   0     1012.8   NA       0.0000   9999     0     0     0    
2019/08/22  18:14:00  BASE  0.07644  313  1.21128  300  -8.0  100   -8.0  116   0     1012.9   NA       0.0000   9999     0     0     0    
2019/08/22  18:15:00  BASE  0.21756  316  1.0584   304  -8.0  100   -8.0  113   0     1012.9   NA       0.0000   9999     0     0     0    
2019/08/22  18:16:00  BASE  0.14112  316  0.72324  311  -8.1  100   -8.1  114   0     1012.9   NA       0.0000   9999     0     0     0    
2019/08/22  18:17:00  BASE  0        339  0.72324  311  -8.2  100   -8.2  112   0     1012.9   NA       0.0000   9999     0     0     0    
2019/08/22  18:18:00  BASE  0        351  0.72324  311  -8.2  100   -8.2  110   0     1012.9   NA       0.0000   9999     0     0     0    
2019/08/22  18:19:00  BASE  0        350  0.72324  311  -8.3  100   -8.3  109   0     1012.9   NA       0.0000   9999     0     0     0    
2019/08/22  18:20:00  BASE  0        350  0.72324  311  -8.4  100   -8.4  110   0     1012.9   NA       0.0000   9999     0     0     0    
2019/08/22  18:21:00  BASE  0        350  0.72324  311  -8.4  100   -8.4  109   0     1012.9   NA       0.0000   9999     0     0     0    
2019/08/22  18:22:00  BASE  0.0294   6    0.72324  311  -8.4  100   -8.4  108   0     1012.9   NA       0.0000   9999     22870 0     0    
2019/08/22  18:23:00  BASE  0.05292  22   0.72324  311  -8.4  100   -8.4  107   0     1012.9   NA       0.0000   9999     0     0     0    
2019/08/22  18:24:00  BASE  0.25872  22   0.75852  18   -8.4  100   -8.4  105   0     1012.9   NA       0.0000   9999     0     0     0    
2019/08/22  18:25:00  BASE  0.65856  21   0.87612  21   -8.4  100   -8.4  102   0     1012.9   NA       0.0000   9999     0     0     0    
2019/08/22  18:26:00  BASE  0.82908  21   0.87612  21   -8.4  100   -8.4  101   0     1012.9   NA       0.0000   9999     0     0     0    
2019/08/22  18:27:00  BASE  0.81732  26   0.87612  29   -8.4  100   -8.4  98    0     1012.9   NA       0.0000   9999     0     0     0    
2019/08/22  18:28:00  BASE  0.83496  33   0.87612  41   -8.4  100   -8.4  100   0     1012.9   NA       0.0000   9999     0     0     0    
2019/08/22  18:29:00  BASE  0.93492  39   1.1466   39   -8.4  100   -8.4  100   0     1012.9   NA       0.0000   9999     0     0     0    
2019/08/22  18:30:00  BASE  1.1172   37   1.29948  24   -8.3  100   -8.3  99    0     1012.9   NA       0.0000   9999     0     0     0    
2019/08/22  18:31:00  BASE  1.14072  29   1.29948  24   -8.3  100   -8.3  98    0     1012.9   NA       0.0000   9999     0     0     0    
2019/08/22  18:32:00  BASE  1.029    29   1.29948  24   -8.3  100   -8.3  97    0     1012.9   NA       0.0000   9999     0     0     0    
2019/08/22  18:33:00  BASE  1.01724  29   1.29948  24   -8.2  100   -8.2  95    0     1012.8   NA       0.0000   9999     0     0     0    
2019/08/22  18:34:00  BASE  1.11132  26   1.29948  24   -8.2  100   -8.2  94    0     1012.8   NA       0.0000   9999     0     0     0    
2019/08/22  18:35:00  BASE  1.11132  16   1.29948  24   -8.2  100   -8.2  92    0     1012.8   NA       0.0000   9999     0     0     0    
2019/08/22  18:36:00  BASE  1.03488  9    1.29948  24   -8.2  100   -8.2  91    0     1012.8   NA       0.0000   9999     0     0     0    
2019/08/22  18:37:00  BASE  0.93492  13   1.29948  24   -8.2  100   -8.2  90    0     1012.8   NA       0.0000   9999     0     0     0    
2019/08/22  18:38:00  BASE  0.7056   16   1.29948  24   -8.2  100   -8.2  89    0     1012.8   NA       0.0000   9999     0     0     0    
2019/08/22  18:39:00  BASE  0.65268  19   1.29948  24   -8.2  100   -8.2  87    0     1012.8   NA       0.0000   9999     0     0     0    
2019/08/22  18:40:00  BASE  0.65268  16   1.24068  1    -8.2  100   -8.2  85    0     1012.8   NA       0.0000   9999     0     0     0    
2019/08/22  18:41:00  BASE  0.2646   16   1.24068  1    -8.2  100   -8.2  83    0     1012.8   NA       0.0000   9999     0     0     0    
2019/08/22  18:42:00  BASE  0.10584  18   1.24068  1    -8.2  100   -8.2  81    0     1012.8   NA       0.0000   9999     0     0     0    
2019/08/22  18:43:00  BASE  0.15876  17   1.24068  1    -8.2  100   -8.2  80    0     1012.8   NA       0.0000   9999     0     0     0    
2019/08/22  18:44:00  BASE  0.42336  14   1.24068  1    -8.2  100   -8.2  78    0     1012.8   NA       0.0000   9999     0     0     0    
2019/08/22  18:45:00  BASE  0.4998   9    1.0878   13   -8.3  100   -8.3  78    0     1012.8   NA       0.0000   9999     0     0     0    
2019/08/22  18:46:00  BASE  0.12936  11   0.90552  14   -8.3  100   -8.3  77    0     1012.9   NA       0.0000   9999     0     0     0    
2019/08/22  18:47:00  BASE  0.08232  20   0.90552  14   -8.3  100   -8.3  76    0     1012.9   NA       0.0000   9999     0     0     0    
2019/08/22  18:48:00  BASE  0.18816  16   0.90552  14   -8.2  100   -8.2  75    0     1012.9   NA       0.0000   9999     0     0     0    
2019/08/22  18:49:00  BASE  0.22344  6    0.90552  14   -8.2  100   -8.2  73    0     1012.9   NA       0.0000   9999     0     0     0    
2019/08/22  18:50:00  BASE  0.54684  359  1.0584   1    -8.2  100   -8.2  71    0     1012.9   NA       0.0000   9999     0     0     0    
2019/08/22  18:51:00  BASE  0.84084  356  1.0584   1    -8.1  100   -8.1  70    0     1012.9   NA       0.0000   9999     0     0     0    
2019/08/22  18:52:00  BASE  0.79968  355  1.1172   352  -8.1  100   -8.1  69    0     1012.8   NA       0.0000   9999     0     0     0    
2019/08/22  18:53:00  BASE  0.92316  353  1.21128  360  -8.1  100   -8.1  68    0     1012.8   NA       0.0000   9999     0     0     0    
2019/08/22  18:54:00  BASE  1.01136  350  1.24068  348  -8.1  100   -8.1  66    0     1012.8   NA       0.0000   9999     0     0     0    
2019/08/22  18:55:00  BASE  0.95256  351  1.24068  348  -8.1  100   -8.1  63    0     1012.8   NA       0.0000   9999     0     0     0    
2019/08/22  18:56:00  BASE  0.92316  358  1.24068  348  -8.1  100   -8.1  61    0     1012.8   NA       0.0000   9999     0     0     0    
2019/08/22  18:57:00  BASE  0.9996   1    1.24068  348  -8.1  100   -8.1  58    0     1012.8   NA       0.0000   9999     0     0     0    
2019/08/22  18:58:00  BASE  1.12896  355  1.42296  346  -8.1  100   -8.1  58    0     1012.8   NA       0.0000   9999     0     0     0    
2019/08/22  18:59:00  BASE  1.16424  346  1.42296  346  -8.2  100   -8.2  57    0     1012.8   NA       0.0000   9999     0     0     0    
2019/08/22  19:00:00  BASE  1.22892  344  1.42296  350  -8.3  100   -8.3  55    0     1012.8   NA       0.0000   9999     0     0     0    
2019/08/22  19:01:00  BASE  1.3524   348  1.48176  346  -8.4  100   -8.4  56    0     1012.8   NA       0.0000   9999     0     0     0    
2019/08/22  19:02:00  BASE  1.42296  349  1.54056  349  -8.5  100   -8.5  57    0     1012.8   NA       0.0000   9999     0     0     0    
2019/08/22  19:03:00  BASE  1.52292  348  1.69344  346  -8.7  100   -8.7  55    0     1012.8   NA       0.0000   9999     0     0     0    
2019/08/22  19:04:00  BASE  1.54644  345  1.69344  346  -8.8  100   -8.8  55    0     1012.8   NA       0.0000   9999     0     0     0    
2019/08/22  19:05:00  BASE  1.617    345  1.90512  349  -8.9  100   -8.9  55    0     1012.8   NA       0.0000   9999     0     0     0    
2019/08/22  19:06:00  BASE  1.84044  349  2.29908  353  -8.9  100   -8.9  51    0     1012.7   NA       0.0000   9999     0     0     0    
2019/08/22  19:07:00  BASE  2.05212  349  2.29908  353  -8.9  100   -8.9  48    0     1012.7   NA       0.0000   9999     0     0     0    
2019/08/22  19:08:00  BASE  2.09916  346  2.29908  353  -9.0  100   -9.0  47    0     1012.8   NA       0.0000   9999     0     0     0    
2019/08/22  19:09:00  BASE  2.09916  345  2.29908  353  -9.1  100   -9.1  45    0     1012.7   NA       0.0000   9999     0     0     0    
2019/08/22  19:10:00  BASE  2.1756   345  2.29908  345  -9.2  100   -9.2  45    0     1012.7   NA       0.0000   9999     820   0     0    
2019/08/22  19:11:00  BASE  2.11092  341  2.29908  345  -9.2  100   -9.2  45    0     1012.7   NA       0.0000   9999     0     0     0    
2019/08/22  19:12:00  BASE  1.95804  341  2.29908  345  -9.2  100   -9.2  49    0     1012.7   NA       0.0000   9999     490   0     0    
2019/08/22  19:13:00  BASE  1.90512  348  2.29908  345  -9.1  100   -9.1  50    0     1012.7   NA       0.0000   9999     360   0     0    
2019/08/22  19:14:00  BASE  2.00508  354  2.29908  354  -9.0  100   -9.0  46    0     1012.6   NA       0.0000   9999     330   0     0    
2019/08/22  19:15:00  BASE  2.15208  354  2.32848  351  -8.9  100   -8.9  43    0     1012.7   NA       0.0000   9999     360   0     0    
2019/08/22  19:16:00  BASE  2.24616  351  2.38728  351  -8.9  100   -8.9  45    0     1012.7   NA       0.0000   9999     230   0     0    
2019/08/22  19:17:00  BASE  2.28732  348  2.56956  342  -8.9  100   -8.9  47    0     1012.7   NA       0.0000   9999     200   0     0    
2019/08/22  19:18:00  BASE  2.205    345  2.56956  342  -8.9  100   -8.9  49    0     1012.7   NA       0.0000   9999     260   0     0    
2019/08/22  19:19:00  BASE  2.21676  347  2.56956  342  -8.8  100   -8.8  49    0     1012.7   NA       0.0000   9999     300   0     0    
2019/08/22  19:20:00  BASE  2.35788  348  2.56956  342  -8.8  100   -8.8  47    0     1012.7   NA       0.0000   9999     260   0     0    
2019/08/22  19:21:00  BASE  2.36964  349  2.56956  342  -8.7  100   -8.7  45    0     1012.7   NA       0.0000   9999     230   0     0    
2019/08/22  19:22:00  BASE  2.35788  350  2.56956  342  -8.6  100   -8.6  44    0     1012.7   NA       0.0000   9999     200   0     0    
2019/08/22  19:23:00  BASE  2.33436  348  2.56956  342  -8.6  100   -8.6  44    0     1012.7   NA       0.0000   9999     0     0     0    
2019/08/22  19:24:00  BASE  2.18148  350  2.56956  342  -8.5  100   -8.5  44    0     1012.7   NA       0.0000   9999     200   0     0    
2019/08/22  19:25:00  BASE  2.06976  358  2.56956  342  -8.5  100   -8.5  43    0     1012.7   NA       0.0000   9999     200   0     0    
2019/08/22  19:26:00  BASE  2.03448  3    2.56956  342  -8.4  100   -8.4  45    0     1012.6   NA       0.0000   9999     200   0     0    
2019/08/22  19:27:00  BASE  1.8816   3    2.51076  347  -8.3  100   -8.3  43    0     1012.6   NA       0.0000   9999     200   0     0    
2019/08/22  19:28:00  BASE  1.53468  2    2.51076  347  -8.3  100   -8.3  41    0     1012.6   NA       0.0000   9999     260   0     0    
2019/08/22  19:29:00  BASE  1.21128  13   2.51076  347  -8.3  100   -8.3  39    0     1012.6   NA       0.0000   9999     160   0     0    
2019/08/22  19:30:00  BASE  1.15836  26   2.51076  347  -8.3  100   -8.3  39    0     1012.6   NA       0.0000   9999     200   0     0    
2019/08/22  19:31:00  BASE  1.31712  29   2.51076  347  -8.3  100   -8.3  37    0     1012.6   NA       0.0000   9999     160   0     0    
2019/08/22  19:32:00  BASE  1.48176  22   2.42256  347  -8.3  100   -8.3  36    0     1012.6   NA       0.0000   9999     0     0     0    
2019/08/22  19:33:00  BASE  1.34652  21   2.21088  5    -8.2  100   -8.2  37    0     1012.6   NA       0.0000   9999     0     0     0    
2019/08/22  19:34:00  BASE  1.12308  24   2.21088  5    -8.1  100   -8.1  36    0     1012.5   NA       0.0000   9999     0     0     0    
2019/08/22  19:35:00  BASE  1.18188  24   2.21088  5    -8.1  100   -8.1  35    0     1012.5   NA       0.0000   8000     0     0     0    
2019/08/22  19:36:00  BASE  1.21128  21   1.87572  360  -8.0  100   -8.0  34    0     1012.5   NA       0.0000   6000     0     0     0    
2019/08/22  19:37:00  BASE  0.87612  27   1.75224  1    -8.0  100   -8.0  35    0     1012.5   NA       0.0000   5000     0     0     0    
2019/08/22  19:38:00  BASE  0.48216  42   1.66404  19   -8.0  100   -8.0  34    0     1012.4   NA       0.0000   BR       4800  0     0    
2019/08/22  19:39:00  BASE  0.47628  41   1.66404  19   -8.0  100   -8.0  32    0     1012.3   NA       0.0000   BR       3800  0     0    
2019/08/22  19:40:00  BASE  0.79968  29   1.66404  19   -8.0  100   -8.0  31    0     1012.3   NA       0.0000   BR       2700  0     0    
2019/08/22  19:41:00  BASE  1.07604  15   1.66404  19   -8.1  100   -8.1  30    0     1012.3   NA       0.0000   BR       2700  0     0    
2019/08/22  19:42:00  BASE  1.13484  6    1.54056  30   -8.1  100   -8.1  32    0     1012.3   NA       0.0000   BR       3200  0     0    
2019/08/22  19:43:00  BASE  1.09956  9    1.54056  30   -8.0  100   -8.0  33    0     1012.3   NA       0.0000   BR       3100  0     0    
2019/08/22  19:44:00  BASE  1.01136  10   1.54056  30   -8.0  100   -8.0  30    0     1012.3   NA       0.0000   BR       2100  0     0    
2019/08/22  19:45:00  BASE  1.02312  8    1.42296  360  -8.0  100   -8.0  30    0     1012.3   NA       0.0000   BR       2200  0     0    
2019/08/22  19:46:00  BASE  1.04664  7    1.42296  360  -7.9  100   -7.9  28    0     1012.3   NA       0.0000   BR       2400  0     0    
2019/08/22  19:47:00  BASE  1.11132  6    1.42296  360  -7.9  100   -7.9  30    0     1012.3   NA       0.0000   BR       2600  0     0    
2019/08/22  19:48:00  BASE  1.21716  6    1.42296  360  -7.9  100   -7.9  31    0     1012.3   NA       0.0000   BR       2400  0     0    
2019/08/22  19:49:00  BASE  1.15836  5    1.42296  360  -7.9  100   -7.9  30    0     1012.3   NA       0.0000   BR       2100  0     0    
2019/08/22  19:50:00  BASE  1.18188  4    1.48176  1    -7.9  100   -7.9  28    0     1012.3   NA       0.0000   BR       1900  0     0    
2019/08/22  19:51:00  BASE  1.2348   358  1.48176  1    -7.9  100   -7.9  27    0     1012.3   NA       0.0000   BR       1700  0     0    
2019/08/22  19:52:00  BASE  1.31124  346  1.69344  334  -7.8  100   -7.8  26    1     1012.3   NA       0.0000   BR       1500  0     0    
2019/08/22  19:53:00  BASE  1.28772  334  1.69344  334  -7.8  100   -7.8  27    0     1012.3   NA       0.0000   BR       1400  0     0    
2019/08/22  19:54:00  BASE  0.75264  333  1.69344  334  -7.8  100   -7.8  27    0     1012.4   NA       0.0000   BR       1200  0     0    
2019/08/22  19:55:00  BASE  0.3234   340  1.69344  334  -7.7  100   -7.7  28    0     1012.4   NA       0.0000   BR       1000  0     0    
2019/08/22  19:56:00  BASE  0.13524  350  1.69344  334  -7.7  100   -7.7  28    0     1012.5   NA       0.0000   BR       0800  0     0    
2019/08/22  19:57:00  BASE  0.05292  5    1.69344  334  -7.7  100   -7.7  28    0     1012.5   NA       0.0000   BR       0700  0     0    
2019/08/22  19:58:00  BASE  0.05292  10   1.69344  334  -7.7  100   -7.7  27    0     1012.6   NA       0.0000   BR       0750  0     0    
2019/08/22  19:59:00  BASE  0.07644  347  1.69344  334  -7.7  100   -7.7  24    0     1012.6   NA       0.0000   BR       0750  0     0    
2019/08/22  20:00:00  BASE  0.22344  320  1.69344  334  -7.7  100   -7.7  23    0     1012.6   NA       0.0000   BR       0800  0     0    
2019/08/22  20:01:00  BASE  0.14112  317  1.69344  334  -7.7  100   -7.7  23    0     1012.6   NA       0.0000   BR       0800  0     0    
2019/08/22  20:02:00  BASE  0        344  1.57584  354  -7.7  100   -7.7  23    1     1012.6   NA       0.0000   FZFG     0750  0     0    
2019/08/22  20:03:00  BASE  0        358  0.84672  352  -7.7  100   -7.7  23    0     1012.6   NA       0.0000   FZFG     0650  0     0    
2019/08/22  20:04:00  BASE  0        1    0.75852  301  -7.7  100   -7.7  22    0     1012.6   NA       0.0000   FZFG     0550  0     0    
2019/08/22  20:05:00  BASE  0.07644  0    0.75852  301  -7.8  100   -7.8  22    0     1012.6   NA       0.0000   FZFG     0500  0     0    
2019/08/22  20:06:00  BASE  0.07644  349  0.75852  301  -7.8  100   -7.8  22    1     1012.6   NA       0.0000   FZFG     0700  0     0    
2019/08/22  20:07:00  BASE  0.33516  19   0.84672  58   -7.9  100   -7.9  21    1     1012.6   NA       0.0000   FZFG     0600  0     0    
2019/08/22  20:08:00  BASE  0.56448  45   0.84672  58   -8.0  100   -8.0  20    0     1012.6   NA       0.0000   FZFG     0450  0     0    
2019/08/22  20:09:00  BASE  0.22932  44   0.84672  58   -8.0  100   -8.0  19    0     1012.6   NA       0.0000   FZFG     0400  0     0    
2019/08/22  20:10:00  BASE  0        24   0.84672  58   -8.0  100   -8.0  19    0     1012.6   NA       0.0000   FZFG     0400  0     0    
2019/08/22  20:11:00  BASE  0        8    0.84672  58   -8.1  100   -8.1  18    0     1012.6   NA       0.0000   FZFG     0450  0     0    
2019/08/22  20:12:00  BASE  0        8    0.84672  58   -8.0  100   -8.0  17    0     1012.6   NA       0.0000   FZFG     0450  0     0    
2019/08/22  20:13:00  BASE  0        11   0.84672  58   -8.0  100   -8.0  17    0     1012.6   NA       0.0000   FZFG     0450  0     0    
2019/08/22  20:14:00  BASE  0.1176   27   0.84672  58   -8.0  100   -8.0  16    1     1012.6   NA       0.0000   FZFG     0450  0     0    
2019/08/22  20:15:00  BASE  0.50568  39   0.84672  48   -8.0  100   -8.0  15    1     1012.7   NA       0.0000   FZFG     0400  0     0    
2019/08/22  20:16:00  BASE  0.5586   38   0.84672  48   -8.1  100   -8.1  15    0     1012.7   NA       0.0000   FZFG     0450  0     0    
2019/08/22  20:17:00  BASE  0.16464  40   0.84672  48   -8.1  100   -8.1  15    0     1012.7   NA       0.0000   FZFG     0400  0     0    
2019/08/22  20:18:00  BASE  0.19992  46   0.84672  48   -8.1  100   -8.1  14    0     1012.7   NA       0.0000   FZFG     0400  0     0    
2019/08/22  20:19:00  BASE  0.28812  48   0.84672  48   -8.1  100   -8.1  14    0     1012.7   NA       0.0000   FZFG     0350  0     0    
2019/08/22  20:20:00  BASE  0.39984  50   0.84672  48   -8.2  100   -8.2  13    0     1012.7   NA       0.0000   FZFG     0350  0     0    
2019/08/22  20:21:00  BASE  0.37044  52   0.84672  48   -8.2  100   -8.2  13    0     1012.7   NA       0.0000   FZFG     0350  0     0    
2019/08/22  20:22:00  BASE  0.05292  60   0.84672  48   -8.2  100   -8.2  12    0     1012.7   NA       0.0000   FZFG     0350  0     0    
2019/08/22  20:23:00  BASE  0.21756  65   0.84672  48   -8.2  100   -8.2  12    0     1012.7   NA       0.0000   FZFG     0350  0     0    
2019/08/22  20:24:00  BASE  0.21756  60   0.84672  48   -8.2  100   -8.2  12    0     1012.7   NA       0.0000   FZFG     0350  0     0    
2019/08/22  20:25:00  BASE  0.25284  66   0.81732  52   -8.2  100   -8.2  11    0     1012.7   NA       0.0000   FZFG     0400  0     0    
2019/08/22  20:26:00  BASE  0.4704   81   0.81732  52   -8.2  100   -8.2  10    0     1012.7   NA       0.0000   FZFG     0400  0     0    
2019/08/22  20:27:00  BASE  0.55272  92   1.029    96   -8.2  100   -8.2  10    0     1012.7   NA       0.0000   FZFG     0400  0     0    
2019/08/22  20:28:00  BASE  0.78792  92   1.029    96   -8.3  100   -8.3  10    0     1012.7   NA       0.0000   FZFG     0350  0     0    
2019/08/22  20:29:00  BASE  0.88788  88   1.029    96   -8.3  100   -8.3  9     0     1012.7   NA       0.0000   FZFG     0350  0     0    
2019/08/22  20:30:00  BASE  0.87612  89   1.029    96   -8.3  100   -8.3  9     0     1012.7   NA       0.0000   FZFG     0350  0     0    
2019/08/22  20:31:00  BASE  0.87024  93   1.029    96   -8.4  100   -8.4  9     0     1012.8   NA       0.0000   FZFG     0350  0     0    
2019/08/22  20:32:00  BASE  0.90552  97   1.029    101  -8.4  100   -8.4  8     0     1012.8   NA       0.0000   FZFG     0400  0     0    
2019/08/22  20:33:00  BASE  0.96432  102  1.029    107  -8.4  100   -8.4  8     0     1012.8   NA       0.0000   FZFG     0450  0     0    
2019/08/22  20:34:00  BASE  1.00548  107  1.1172   108  -8.4  100   -8.4  7     0     1012.8   NA       0.0000   FZFG     0500  0     0    
2019/08/22  20:35:00  BASE  1.03488  108  1.1466   110  -8.4  100   -8.4  7     0     1012.8   NA       0.0000   FZFG     0550  0     0    
2019/08/22  20:36:00  BASE  1.13484  113  1.29948  121  -8.3  100   -8.3  6     0     1012.8   NA       0.0000   FZFG     0800  0     0    
2019/08/22  20:37:00  BASE  1.19952  118  1.35828  124  -8.3  100   -8.3  6     0     1012.8   NA       0.0000   FZFG     1500  0     0    
2019/08/22  20:38:00  BASE  1.14072  118  1.48176  129  -8.3  100   -8.3  6     0     1012.7   NA       0.0000   FZFG     2000  0     0    
2019/08/22  20:39:00  BASE  1.22304  124  1.51116  129  -8.3  100   -8.3  5     0     1012.7   NA       0.0000   FZFG     1300  0     0    
2019/08/22  20:40:00  BASE  1.27596  126  1.51116  129  -8.3  100   -8.3  5     0     1012.7   NA       0.0000   FZFG     0750  0     0    
2019/08/22  20:41:00  BASE  1.31712  125  1.84632  134  -8.3  100   -8.3  4     0     1012.7   NA       0.0000   FZFG     0750  0     0    
2019/08/22  20:42:00  BASE  1.55232  131  1.90512  129  -8.3  100   -8.3  4     0     1012.7   NA       0.0000   FZFG     0550  0     0    
2019/08/22  20:43:00  BASE  1.57584  131  1.90512  129  -8.2  100   -8.2  4     0     1012.7   NA       0.0000   FZFG     0600  0     0    
2019/08/22  20:44:00  BASE  1.4994   128  1.90512  129  -8.2  100   -8.2  3     0     1012.7   NA       0.0000   FZFG     0700  0     0    
2019/08/22  20:45:00  BASE  1.44648  128  1.90512  129  -8.2  100   -8.2  3     0     1012.7   NA       0.0000   FZFG     0750  0     0    
2019/08/22  20:46:00  BASE  1.21128  123  1.90512  129  -8.2  100   -8.2  3     0     1012.8   NA       0.0000   FZFG     0800  0     0    
2019/08/22  20:47:00  BASE  0.98784  115  1.90512  129  -8.2  100   -8.2  3     0     1012.8   NA       0.0000   FZFG     0900  0     0    
2019/08/22  20:48:00  BASE  0.94668  109  1.90512  129  -8.2  100   -8.2  2     0     1012.8   NA       0.0000   FZFG     0800  0     0    
2019/08/22  20:49:00  BASE  0.94668  104  1.90512  129  -8.1  100   -8.1  2     0     1012.8   NA       0.0000   FZFG     0650  0     0    
2019/08/22  20:50:00  BASE  0.7938   97   1.90512  129  -8.1  100   -8.1  2     0     1012.8   NA       0.0000   FZFG     0600  0     0    
2019/08/22  20:51:00  BASE  0.68796  90   1.90512  129  -8.1  100   -8.1  2     0     1012.8   NA       0.0000   FZFG     0600  0     0    
2019/08/22  20:52:00  BASE  0.56448  82   1.84632  133  -8.1  100   -8.1  2     0     1012.8   NA       0.0000   FZFG     0500  0     0    
2019/08/22  20:53:00  BASE  0.25284  80   1.84632  133  -8.1  100   -8.1  2     0     1012.8   NA       0.0000   FZFG     0550  0     0    
2019/08/22  20:54:00  BASE  0.16464  80   1.54056  127  -8.1  100   -8.1  2     0     1012.8   NA       0.0000   FZFG     0500  0     0    
2019/08/22  20:55:00  BASE  0.16464  80   1.42296  120  -8.0  100   -8.0  2     0     1012.8   NA       0.0000   FZFG     0450  0     0    
2019/08/22  20:56:00  BASE  0.02352  79   1.18188  99   -8.0  100   -8.0  2     0     1012.8   NA       0.0000   FZFG     0450  0     0    
2019/08/22  20:57:00  BASE  0.05292  78   1.18188  99   -8.0  100   -8.0  1     0     1012.8   NA       0.0000   FZFG     0500  0     0    
2019/08/22  20:58:00  BASE  0.08232  80   1.18188  99   -8.0  100   -8.0  1     0     1012.8   NA       0.0000   FZFG     0550  0     0    
2019/08/22  20:59:00  BASE  0.0294   88   0.81732  78   -8.0  100   -8.0  1     0     1012.8   NA       0.0000   FZFG     0600  0     0    
2019/08/22  21:00:00  BASE  0        96   0.81732  78   -8.0  100   -8.0  1     0     1012.8   NA       0.0000   FZFG     0700  0     0    
2019/08/22  21:01:00  BASE  0        93   0.81732  78   -8.0  100   -8.0  1     0     1012.8   NA       0.0000   FZFG     0700  0     0    
2019/08/22  21:02:00  BASE  0.18816  94   0.78792  101  -7.9  100   -7.9  1     0     1012.8   NA       0.0000   FZFG     0600  0     0    
2019/08/22  21:03:00  BASE  0.31752  95   0.78792  101  -7.9  100   -7.9  1     0     1012.8   NA       0.0000   FZFG     0600  0     0    
2019/08/22  21:04:00  BASE  0.43512  88   0.93492  81   -7.9  100   -7.9  1     0     1012.8   NA       0.0000   FZFG     0650  0     0    
2019/08/22  21:05:00  BASE  0.30576  84   0.93492  81   -7.9  100   -7.9  1     0     1012.8   NA       0.0000   FZFG     0600  0     0    
2019/08/22  21:06:00  BASE  0.18816  82   0.93492  81   -7.9  100   -7.9  1     0     1012.8   NA       0.0000   FZFG     0650  0     0    
2019/08/22  21:07:00  BASE  0.5292   80   0.93492  81   -7.9  100   -7.9  1     0     1012.8   NA       0.0000   FZFG     0750  0     0    
2019/08/22  21:08:00  BASE  0.36456  88   0.93492  81   -7.9  100   -7.9  1     0     1012.8   NA       0.0000   FZFG     0800  0     0    
2019/08/22  21:09:00  BASE  0.3822   84   0.93492  81   -7.9  100   -7.9  0     0     1012.8   NA       0.0000   FZFG     0700  0     0    
2019/08/22  21:10:00  BASE  0.75264  73   0.9702   75   -7.9  100   -7.9  0     0     1012.8   NA       0.0000   FZFG     0650  0     0    
2019/08/22  21:11:00  BASE  0.71736  77   0.9702   75   -7.9  100   -7.9  0     0     1012.8   NA       0.0000   FZFG     0650  0     0    
2019/08/22  21:12:00  BASE  0.588    82   0.9702   75   -7.9  100   -7.9  0     0     1012.8   NA       0.0000   FZFG     0700  0     0    
2019/08/22  21:13:00  BASE  0.6468   81   0.9702   79   -7.9  100   -7.9  0     0     1012.8   NA       0.0000   FZFG     0700  0     0    
2019/08/22  21:14:00  BASE  0.64092  88   0.9702   79   -7.9  100   -7.9  0     0     1012.7   NA       0.0000   FZFG     0600  0     0    
2019/08/22  21:15:00  BASE  0.25872  93   0.9702   79   -7.9  100   -7.9  0     0     1012.7   NA       0.0000   FZFG     0550  0     0    
2019/08/22  21:16:00  BASE  0.28812  85   0.9702   79   -7.9  100   -7.9  0     0     1012.7   NA       0.0000   FZFG     0550  0     0    
2019/08/22  21:17:00  BASE  0.441    78   0.9702   79   -7.9  100   -7.9  0     0     1012.7   NA       0.0000   FZFG     0600  0     0    
2019/08/22  21:18:00  BASE  0.15288  76   0.9702   79   -7.9  100   -7.9  0     0     1012.7   NA       0.0000   FZFG     0500  0     0    
2019/08/22  21:19:00  BASE  0        70   0.9702   79   -7.9  100   -7.9  0     0     1012.7   NA       0.0000   FZFG     0450  0     0    
2019/08/22  21:20:00  BASE  0        58   0.9702   79   -7.9  100   -7.9  0     0     1012.7   NA       0.0000   FZFG     0900  0     0    
2019/08/22  21:21:00  BASE  0.0294   51   0.9702   79   -7.9  100   -7.9  0     0     1012.7   NA       0.0000   FZFG     1000  0     0    
2019/08/22  21:22:00  BASE  0.07644  54   0.9702   79   -7.9  100   -7.9  0     0     1012.7   NA       0.0000   FZFG     1100  0     0    
2019/08/22  21:23:00  BASE  0.05292  63   0.81732  72   -7.9  100   -7.9  0     0     1012.7   NA       0.0000   FZFG     1100  0     0    
2019/08/22  21:24:00  BASE  0.02352  65   0.81732  72   -7.9  100   -7.9  0     0     1012.7   NA       0.0000   FZFG     1100  0     0    
2019/08/22  21:25:00  BASE  0.05292  64   0.81732  72   -7.9  100   -7.9  0     0     1012.7   NA       0.0000   FZFG     1100  0     0    
2019/08/22  21:26:00  BASE  0.12936  71   0.78792  77   -7.9  100   -7.9  0     0     1012.7   NA       0.0000   FZFG     0900  0     0    
2019/08/22  21:27:00  BASE  0.27048  82   0.75852  85   -7.9  100   -7.9  0     0     1012.7   NA       0.0000   FZFG     0900  0     0    
2019/08/22  21:28:00  BASE  0.50568  86   0.84672  86   -7.9  100   -7.9  0     0     1012.7   NA       0.0000   BR       0800  0     0    
2019/08/22  21:29:00  BASE  0.7938   89   0.9702   93   -7.9  100   -7.9  0     0     1012.7   NA       0.0000   BR       0750  0     0    
2019/08/22  21:30:00  BASE  0.97608  94   1.1466   100  -8.0  100   -8.0  0     0     1012.7   NA       0.0000   BR       0750  0     0    
2019/08/22  21:31:00  BASE  1.12308  98   1.29948  99   -8.0  100   -8.0  0     0     1012.7   NA       0.0000   BR       0700  0     0    
2019/08/22  21:32:00  BASE  1.18188  105  1.32888  113  -8.1  100   -8.1  0     0     1012.7   NA       0.0000   FZFG     0650  0     0    
2019/08/22  21:33:00  BASE  1.22304  115  1.35828  121  -8.1  100   -8.1  0     0     1012.7   NA       0.0000   FZFG     0700  0     0    
2019/08/22  21:34:00  BASE  1.40532  120  1.81692  123  -8.2  100   -8.2  0     0     1012.7   NA       0.0000   FZFG     0800  0     0    
2019/08/22  21:35:00  BASE  1.63464  123  1.84632  126  -8.3  100   -8.3  0     0     1012.7   NA       0.0000   FZFG     1100  0     0    
2019/08/22  21:36:00  BASE  1.66992  128  1.84632  126  -8.4  100   -8.4  0     0     1012.7   NA       0.0000   FZFG     1400  0     0    
2019/08/22  21:37:00  BASE  1.5876   129  1.84632  126  -8.4  100   -8.4  0     0     1012.7   NA       0.0000   FZFG     1600  0     0    
2019/08/22  21:38:00  BASE  1.40532  132  1.84632  126  -8.4  100   -8.4  0     0     1012.8   NA       0.0000   BR       2000  0     0    
2019/08/22  21:39:00  BASE  1.2348   134  1.84632  126  -8.4  100   -8.4  0     0     1012.8   NA       0.0000   BR       5000  0     0    
2019/08/22  21:40:00  BASE  1.21128  133  1.84632  126  -8.4  100   -8.4  0     0     1012.8   NA       0.0000   BR       9999  0     0    
2019/08/22  21:41:00  BASE  1.18188  136  1.84632  126  -8.4  100   -8.4  0     0     1012.8   NA       0.0000   BR       9999  0     0    
2019/08/22  21:42:00  BASE  1.176    131  1.84632  126  -8.4  100   -8.4  0     0     1012.8   NA       0.0000   BR       9999  0     0    
2019/08/22  21:43:00  BASE  1.21128  125  1.84632  126  -8.5  100   -8.5  0     0     1012.8   NA       0.0000   BR       9999  0     0    
2019/08/22  21:44:00  BASE  1.2936   126  1.84632  126  -8.6  100   -8.6  0     0     1012.8   NA       0.0000   BR       9999  0     0    
2019/08/22  21:45:00  BASE  1.43472  125  1.81692  111  -8.6  100   -8.6  0     0     1012.8   NA       0.0000   BR       9999  0     0    
2019/08/22  21:46:00  BASE  1.62288  122  1.87572  125  -8.7  100   -8.7  0     0     1012.8   NA       0.0000   BR       9999  0     0    
2019/08/22  21:47:00  BASE  1.77576  124  2.058    130  -8.6  100   -8.6  0     0     1012.8   NA       0.0000   BR       9999  0     0    
2019/08/22  21:48:00  BASE  1.68168  137  2.058    130  -8.5  100   -8.5  0     0     1012.8   NA       0.0000   9999     0     0     0    
2019/08/22  21:49:00  BASE  1.5288   140  2.058    130  -8.4  100   -8.4  0     0     1012.8   NA       0.0000   9999     0     0     0    
2019/08/22  21:50:00  BASE  1.61112  138  2.058    130  -8.4  100   -8.4  0     0     1012.8   NA       0.0000   9999     0     0     0    
2019/08/22  21:51:00  BASE  1.57584  137  2.058    130  -8.4  100   -8.4  0     0     1012.8   NA       0.0000   9999     0     0     0    
2019/08/22  21:52:00  BASE  1.22304  123  2.058    130  -8.5  100   -8.5  0     0     1012.8   NA       0.0000   9999     0     0     0    
2019/08/22  21:53:00  BASE  0.84084  109  2.058    130  -8.5  100   -8.5  0     0     1012.8   NA       0.0000   9999     0     0     0    
2019/08/22  21:54:00  BASE  0.40572  108  2.058    130  -8.4  100   -8.4  0     0     1012.8   NA       0.0000   9999     0     0     0    
2019/08/22  21:55:00  BASE  0.0588   108  2.058    130  -8.2  100   -8.2  0     0     1012.8   NA       0.0000   9999     0     0     0    
2019/08/22  21:56:00  BASE  0        145  2.058    130  -8.1  100   -8.1  0     0     1012.8   NA       0.0000   9999     0     0     0    
2019/08/22  21:57:00  BASE  0        151  1.81692  143  -8.0  100   -8.0  0     0     1012.8   NA       0.0000   9999     0     0     0    
2019/08/22  21:58:00  BASE  0        100  1.81692  143  -7.9  100   -7.9  0     0     1012.8   NA       0.0000   9999     0     0     0    
2019/08/22  21:59:00  BASE  0.0294   82   1.81692  143  -7.9  100   -7.9  0     0     1012.8   NA       0.0000   9999     0     0     0    
2019/08/22  22:00:00  BASE  0.81144  78   2.0874   67   -7.8  100   -7.8  0     0     1012.8   NA       0.0000   9999     0     0     0    
2019/08/22  22:01:00  BASE  2.18736  78   3.32808  81   -7.9  100   -7.9  0     0     1012.8   NA       0.0000   9999     0     0     0    
2019/08/22  22:02:00  BASE  2.76948  80   3.32808  81   -8.0  100   -8.0  0     0     1012.8   NA       0.0000   9999     0     0     0    
2019/08/22  22:03:00  BASE  2.59896  76   3.32808  81   -8.2  100   -8.2  0     0     1012.8   NA       0.0000   9999     0     0     0    
2019/08/22  22:04:00  BASE  2.45196  72   3.32808  81   -8.3  100   -8.3  0     0     1012.8   NA       0.0000   9999     0     0     0    
2019/08/22  22:05:00  BASE  2.31672  69   3.32808  81   -8.5  100   -8.5  0     0     1012.8   NA       0.0000   9999     0     0     0    
2019/08/22  22:06:00  BASE  2.2932   71   3.32808  81   -8.5  100   -8.5  0     0     1012.8   NA       0.0000   9999     0     0     0    
2019/08/22  22:07:00  BASE  2.43432  73   3.32808  81   -8.5  100   -8.5  0     0     1012.7   NA       0.0000   9999     0     0     0    
2019/08/22  22:08:00  BASE  2.56956  74   3.32808  81   -8.4  100   -8.4  0     0     1012.7   NA       0.0000   9999     0     0     0    
2019/08/22  22:09:00  BASE  2.95764  80   3.53976  87   -8.4  100   -8.4  0     0     1012.7   NA       0.0000   9999     0     0     0    
2019/08/22  22:10:00  BASE  3.10464  84   3.53976  87   -8.4  100   -8.4  0     0     1012.7   NA       0.0000   9999     0     0     0    
2019/08/22  22:11:00  BASE  2.72832  82   3.53976  87   -8.4  100   -8.4  0     0     1012.7   NA       0.0000   9999     0     0     0    
2019/08/22  22:12:00  BASE  2.53428  80   3.53976  87   -8.3  100   -8.3  0     0     1012.7   NA       0.0000   9999     0     0     0    
2019/08/22  22:13:00  BASE  2.71068  83   3.53976  87   -8.3  100   -8.3  0     0     1012.6   NA       0.0000   9999     0     0     0    
2019/08/22  22:14:00  BASE  3.0576   87   3.53976  87   -8.3  100   -8.3  0     0     1012.6   NA       0.0000   9999     0     0     0    
2019/08/22  22:15:00  BASE  3.29868  89   3.53976  90   -8.2  100   -8.2  0     0     1012.6   NA       0.0000   9999     0     0     0    
2019/08/22  22:16:00  BASE  3.40452  87   3.59856  85   -8.3  100   -8.3  0     0     1012.6   NA       0.0000   9999     0     0     0    
2019/08/22  22:17:00  BASE  3.48096  84   3.59856  89   -8.3  100   -8.3  0     0     1012.6   NA       0.0000   9999     0     0     0    
2019/08/22  22:18:00  BASE  3.47508  87   3.59856  91   -8.3  100   -8.3  0     0     1012.6   NA       0.0000   9999     0     0     0    
2019/08/22  22:19:00  BASE  3.58092  90   3.86904  92   -8.2  100   -8.2  0     0     1012.6   NA       0.0000   9999     0     0     0    
2019/08/22  22:20:00  BASE  3.72204  92   3.90432  95   -8.3  100   -8.3  0     0     1012.5   NA       0.0000   9999     0     0     0    
2019/08/22  22:21:00  BASE  3.58092  96   3.90432  95   -8.3  100   -8.3  0     0     1012.5   NA       0.0000   9999     0     0     0    
2019/08/22  22:22:00  BASE  3.087    105  3.90432  95   -8.3  100   -8.3  0     0     1012.5   NA       0.0000   9999     0     0     0    
2019/08/22  22:23:00  BASE  2.75772  109  3.90432  95   -8.3  100   -8.3  0     0     1012.5   NA       0.0000   9999     0     0     0    
2019/08/22  22:24:00  BASE  2.66952  108  3.90432  95   -8.2  100   -8.2  0     0     1012.6   NA       0.0000   9999     0     0     0    
2019/08/22  22:25:00  BASE  2.7342   110  3.90432  95   -8.2  100   -8.2  0     0     1012.6   NA       0.0000   9999     0     0     0    
2019/08/22  22:26:00  BASE  3.01056  112  3.90432  95   -8.2  100   -8.2  0     0     1012.6   NA       0.0000   9999     0     0     0    
2019/08/22  22:27:00  BASE  3.13992  109  3.90432  95   -8.3  100   -8.3  0     0     1012.6   NA       0.0000   9999     0     0     0    
2019/08/22  22:28:00  BASE  3.15168  107  3.90432  95   -8.3  100   -8.3  0     0     1012.6   NA       0.0000   9999     0     0     0    
2019/08/22  22:29:00  BASE  3.51036  106  4.75104  103  -8.5  100   -8.5  0     0     1012.6   NA       0.0000   9999     0     0     0    
2019/08/22  22:30:00  BASE  3.89844  106  4.75104  103  -8.4  100   -8.4  0     0     1012.6   NA       0.0000   9999     0     0     0    
2019/08/22  22:31:00  BASE  3.81612  107  4.75104  103  -8.4  100   -8.4  0     0     1012.6   NA       0.0000   9999     0     0     0    
2019/08/22  22:32:00  BASE  3.56328  108  4.75104  103  -8.3  100   -8.3  0     0     1012.6   NA       0.0000   9999     0     0     0    
2019/08/22  22:33:00  BASE  3.78084  107  4.75104  103  -8.2  100   -8.2  0     0     1012.6   NA       0.0000   9999     0     0     0    
2019/08/22  22:34:00  BASE  4.01604  107  4.75104  103  -8.2  100   -8.2  0     0     1012.6   NA       0.0000   9999     0     0     0    
2019/08/22  22:35:00  BASE  3.822    108  4.75104  103  -8.1  100   -8.1  0     0     1012.6   NA       0.0000   9999     0     0     0    
2019/08/22  22:36:00  BASE  3.9396   107  4.86864  100  -8.1  100   -8.1  0     0     1012.6   NA       0.0000   9999     0     0     0    
2019/08/22  22:37:00  BASE  4.03956  109  4.86864  100  -8.2  100   -8.2  0     0     1012.7   NA       0.0000   9999     0     0     0    
2019/08/22  22:38:00  BASE  4.05132  110  4.86864  100  -8.3  100   -8.3  0     0     1012.7   NA       0.0000   9999     0     0     0    
2019/08/22  22:39:00  BASE  3.63972  106  4.86864  100  -8.4  100   -8.4  0     0     1012.7   NA       0.0000   9999     0     0     0    
2019/08/22  22:40:00  BASE  1.99332  157  4.86864  100  -8.5  100   -8.5  0     0     1012.7   NA       0.0000   9999     0     0     0    
2019/08/22  22:41:00  BASE  1.58172  278  4.86864  100  -8.5  100   -8.5  0     0     1012.7   NA       0.0000   9999     0     0     0    
2019/08/22  22:42:00  BASE  1.84044  296  4.86864  100  -8.5  100   -8.5  0     0     1012.7   NA       0.0000   9999     0     0     0    
2019/08/22  22:43:00  BASE  1.54056  327  4.86864  100  -8.5  100   -8.5  0     0     1012.7   NA       0.0000   9999     0     0     0    
2019/08/22  22:44:00  BASE  1.55232  338  4.86864  100  -8.4  100   -8.4  0     0     1012.7   NA       0.0000   9999     0     0     0    
2019/08/22  22:45:00  BASE  1.62288  341  4.86864  100  -8.4  100   -8.4  0     0     1012.7   NA       0.0000   9999     0     0     0    
2019/08/22  22:46:00  BASE  1.72284  359  4.75104  110  -8.4  100   -8.4  0     0     1012.7   NA       0.0000   9999     0     0     0    
2019/08/22  22:47:00  BASE  1.7934   30   4.75104  110  -8.4  100   -8.4  0     0     1012.7   NA       0.0000   9999     0     0     0    
2019/08/22  22:48:00  BASE  2.3814   45   4.29828  103  -8.5  100   -8.5  0     0     1012.7   NA       0.0000   9999     0     0     0    
2019/08/22  22:49:00  BASE  2.48136  54   3.41628  49   -8.5  100   -8.5  0     0     1012.7   NA       0.0000   9999     0     0     0    
2019/08/22  22:50:00  BASE  2.28732  69   3.41628  49   -8.5  100   -8.5  0     0     1012.7   NA       0.0000   9999     0     0     0    
2019/08/22  22:51:00  BASE  2.36964  76   3.41628  49   -8.5  100   -8.5  0     0     1012.7   NA       0.0000   9999     0     0     0    
2019/08/22  22:52:00  BASE  2.34612  73   3.41628  49   -8.4  100   -8.4  0     0     1012.7   NA       0.0000   9999     0     0     0    
2019/08/22  22:53:00  BASE  2.2638   70   3.41628  49   -8.4  100   -8.4  0     0     1012.7   NA       0.0000   9999     0     0     0    
2019/08/22  22:54:00  BASE  1.8522   64   3.41628  49   -8.4  100   -8.4  0     0     1012.7   NA       0.0000   9999     0     0     0    
2019/08/22  22:55:00  BASE  1.10544  48   3.41628  49   -8.5  100   -8.5  0     0     1012.7   NA       0.0000   9999     0     0     0    
2019/08/22  22:56:00  BASE  0.65856  53   3.41628  49   -8.5  100   -8.5  0     0     1012.7   NA       0.0000   9999     0     0     0    
2019/08/22  22:57:00  BASE  0.74088  50   3.41628  49   -8.5  100   -8.5  0     0     1012.7   NA       0.0000   9999     0     0     0    
2019/08/22  22:58:00  BASE  0.4704   28   2.93412  79   -8.6  100   -8.6  0     0     1012.7   NA       0.0000   9999     0     0     0    
2019/08/22  22:59:00  BASE  0.0588   28   2.93412  79   -8.7  100   -8.7  0     0     1012.7   NA       0.0000   9999     0     0     0    
2019/08/22  23:00:00  BASE  0        31   2.69304  67   -8.8  100   -8.8  0     0     1012.7   NA       0.0000   9999     0     0     0    
2019/08/22  23:01:00  BASE  0        34   2.69304  67   -8.9  100   -8.9  0     0     1012.7   NA       0.0000   9999     0     0     0    
2019/08/22  23:02:00  BASE  0.1764   39   2.45196  76   -9.0  100   -9.0  0     0     1012.7   NA       0.0000   9999     0     0     0    
2019/08/22  23:03:00  BASE  0.1764   59   1.90512  59   -9.0  100   -9.0  0     0     1012.7   NA       0.0000   9999     0     0     0    
2019/08/22  23:04:00  BASE  0        119  1.29948  50   -8.9  100   -8.9  0     0     1012.7   NA       0.0000   9999     0     0     0    
2019/08/22  23:05:00  BASE  0        144  1.21128  62   -8.8  100   -8.9  0     0     1012.7   NA       0.0000   9999     0     0     0    
2019/08/22  23:06:00  BASE  0        115  1.21128  62   -8.8  100   -8.8  0     0     1012.7   NA       0.0000   9999     0     0     0    
2019/08/22  23:07:00  BASE  0.12348  54   0.84672  27   -8.8  100   -8.8  0     0     1012.8   NA       0.0000   9999     0     0     0    
2019/08/22  23:08:00  BASE  0.17052  38   0.81732  43   -8.8  100   -8.8  0     0     1012.8   NA       0.0000   9999     0     0     0    
2019/08/22  23:09:00  BASE  0.3234   37   0.81732  34   -8.9  100   -8.9  0     0     1012.8   NA       0.0000   9999     0     0     0    
2019/08/22  23:10:00  BASE  0.38808  37   0.81732  34   -9.0  100   -9.0  0     0     1012.8   NA       0.0000   9999     0     0     0    
2019/08/22  23:11:00  BASE  0.1764   32   0.81732  34   -9.0  100   -9.0  0     0     1012.8   NA       0.0000   9999     0     0     0    
2019/08/22  23:12:00  BASE  0.05292  23   0.81732  34   -9.0  100   -9.0  0     0     1012.8   NA       0.0000   9999     0     0     0    
2019/08/22  23:13:00  BASE  0        12   0.81732  34   -9.0  100   -9.0  0     0     1012.8   NA       0.0000   9999     0     0     0    
2019/08/22  23:14:00  BASE  0.08232  4    0.81732  34   -9.0  100   -9.0  0     0     1012.9   NA       0.0000   9999     0     0     0    
2019/08/22  23:15:00  BASE  0.294    10   0.81732  34   -9.0  100   -9.0  0     0     1012.9   NA       0.0000   9999     0     0     0    
2019/08/22  23:16:00  BASE  0.24108  18   0.81732  34   -9.0  100   -9.0  0     0     1012.9   NA       0.0000   9999     0     0     0    
2019/08/22  23:17:00  BASE  0.02352  21   0.81732  34   -9.0  100   -9.0  0     0     1012.9   NA       0.0000   9999     0     0     0    
2019/08/22  23:18:00  BASE  0.06468  32   0.81732  34   -9.0  100   -9.0  0     0     1012.9   NA       0.0000   9999     0     0     0    
2019/08/22  23:19:00  BASE  0.0882   76   0.78792  85   -9.0  100   -9.0  0     0     1012.9   NA       0.0000   9999     0     0     0    
2019/08/22  23:20:00  BASE  0.2058   109  0.90552  106  -8.9  100   -8.9  0     0     1012.9   NA       0.0000   9999     0     0     0    
2019/08/22  23:21:00  BASE  0.24696  104  0.90552  106  -8.9  100   -8.9  0     0     1012.9   NA       0.0000   9999     0     0     0    
2019/08/22  23:22:01  BASE  0.0882   97   0.90552  106  -8.9  100   -8.9  0     0     1012.9   NA       0.0000   9999     0     0     0    
2019/08/22  23:23:01  BASE  0.09996  96   0.90552  106  -8.9  100   -8.9  0     0     1012.9   NA       0.0000   9999     0     0     0    
2019/08/22  23:24:01  BASE  0.12936  96   0.90552  106  -8.8  100   -8.8  0     0     1012.9   NA       0.0000   9999     0     0     0    
2019/08/22  23:25:01  BASE  0.18816  91   0.90552  106  -8.8  100   -8.8  0     0     1012.9   NA       0.0000   9999     0     0     0    
2019/08/22  23:26:01  BASE  0.62328  92   1.0584   96   -8.8  100   -8.8  0     0     1012.9   NA       0.0000   9999     620   0     0    
2019/08/22  23:27:01  BASE  0.94668  101  1.0584   96   -8.8  100   -8.8  0     0     1012.9   NA       0.0000   9999     620   0     0    
2019/08/22  23:28:01  BASE  0.98196  116  1.87572  128  -8.8  100   -8.8  0     0     1012.8   NA       0.0000   9999     590   0     0    
2019/08/22  23:29:01  BASE  1.19952  125  1.90512  122  -8.9  100   -8.9  0     0     1012.8   NA       0.0000   9999     520   0     0    
2019/08/22  23:30:01  BASE  1.92864  123  3.35748  130  -9.0  100   -9.0  0     0     1012.8   NA       0.0000   9999     460   0     0    
2019/08/22  23:31:01  BASE  2.98116  126  4.1454   128  -9.2  100   -9.2  0     0     1012.8   NA       0.0000   9999     430   0     0    
2019/08/22  23:32:01  BASE  3.56328  128  4.53936  132  -9.3  100   -9.3  0     0     1012.8   NA       0.0000   9999     430   0     0    
2019/08/22  23:33:01  BASE  4.04544  128  4.68636  129  -9.2  100   -9.2  0     0     1012.8   NA       0.0000   9999     490   0     0    
2019/08/22  23:34:01  BASE  4.29828  127  4.68636  129  -9.1  100   -9.1  0     0     1012.8   NA       0.0000   9999     460   0     0    
2019/08/22  23:35:01  BASE  4.13364  125  4.68636  129  -8.9  100   -8.9  0     0     1012.8   NA       0.0000   9999     430   0     0    
2019/08/22  23:36:01  BASE  4.1454   124  4.72164  129  -8.7  100   -8.7  0     0     1012.8   NA       0.0000   9999     490   0     0    
2019/08/22  23:37:01  BASE  4.15128  124  4.72164  129  -8.6  100   -8.6  0     0     1012.8   NA       0.0000   9999     520   0     0    
2019/08/22  23:38:01  BASE  4.2336   126  4.75104  128  -8.5  100   -8.5  0     0     1012.7   NA       0.0000   9999     590   0     0    
2019/08/22  23:39:01  BASE  4.33944  127  4.83924  138  -8.5  100   -8.5  0     0     1012.8   NA       0.0000   9999     560   0     0    
2019/08/22  23:40:01  BASE  4.19244  126  4.83924  138  -8.4  100   -8.4  0     0     1012.8   NA       0.0000   9999     360   0     0    
2019/08/22  23:41:01  BASE  4.01604  124  4.83924  138  -8.3  100   -8.3  0     0     1012.8   NA       0.0000   9999     360   0     0    
2019/08/22  23:42:01  BASE  3.87492  122  4.83924  138  -8.2  100   -8.2  0     0     1012.7   NA       0.0000   9999     230   0     0    
2019/08/22  23:43:01  BASE  3.72792  122  4.83924  138  -8.1  100   -8.1  0     0     1012.7   NA       0.0000   9999     230   0     0    
2019/08/22  23:44:01  BASE  3.35748  121  4.83924  138  -8.0  100   -8.0  0     0     1012.7   NA       0.0000   9999     0     0     0    
2019/08/22  23:45:01  BASE  3.01644  116  4.83924  138  -7.9  100   -7.9  0     0     1012.7   NA       0.0000   9999     160   0     0    
2019/08/22  23:46:01  BASE  3.04584  114  4.83924  138  -7.9  100   -7.9  0     0     1012.8   NA       0.0000   9999     0     0     0    
2019/08/22  23:47:01  BASE  2.80476  114  4.83924  138  -7.8  100   -7.8  0     0     1012.8   NA       0.0000   9999     0     0     0    
2019/08/22  23:48:01  BASE  2.65776  110  4.83924  138  -7.9  100   -7.9  0     0     1012.8   NA       0.0000   6000     0     0     0    
2019/08/22  23:49:01  BASE  2.53428  106  4.50996  120  -7.9  100   -7.9  0     0     1012.8   NA       0.0000   4300     0     0     0    
2019/08/22  23:50:01  BASE  2.34612  101  4.263    119  -7.9  100   -7.9  0     0     1012.8   NA       0.0000   BR       3200  0     0    
2019/08/22  23:51:01  BASE  2.44608  103  4.116    116  -8.0  100   -8.0  0     0     1012.8   NA       0.0000   BR       3000  0     0    
2019/08/22  23:52:00  BASE  2.51664  107  4.05132  122  -8.0  100   -8.0  0     0     1012.7   NA       0.0000   BR       2100  0     0    
2019/08/22  23:53:00  BASE  2.7048   111  3.41628  108  -8.0  100   -8.0  0     0     1012.7   NA       0.0000   BR       1500  0     0    
2019/08/22  23:54:00  BASE  2.78124  117  3.41628  108  -8.0  100   -8.0  0     0     1012.7   NA       0.0000   BR       2100  0     0    
2019/08/22  23:55:00  BASE  2.65188  117  3.41628  108  -8.0  100   -8.0  0     0     1012.7   NA       0.0000   BR       2200  0     0    
2019/08/22  23:56:00  BASE  2.66952  118  3.41628  108  -8.0  100   -8.0  0     0     1012.7   NA       0.0000   BR       2600  0     0    
2019/08/22  23:57:00  BASE  2.65776  121  3.41628  108  -8.0  100   -8.0  0     0     1012.7   NA       0.0000   BR       3200  0     0    
2019/08/22  23:58:00  BASE  2.81652  125  3.41628  130  -8.0  100   -8.0  0     0     1012.7   NA       0.0000   BR       4500  0     0    
2019/08/22  23:59:00  BASE  3.09876  130  3.41628  130  -7.9  100   -7.9  0     0     1012.7   NA       0.0000   BR       8000  0     0